GFSCGP_sfc_rhum_000.txt.gz
RH
8 8 8 7 7 6 6 8 12 13 15 19 21 28 26 25 25 24 25 34 32 33 32 36 42 44 44 46 52 58 63 66 64 68 75 67 66 64 65 57 60 62 64 67
8 8 6 6 7 7 7 8 9 16 18 19 27 29 28 26 23 26 25 31 31 32 33 40 41 42 43 48 53 59 64 67 67 62 73 70 68 52 52 64 65 62 59 63
6 5 7 8 8 8 8 8 9 13 24 20 28 31 37 30 29 27 28 27 31 33 34 36 39 41 40 46 54 58 64 66 69 67 58 54 48 50 41 42 41 48 58 60
7 7 7 7 8 8 10 9 9 12 26 20 22 19 38 32 36 33 29 32 31 34 34 32 34 39 40 46 51 63 68 70 63 58 51 59 44 45 44 45 44 54 54 59
9 8 8 8 7 8 12 14 15 16 22 22 30 23 17 29 35 31 29 28 29 30 32 32 30 35 39 49 52 56 61 61 57 56 55 42 49 40 43 45 57 64 59 59
7 6 6 7 7 8 16 19 20 17 14 20 14 19 13 17 29 25 27 28 31 30 31 32 31 38 47 45 46 45 56 60 57 49 50 56 58 56 49 51 52 44 44 46
9 8 7 8 11 12 12 12 15 16 16 14 16 18 15 12 23 21 23 28 31 31 31 34 39 46 49 50 44 42 55 63 58 46 46 50 54 58 60 60 43 60 43 43
10 12 8 7 8 10 10 8 10 20 13 10 22 16 15 20 20 17 21 23 28 32 32 35 44 45 48 46 44 46 55 58 51 48 56 59 59 42 45 48 52 44 44 43
9 9 7 7 8 8 10 12 7 12 10 11 10 16 17 19 22 23 26 27 29 31 31 35 39 42 44 42 46 49 55 56 52 48 59 60 60 61 55 62 62 44 58 44
8 12 7 9 9 11 10 8 11 10 20 22 13 14 13 17 16 21 26 29 31 30 31 33 35 41 39 38 42 45 51 55 51 50 52 47 52 55 57 58 61 61 59 58
6 10 12 11 11 9 12 11 12 10 13 16 15 13 13 14 14 17 23 29 32 30 29 31 35 40 37 36 39 44 47 50 50 50 51 53 52 51 53 54 56 58 59 61
7 9 12 11 10 10 8 10 11 15 25 15 16 12 12 12 13 15 18 26 29 32 25 26 33 39 36 39 35 38 39 40 41 44 49 51 53 55 54 54 54 54 57 59
8 10 12 13 12 13 13 12 10 10 11 21 17 14 17 16 19 19 19 24 32 35 30 28 32 37 38 38 40 36 36 30 31 40 44 49 54 54 56 55 53 53 57 58
22 10 14 10 13 9 14 12 12 10 15 16 15 16 14 16 19 18 22 27 30 37 35 34 34 35 38 40 44 44 38 30 32 37 40 50 55 55 52 53 56 55 57 60
12 19 13 10 8 8 10 12 13 14 13 16 14 17 17 18 18 20 19 21 32 36 37 39 34 36 42 44 46 44 40 40 41 42 46 48 53 54 54 58 59 57 57 55
18 21 18 13 11 10 10 10 12 13 12 16 15 17 12 14 15 16 17 20 28 36 39 38 38 38 43 44 44 40 42 39 45 51 49 49 53 57 58 57 58 58 55 54
22 21 25 19 15 15 17 14 14 14 16 16 17 16 14 16 17 18 24 23 27 31 36 37 38 39 43 40 36 37 40 39 48 53 51 51 55 56 58 52 55 57 58 56
26 28 20 17 24 30 15 14 12 15 15 14 15 15 15 16 20 26 27 30 27 28 33 36 32 36 39 29 26 35 33 44 50 54 52 51 53 55 56 55 55 58 55 57
26 25 21 23 22 17 20 20 18 17 19 16 16 15 13 16 25 23 27 29 30 32 34 33 31 34 33 30 30 36 41 42 45 48 50 48 49 53 55 58 56 57 56 53
24 30 22 22 24 25 17 13 14 17 22 13 14 15 15 20 20 23 33 29 31 31 32 34 34 28 29 32 27 39 43 46 46 44 44 43 46 52 55 55 57 56 54 49
26 28 23 21 24 17 20 16 16 26 23 16 14 15 17 24 20 33 32 33 32 33 35 35 31 29 33 35 38 43 43 45 42 39 38 42 50 58 59 57 57 57 59 56
27 27 21 22 27 30 19 18 23 33 22 19 19 18 20 24 28 29 32 34 33 34 32 32 32 32 34 40 48 53 55 53 47 44 45 53 66 55 37 65 59 56 66 78
26 27 26 24 26 35 23 27 25 26 32 30 31 28 25 26 25 27 31 32 31 32 30 28 31 39 42 46 56 59 61 55 51 60 62 73 70 51 55 64 71 53 60 49
29 29 23 30 30 27 23 21 25 27 31 30 28 27 29 31 26 29 33 34 34 34 35 35 38 42 46 48 54 60 56 64 62 59 66 72 58 60 60 56 43 41 40 57
23 29 27 28 31 26 23 29 29 29 28 29 28 27 29 28 29 30 34 35 34 36 37 40 42 43 46 53 57 54 57 58 56 56 62 54 46 53 54 74 60 49 82 71
21 27 26 25 35 35 33 27 27 29 28 27 31 30 27 27 27 28 31 34 37 43 44 45 48 47 52 53 56 60 61 60 60 56 46 42 40 39 38 44 58 95 92 99

GFSCGP_sfc_rhum_003.txt.gz
RH
8 7 7 6 7 6 8 9 10 10 10 12 14 19 22 21 19 20 22 27 26 26 26 30 32 34 36 38 46 51 57 67 64 73 75 81 65 70 59 82 63 64 68 67
8 8 6 5 5 6 6 7 9 9 10 12 14 19 18 20 20 19 20 23 23 24 26 31 34 35 36 40 45 52 55 67 64 58 73 74 62 45 41 46 55 56 52 66
7 7 6 6 6 7 7 7 7 9 10 10 18 18 22 18 18 19 17 19 20 23 23 28 32 33 32 40 47 51 57 59 65 66 62 58 53 54 40 37 39 43 49 48
5 4 5 5 6 6 8 6 6 7 12 15 11 16 26 23 20 18 19 18 18 20 20 21 24 29 29 35 41 52 57 62 57 54 49 59 48 39 41 40 38 48 49 50
6 5 6 7 6 6 9 6 7 7 9 12 16 15 26 25 27 22 17 18 19 20 20 20 20 26 27 34 39 48 58 56 53 51 52 40 44 33 32 36 50 61 61 52
6 5 6 6 5 6 8 9 10 10 10 15 15 22 14 28 28 23 20 16 18 19 20 21 21 25 29 34 40 48 55 59 54 48 47 49 50 50 43 46 47 39 37 38
8 6 5 5 6 7 8 9 14 15 15 16 11 11 15 10 12 12 16 19 17 18 20 23 25 29 37 40 43 42 55 61 55 46 41 41 47 53 57 55 42 55 38 38
10 10 6 6 7 9 9 8 11 22 14 11 12 15 11 7 10 13 14 14 18 21 21 23 27 33 40 40 43 41 55 60 53 45 51 53 54 40 40 43 48 43 42 40
9 9 5 6 6 6 9 10 6 8 9 11 10 12 9 13 12 14 13 15 19 21 24 23 25 33 38 41 43 43 54 58 51 44 57 57 56 57 54 58 58 43 53 42
7 11 6 5 5 6 8 7 9 9 18 19 12 12 11 16 13 11 13 15 18 20 25 24 25 34 36 37 37 39 46 53 49 45 47 41 43 50 54 55 58 59 57 56
5 8 9 7 8 9 8 10 10 8 13 15 14 13 11 12 12 12 12 13 17 20 26 24 26 31 35 35 34 34 40 46 47 46 46 46 46 45 49 51 51 54 56 58
6 7 10 8 6 6 6 9 10 13 20 13 13 13 8 9 9 11 12 14 16 22 27 26 26 30 34 34 32 31 32 36 39 39 44 46 49 50 49 51 50 52 55 56
6 8 11 11 8 7 8 8 7 8 9 24 18 15 13 11 12 13 14 13 19 25 29 27 26 31 36 34 38 31 28 28 29 36 40 45 50 52 55 54 52 51 53 54
17 8 12 9 12 9 12 8 8 8 13 14 15 15 16 14 15 15 15 16 16 24 28 29 27 31 38 38 42 36 31 26 27 30 34 44 49 54 52 53 53 53 54 56
8 15 11 8 6 7 8 9 8 11 12 14 13 17 14 14 15 16 14 15 17 22 27 31 26 30 42 42 46 39 34 35 31 35 39 44 48 52 54 55 55 52 52 52
11 16 13 12 8 6 7 7 8 9 9 10 10 13 11 11 12 13 14 14 16 19 25 30 31 31 40 41 41 40 37 36 40 43 44 45 47 50 53 53 53 53 53 54
17 14 17 18 10 9 11 9 9 9 9 11 14 14 14 15 15 15 18 17 18 17 21 28 32 36 42 38 43 40 38 38 41 47 47 47 49 52 54 49 51 55 58 58
21 25 18 16 16 21 11 8 9 9 10 10 13 13 14 14 13 15 17 19 21 19 19 26 28 32 34 34 34 35 32 42 46 49 50 48 50 51 52 53 55 59 58 61
14 23 20 21 18 16 13 14 12 13 15 12 13 14 14 12 13 16 15 19 23 24 23 24 27 29 36 36 34 37 34 37 42 47 50 49 48 51 52 53 56 58 59 58
15 21 20 21 24 25 20 14 12 12 18 12 13 15 14 14 17 25 23 22 24 25 27 29 29 30 34 34 24 34 37 41 44 47 46 45 46 48 50 54 58 56 57 53
22 23 19 17 20 17 13 14 14 27 28 16 13 14 14 17 17 24 22 24 26 27 30 30 31 34 41 34 33 41 41 43 43 39 39 46 47 54 54 58 91 91 59 60
28 23 18 18 22 27 14 14 19 32 21 19 18 16 17 17 16 17 22 26 27 30 30 31 34 34 33 36 42 46 52 49 46 48 45 48 55 44 37 67 66 60 62 65
24 28 30 31 39 33 20 27 22 21 24 22 23 20 20 18 16 16 20 26 27 29 30 28 30 36 36 37 42 50 57 54 52 54 56 53 56 48 50 62 73 53 63 69
27 22 20 26 27 24 22 20 23 23 23 22 21 21 21 22 21 20 23 27 28 28 29 28 31 33 39 42 48 56 57 56 56 59 57 59 64 66 57 69 43 48 51 67
20 23 23 24 24 26 25 26 24 23 23 22 22 22 23 23 22 23 29 34 33 34 34 35 38 38 43 47 49 49 53 58 61 56 52 52 43 53 58 63 57 49 73 68
15 21 21 26 34 34 34 25 22 24 24 23 24 26 25 25 25 28 33 34 36 41 38 55 54 39 48 50 54 55 54 56 57 52 45 40 36 35 33 66 56 96 94 100

GFSCGP_sfc_rhum_006.txt.gz
RH
10 10 9 7 8 8 10 10 15 14 18 21 21 23 22 17 19 24 25 27 26 26 30 31 37 42 41 44 61 69 73 73 74 81 79 81 76 82 75 73 72 74 75 79
10 10 6 6 6 7 7 8 10 11 11 13 25 25 21 18 18 22 24 27 25 26 28 32 34 32 35 49 60 64 73 78 77 88 81 78 85 82 81 72 76 72 70 77
9 8 6 6 6 7 7 7 8 10 10 10 12 25 38 21 17 18 19 22 23 25 29 34 36 36 36 46 56 63 73 77 77 78 84 90 78 75 71 69 71 71 64 65
7 6 6 6 6 6 8 6 6 6 10 14 12 20 37 26 20 19 18 19 20 23 26 29 32 36 36 46 49 65 68 74 74 72 72 79 71 69 72 67 72 69 63 67
7 6 6 8 7 6 7 5 6 6 8 9 10 16 28 22 22 19 18 18 18 20 21 24 27 32 33 41 45 59 70 74 74 74 68 68 72 65 64 64 68 72 76 74
5 4 4 5 4 5 5 9 7 7 8 13 11 14 27 32 28 21 19 16 18 18 20 21 25 30 31 37 44 56 72 76 73 70 67 66 64 68 68 73 72 67 67 64
6 5 4 4 6 6 6 10 16 17 16 16 10 13 21 19 16 21 46 51 16 17 20 23 26 30 36 43 48 60 72 78 73 66 64 59 61 67 70 74 69 73 66 66
8 8 6 5 6 7 8 9 14 26 17 13 12 18 19 12 15 20 22 23 16 17 22 25 30 33 40 45 55 59 72 76 71 67 68 68 68 68 68 73 70 68 68 66
8 9 6 5 5 6 9 11 7 10 9 11 12 13 10 10 10 9 11 10 18 18 18 23 26 36 42 47 56 62 71 76 71 66 77 74 75 72 72 72 72 68 71 60
8 12 6 5 6 6 8 7 11 10 22 22 12 13 14 20 14 12 11 11 13 19 20 20 24 36 44 44 52 58 66 73 68 66 69 67 71 71 72 71 73 73 74 71
6 9 9 6 8 8 8 9 9 8 11 16 16 20 17 21 16 12 11 12 12 13 22 24 25 38 44 42 48 50 58 65 64 63 67 66 61 61 69 69 69 70 73 73
6 7 12 8 6 5 6 9 11 15 22 16 18 15 10 12 10 10 12 11 14 16 20 26 26 37 42 44 44 45 46 52 55 58 66 67 66 64 66 68 66 68 72 73
8 10 13 12 7 6 8 8 7 8 10 25 18 20 15 11 12 13 13 14 22 25 27 32 29 34 42 44 48 44 40 39 43 54 59 65 68 69 72 70 70 69 70 72
15 8 15 10 13 9 12 8 7 7 16 15 15 22 16 14 16 21 17 18 19 28 28 34 36 35 42 47 50 48 41 34 38 45 53 67 71 72 68 72 73 70 73 74
8 19 10 8 6 6 8 8 8 10 12 16 17 22 28 26 18 18 16 17 18 24 27 37 35 37 47 51 52 50 46 46 44 54 56 65 70 70 72 73 71 71 72 70
9 18 12 11 7 7 7 7 8 9 8 9 10 15 20 18 18 16 14 15 20 22 22 27 39 38 48 52 51 57 49 50 56 59 59 64 67 69 70 72 73 74 73 72
17 13 20 18 10 10 12 9 7 8 10 10 18 16 19 20 17 16 18 18 22 23 24 27 33 48 52 50 52 61 52 55 61 66 64 63 66 67 71 69 72 73 73 75
24 30 20 18 20 24 11 8 7 7 9 8 13 15 22 16 15 15 17 20 18 22 24 26 26 34 48 42 43 52 51 57 63 66 64 64 66 68 71 73 74 76 76 79
45 36 26 24 18 15 13 12 18 23 20 11 12 15 17 14 13 22 20 16 18 24 30 31 23 28 44 44 49 54 52 53 57 61 65 64 64 69 70 73 76 79 80 78
24 40 47 26 23 24 19 14 14 20 26 22 20 20 18 16 18 31 28 20 21 22 27 31 30 33 43 45 44 53 51 57 58 59 62 63 65 69 70 74 78 77 77 77
19 24 22 22 23 16 13 16 18 41 45 33 24 23 25 28 25 30 26 24 24 26 29 32 36 42 53 50 50 53 52 55 54 53 57 64 66 72 71 76 82 87 78 79
28 29 23 24 26 27 15 24 27 38 31 22 20 25 23 20 19 20 20 29 28 30 32 34 44 52 52 54 60 59 62 62 64 61 60 65 71 63 59 76 83 87 89 90
23 45 60 46 58 58 23 28 27 24 31 26 26 22 21 20 19 19 24 26 30 32 35 36 44 56 56 58 60 63 64 61 62 64 68 69 68 68 69 75 84 79 92 90
43 39 35 57 79 81 32 27 25 22 25 20 19 19 19 21 20 23 26 30 34 38 38 39 48 52 57 65 68 71 68 67 63 71 72 71 78 78 77 74 74 94 89 87
54 78 65 41 74 40 33 27 24 22 22 20 20 19 20 22 25 28 30 39 42 49 53 67 67 73 90 90 88 78 71 75 74 72 70 79 70 72 64 96 99 77 83 77
18 42 38 43 38 37 34 24 21 23 22 23 24 21 20 23 29 32 44 52 52 58 58 63 73 81 88 91 88 79 71 74 74 70 61 57 62 68 69 76 70 98 96 99

GFSCGP_sfc_rhum_009.txt.gz
RH
9 18 22 16 12 10 15 16 24 20 17 24 28 34 32 29 30 33 39 41 40 42 47 49 49 50 58 61 67 71 69 86 93 94 94 95 90 93 94 89 82 82 83 81
12 20 15 12 10 10 11 19 26 21 20 26 29 31 28 39 38 31 35 37 37 41 52 52 53 51 56 63 76 78 82 85 88 95 94 94 95 94 90 88 87 84 80 82
12 16 12 11 9 9 11 14 17 23 22 22 30 44 58 41 34 29 31 32 33 41 49 54 55 54 56 66 75 80 88 88 91 87 94 94 94 92 86 76 74 67 61 73
11 10 10 9 9 9 14 10 9 12 25 38 29 58 58 47 37 30 31 32 33 38 38 43 45 52 61 65 71 82 85 88 86 88 89 88 92 73 84 83 81 74 74 70
12 11 10 10 9 8 10 9 9 9 15 22 24 29 45 43 43 29 29 31 30 35 36 40 41 45 52 57 67 78 83 92 87 74 81 80 74 73 82 85 79 70 71 75
10 7 8 8 8 8 8 9 13 11 16 24 19 24 55 44 34 24 25 26 27 32 35 36 38 41 52 54 67 76 90 85 83 72 71 66 66 74 80 82 78 81 72 81
9 8 6 5 9 8 9 24 30 33 26 25 17 18 40 29 24 23 34 32 31 27 33 37 39 42 53 60 68 80 83 86 82 74 75 68 69 70 70 72 84 81 81 88
15 13 8 5 8 10 12 17 34 37 35 22 15 22 28 23 24 24 26 26 21 30 27 34 37 39 51 58 72 74 78 89 83 80 74 72 72 74 80 89 87 76 80 82
13 14 7 6 7 8 12 20 14 21 22 25 23 21 24 24 25 25 28 26 22 22 28 31 35 38 48 60 74 76 77 85 85 82 81 76 76 77 86 81 79 82 87 71
12 18 8 7 7 7 13 12 23 24 36 35 23 32 32 29 25 22 35 33 31 30 28 29 36 40 49 60 69 72 74 76 82 83 83 81 83 81 80 82 80 81 80 80
8 15 12 8 10 12 16 17 24 21 27 29 35 35 35 27 24 21 17 23 28 30 34 47 46 42 51 60 68 72 75 77 80 81 83 82 87 83 82 81 79 81 84 84
8 17 17 10 9 8 11 13 22 35 28 33 36 32 17 23 22 22 22 23 22 27 32 38 35 43 50 60 68 73 71 77 77 78 80 80 69 72 83 81 78 78 80 80
9 13 18 21 10 8 10 10 15 24 22 27 39 32 26 20 20 23 24 27 29 25 37 44 52 42 52 57 64 71 66 70 71 69 78 77 73 73 77 80 78 77 79 78
23 17 24 21 18 12 13 10 13 15 24 23 30 30 35 31 35 28 26 24 32 34 49 39 47 47 50 54 59 66 60 60 59 62 69 72 76 79 81 81 81 82 81 82
13 25 22 17 12 10 11 11 11 15 17 27 25 34 33 26 26 24 21 18 22 30 41 55 51 51 51 53 59 68 54 60 54 59 64 66 74 81 82 83 84 82 81 83
12 31 22 20 14 10 10 10 12 12 12 14 17 30 23 23 30 30 22 22 25 28 25 37 55 56 52 54 60 65 61 63 61 59 62 74 77 81 85 83 85 84 82 84
24 30 32 26 19 17 22 18 15 14 12 14 19 27 34 35 32 36 30 23 24 29 29 31 37 59 50 55 62 66 79 86 77 78 67 68 69 77 82 83 89 90 90 84
51 50 37 30 34 32 22 16 17 26 26 25 24 27 24 30 24 26 27 26 25 26 27 31 38 68 54 61 75 77 80 83 79 82 79 72 80 80 83 88 88 87 86 82
53 58 69 49 34 26 21 16 28 30 42 30 30 32 22 22 37 40 34 31 31 32 41 40 40 69 58 65 61 67 80 77 78 83 74 76 78 78 87 91 89 88 89 88
52 59 68 81 69 62 30 24 24 31 48 35 27 31 39 27 54 52 37 34 33 32 37 40 42 63 57 58 58 76 85 86 84 82 75 82 81 84 86 89 90 83 86 83
58 56 61 73 74 57 35 36 24 51 46 36 32 30 34 46 48 46 34 34 34 36 37 47 57 69 59 55 72 81 85 88 78 73 82 82 83 84 84 86 91 88 87 90
53 59 61 55 62 63 45 38 48 51 51 41 39 44 34 34 32 33 28 42 38 38 45 48 70 76 75 70 83 91 87 78 78 75 76 80 82 72 72 90 90 89 94 94
88 82 70 81 75 71 67 66 48 40 47 42 37 35 35 33 33 32 32 32 44 45 52 57 75 82 82 84 91 88 94 90 88 81 80 81 82 80 75 90 91 95 94 98
66 79 82 78 80 76 73 64 60 62 52 46 41 37 38 42 35 35 40 42 70 74 88 89 87 92 95 94 92 94 92 92 95 87 87 84 84 86 87 98 98 98 97 98
83 84 83 81 76 67 58 54 57 44 41 34 38 38 37 35 42 48 50 82 93 95 93 92 91 94 96 97 95 90 85 84 92 86 73 90 93 94 100 100 100 97 98 97
67 86 95 97 89 90 80 62 33 34 32 30 33 35 36 39 50 63 77 82 88 93 95 96 93 90 95 97 91 88 70 78 86 83 90 92 92 94 99 96 98 99 98 99

GFSCGP_sfc_rhum_012.txt.gz
RH
10 13 16 16 18 16 20 28 28 23 23 40 44 48 44 40 39 42 42 44 45 47 44 46 47 48 56 61 69 75 80 92 95 97 97 96 96 94 95 90 88 88 90 88
12 16 13 16 17 16 16 23 27 26 22 28 45 46 41 40 42 42 43 47 46 51 54 53 56 58 63 69 70 78 82 95 88 96 96 96 96 95 93 92 91 90 83 85
14 12 13 16 17 18 16 24 23 27 25 29 39 53 52 42 38 37 39 43 45 54 55 55 57 62 65 71 81 83 90 90 91 92 96 96 96 96 91 89 87 70 68 77
12 9 12 17 17 16 18 14 16 25 28 43 34 57 56 41 38 37 38 42 43 54 52 55 56 60 64 69 78 84 91 94 92 92 95 93 93 92 92 85 81 78 75 72
11 11 11 14 15 13 13 11 11 24 28 35 43 56 39 51 41 39 39 36 38 52 53 56 55 55 61 64 75 81 91 93 92 94 92 94 84 84 92 92 81 76 80 81
10 10 12 11 10 11 9 11 17 20 25 40 37 36 44 56 38 35 37 35 36 47 51 52 52 53 60 62 69 79 88 92 93 82 84 72 74 83 89 88 80 89 83 96
11 8 10 9 12 11 11 17 23 26 29 24 22 42 33 42 32 31 32 37 34 40 45 52 51 58 64 66 71 78 84 93 87 75 75 71 75 76 78 80 88 88 95 94
19 14 10 9 10 10 13 15 28 28 34 23 22 24 17 31 29 29 25 32 32 39 38 44 43 51 63 63 69 77 84 85 80 75 78 75 76 77 79 82 92 83 85 90
22 17 11 9 8 9 11 20 17 25 51 29 27 22 26 28 30 26 32 31 33 37 38 40 42 44 57 62 68 74 80 76 75 78 84 80 79 85 90 89 85 80 90 82
13 16 11 8 9 10 9 13 20 28 28 30 29 30 33 42 34 30 29 30 30 34 38 39 41 44 54 58 65 72 73 74 80 90 81 76 79 83 87 87 85 89 85 83
10 18 12 15 13 11 17 20 21 20 29 28 32 35 31 33 33 33 32 28 32 33 35 38 43 43 52 56 66 74 74 76 87 89 89 83 85 84 86 88 84 83 85 87
11 16 13 10 11 8 14 16 21 26 25 35 35 35 26 26 28 28 33 34 39 37 38 35 39 41 51 58 72 76 74 78 83 82 82 82 89 89 89 89 83 83 86 90
10 17 16 16 14 14 13 15 23 28 32 31 31 31 30 26 25 25 27 30 37 43 52 45 38 41 53 60 73 76 73 75 81 86 80 88 84 81 88 88 83 83 84 84
21 19 15 14 18 17 15 12 17 22 28 29 31 34 34 30 29 31 30 31 38 40 42 48 46 47 54 62 70 73 73 74 77 82 78 82 71 68 79 85 82 82 84 85
11 16 24 19 11 14 12 10 15 18 20 19 20 30 34 34 29 28 27 30 34 37 51 44 44 48 56 64 68 73 71 78 74 80 80 83 71 70 79 81 76 84 87 87
20 18 20 13 11 12 11 11 11 14 16 22 24 29 33 27 32 28 23 26 27 31 43 55 57 48 42 58 65 70 70 80 83 78 78 88 80 72 79 76 80 89 90 88
18 22 28 18 17 16 19 17 16 16 24 18 26 25 33 36 30 32 28 26 27 26 28 36 63 58 52 52 59 69 77 85 83 77 77 88 88 74 80 74 82 86 92 89
42 28 34 24 23 25 18 18 19 29 33 34 28 31 27 29 32 36 32 29 26 25 25 27 38 62 57 52 65 72 84 84 84 90 86 83 76 75 72 74 80 87 94 94
52 57 63 34 24 23 25 31 29 25 35 36 38 39 35 35 38 42 35 31 28 29 34 35 40 48 78 57 68 71 84 85 85 89 88 85 75 73 72 82 90 89 94 94
44 52 53 70 39 33 51 44 41 31 48 34 40 41 38 40 50 52 45 37 38 36 36 35 43 63 82 81 69 69 83 89 89 88 83 75 68 68 76 86 90 92 93 87
70 71 64 75 66 51 58 53 37 50 49 43 33 37 44 43 45 41 42 38 36 35 36 44 62 74 86 72 68 86 88 88 88 87 81 77 78 74 72 82 93 92 95 97
93 90 85 76 62 63 50 49 59 63 52 40 42 49 52 50 40 42 37 39 46 38 44 52 92 95 88 84 88 95 97 97 95 93 87 85 85 73 72 88 94 98 98 97
85 88 92 96 94 81 79 67 73 76 52 45 42 43 42 42 45 42 47 56 44 54 81 88 96 98 94 93 91 94 97 94 94 94 95 94 94 95 98 95 98 99 97 98
77 84 91 85 81 86 77 71 69 62 62 56 53 53 50 52 50 47 44 56 82 96 95 92 94 95 96 93 93 95 96 94 91 93 92 90 94 93 92 98 98 98 98 99
85 80 88 90 88 78 58 59 57 48 48 48 49 46 48 50 56 72 77 90 97 97 95 94 94 95 98 95 95 96 93 92 94 90 86 89 92 97 99 100 99 98 97 97
85 81 92 93 86 86 77 68 52 41 44 36 36 30 34 37 44 76 80 94 93 95 95 94 96 95 97 94 94 95 95 91 93 93 94 92 94 99 100 99 99 99 98 99

GFSCGP_sfc_rhum_015.txt.gz
RH
11 13 17 14 17 18 23 33 42 39 34 48 53 57 49 47 47 49 49 49 47 48 47 50 52 52 58 68 77 80 89 93 95 98 98 98 98 97 96 94 90 91 93 90
13 15 12 12 18 17 17 33 36 30 35 47 55 58 44 45 47 46 47 48 47 48 52 54 54 55 60 68 75 84 83 92 91 97 97 96 96 96 94 95 92 93 89 92
13 11 12 15 20 20 20 23 31 32 34 44 51 62 56 49 44 41 42 42 43 49 53 54 56 58 59 69 76 80 82 90 95 95 97 98 97 97 95 93 97 91 82 84
12 10 12 19 18 19 28 16 21 29 34 52 47 78 60 53 51 47 45 44 45 47 48 52 57 60 63 66 71 77 86 93 94 95 95 94 97 96 94 93 84 78 81 81
13 11 13 17 18 16 19 15 16 29 32 51 52 59 59 52 57 50 46 44 45 46 49 51 54 57 59 58 72 80 92 95 94 94 95 98 95 93 93 92 82 86 83 81
9 10 11 11 11 14 17 14 19 32 42 56 50 46 53 61 48 43 40 39 44 46 49 49 50 52 58 61 69 80 91 93 95 95 96 96 91 88 94 91 83 87 87 96
13 10 10 13 16 16 15 18 26 37 52 55 38 49 40 40 37 35 38 39 41 44 50 52 55 57 61 68 69 76 87 91 94 95 95 92 79 85 85 86 81 94 97 97
16 13 10 10 14 16 16 18 28 27 37 31 30 51 36 27 28 31 30 33 37 43 49 54 57 57 56 62 69 72 82 83 94 90 86 77 79 81 84 84 95 90 93 93
21 19 13 10 10 12 18 19 16 23 54 35 34 28 20 31 27 30 31 30 37 40 48 53 55 56 55 60 68 73 79 80 92 78 80 77 82 79 82 89 93 84 87 87
15 19 13 9 12 12 11 14 21 29 32 40 30 31 28 23 37 37 34 33 36 37 43 49 52 55 57 58 62 68 75 80 90 86 75 72 80 79 85 94 90 86 91 87
15 16 15 14 15 12 19 19 24 24 33 30 32 30 29 24 36 41 36 30 33 37 42 44 49 48 54 59 62 68 77 81 91 86 88 86 86 85 92 90 89 88 90 89
13 16 15 12 13 13 13 15 17 18 26 39 32 28 26 30 38 33 32 32 36 36 40 42 44 44 48 58 61 68 75 79 86 80 86 90 90 90 89 89 87 87 89 91
15 19 19 17 16 19 17 19 24 27 36 41 34 32 30 31 34 37 37 42 38 38 42 43 43 46 45 53 60 67 77 76 82 84 87 91 90 90 82 84 87 86 87 89
22 21 12 14 15 16 18 16 23 20 30 30 33 24 35 30 31 36 38 42 42 37 39 42 44 45 44 48 60 71 78 75 77 80 87 87 88 91 82 82 84 84 87 88
12 17 19 11 10 15 14 14 20 21 17 19 18 29 31 30 29 31 29 36 45 43 40 44 42 44 47 52 65 79 78 77 77 81 84 83 90 91 78 79 80 80 82 82
20 18 22 20 14 11 12 13 14 16 23 22 24 32 32 26 37 33 29 33 40 49 47 48 48 53 59 59 71 79 79 80 82 81 81 92 93 92 78 78 80 78 86 84
21 17 23 16 18 18 24 16 16 19 20 20 26 23 38 39 35 30 34 34 35 40 54 57 56 60 60 68 73 80 82 84 87 84 90 93 93 96 89 77 81 82 78 85
37 21 29 15 24 26 14 30 18 31 38 38 34 30 34 26 28 36 33 31 31 32 36 50 62 68 64 52 68 78 86 91 92 91 94 95 95 94 88 76 78 78 85 88
63 38 56 29 28 23 35 39 44 36 36 40 39 41 35 37 34 37 40 38 30 32 34 35 43 59 72 75 76 81 92 92 92 92 93 94 91 88 89 81 83 81 89 93
58 63 45 66 31 33 50 49 50 57 46 38 40 45 42 34 32 43 46 36 38 38 40 43 49 59 76 80 82 86 92 93 92 91 91 90 87 83 86 81 86 87 89 86
86 85 70 68 67 57 55 59 52 44 50 58 51 49 52 46 50 50 44 42 45 41 42 55 74 64 74 88 86 95 95 96 95 95 96 94 92 91 94 94 95 96 96 97
90 90 99 90 74 67 51 55 52 61 53 54 54 57 56 54 46 47 49 46 44 45 51 72 79 90 88 91 90 96 97 97 96 94 95 97 98 94 96 97 95 92 93 98
81 86 92 93 84 78 84 79 75 77 66 57 50 52 49 56 59 55 56 60 67 78 81 87 95 98 98 97 94 97 100 98 97 96 96 95 95 97 96 96 92 94 97 99
81 87 90 88 76 80 79 76 74 68 62 53 52 53 47 51 64 71 77 85 89 95 95 94 97 99 99 98 97 98 97 96 95 94 93 90 87 95 96 97 97 97 99 99
86 84 91 92 81 76 60 69 71 64 62 54 49 48 51 50 49 71 78 86 94 96 97 97 98 99 99 96 95 95 95 95 94 92 91 90 96 95 99 100 100 100 99 100
86 91 94 93 82 79 73 68 50 48 47 39 40 40 39 37 40 48 70 88 95 96 97 98 98 96 95 94 97 96 94 90 91 91 96 97 95 96 100 99 100 99 99 97

GFSCGP_sfc_rhum_018.txt.gz
RH
13 17 20 19 16 28 35 47 44 44 43 53 59 61 59 53 54 59 58 62 65 60 55 57 58 62 66 73 82 85 88 93 96 97 97 98 97 96 97 93 92 90 91 91
16 17 15 15 18 24 35 42 45 42 39 50 63 62 55 54 53 51 52 54 55 53 58 60 62 63 67 76 81 86 88 94 91 96 96 94 96 95 92 92 92 92 91 93
16 13 13 15 21 21 29 33 37 38 46 51 58 65 63 58 52 51 49 48 48 50 59 60 64 65 64 74 82 84 87 90 89 95 97 98 97 97 95 93 94 92 91 91
12 10 12 18 21 21 25 20 28 39 45 55 50 63 72 56 57 52 50 49 48 49 50 56 57 64 63 67 75 80 85 88 89 94 94 95 96 97 95 91 91 88 88 89
14 13 14 20 17 19 20 20 26 34 46 56 67 58 54 62 64 54 48 45 45 45 46 53 56 57 58 60 70 76 85 88 91 93 92 93 96 94 89 89 87 89 87 85
14 12 12 11 16 17 17 16 26 39 51 64 57 51 54 74 54 47 46 44 43 43 45 48 51 55 57 59 68 72 84 88 92 94 94 94 94 93 92 90 85 84 85 90
17 11 13 13 16 21 17 23 31 49 59 60 50 65 42 41 47 40 42 43 43 43 45 50 56 58 63 66 69 72 84 86 92 94 94 94 94 92 90 89 84 88 89 94
16 16 11 11 15 18 20 21 33 32 46 48 54 63 43 31 29 36 36 39 40 44 46 50 56 57 60 64 69 73 82 84 92 94 94 96 95 88 87 87 84 85 86 88
21 17 14 10 13 12 19 22 21 29 41 34 39 32 24 26 26 34 34 43 42 41 47 50 52 54 56 61 68 74 80 83 91 92 94 93 89 85 85 86 87 86 90 85
17 21 14 12 12 16 15 17 21 30 33 46 35 35 32 34 30 28 38 40 40 40 47 48 52 55 56 55 60 70 74 81 87 92 90 82 81 74 83 87 89 88 87 87
18 20 17 15 16 13 19 21 27 27 32 30 32 34 29 25 25 28 30 36 37 40 45 48 55 55 56 56 57 66 74 80 90 92 90 83 76 76 82 83 87 88 88 88
15 17 18 15 15 14 14 16 19 22 28 39 33 26 23 24 25 38 42 39 40 40 42 48 53 56 60 59 58 63 69 75 84 87 89 85 81 80 86 88 88 87 88 89
17 21 19 19 15 21 17 20 22 27 31 41 29 28 28 37 35 40 43 46 47 49 55 52 54 58 62 61 64 64 67 71 81 87 88 88 85 88 91 91 91 88 88 89
37 20 16 16 16 16 22 20 23 20 31 30 35 23 23 32 33 39 48 46 49 51 53 59 59 56 57 60 66 69 70 70 81 84 88 88 88 95 97 95 90 87 87 88
18 19 19 13 14 16 16 17 24 23 24 23 20 29 21 27 32 36 41 51 52 52 52 58 53 55 61 66 71 70 72 79 82 85 88 87 94 94 96 97 96 93 88 84
28 21 20 15 12 14 13 13 21 22 23 26 28 29 28 31 38 41 42 46 49 49 47 49 58 60 65 63 69 74 77 83 87 87 89 92 92 94 95 95 90 89 86 84
34 23 28 19 20 18 22 13 15 22 24 21 29 19 33 39 37 37 44 43 42 44 48 54 56 59 67 65 75 84 86 91 92 89 92 92 92 91 94 90 89 86 84 78
58 30 30 24 28 33 17 34 13 14 32 33 36 31 37 35 33 37 46 42 43 51 58 62 64 67 68 73 77 80 91 94 94 94 92 91 89 89 92 90 90 86 82 82
76 42 37 27 32 30 47 57 53 33 41 48 50 41 42 45 39 40 40 42 41 47 53 60 61 63 71 67 76 88 95 96 95 94 93 90 88 88 90 95 94 93 92 90
67 73 56 60 35 39 53 59 56 63 48 52 60 51 48 43 40 49 54 41 40 44 45 46 52 59 69 78 77 90 96 97 96 94 93 90 87 88 94 96 94 95 95 94
91 92 72 79 69 64 66 66 60 44 49 64 63 58 52 58 56 55 52 54 55 54 57 64 66 68 74 85 90 94 97 97 94 92 92 93 94 94 94 96 97 98 98 98
88 93 95 92 72 65 66 63 56 62 60 58 63 69 65 60 56 58 59 70 72 75 81 83 86 91 91 90 89 96 97 98 96 94 94 94 96 95 95 96 98 96 97 98
78 91 96 87 83 84 84 86 80 72 68 60 53 57 68 70 78 77 81 82 83 84 89 92 93 96 96 95 94 96 98 97 96 96 96 96 96 96 96 96 97 95 94 93
84 88 92 88 75 81 77 66 71 69 61 57 56 55 56 73 76 80 82 86 88 89 90 93 95 97 99 97 96 98 97 96 95 96 96 97 98 98 96 96 95 96 97 97
91 85 91 94 86 78 70 74 73 62 59 56 54 56 60 63 69 78 82 87 90 93 95 94 96 97 98 97 97 96 96 95 94 93 94 96 97 97 99 100 100 99 100 99
95 93 90 92 84 87 75 70 61 57 58 55 48 49 54 57 63 78 90 93 94 94 96 97 97 96 97 96 97 96 95 93 93 94 95 95 98 99 99 99 98 99 99 99

GFSCGP_sfc_rhum_021.txt.gz
RH
11 9 10 11 18 16 21 24 26 34 32 35 37 38 41 47 47 47 49 53 50 52 48 49 52 52 56 59 65 69 72 77 74 74 73 70 68 67 69 67 73 73 73 72
12 11 9 9 13 21 25 25 25 31 34 32 35 36 37 42 49 46 48 50 51 50 51 53 54 52 56 62 66 70 74 77 78 68 71 66 70 66 66 67 72 73 71 75
11 8 10 11 12 14 25 25 28 26 32 34 35 36 38 42 42 43 42 41 42 48 48 49 52 53 53 60 66 70 77 77 78 76 73 77 75 75 71 71 69 69 71 73
9 8 9 11 12 12 17 23 25 27 32 35 33 36 38 38 45 44 41 39 38 40 42 40 45 49 51 56 60 69 74 78 74 79 76 81 68 67 62 65 64 68 74 73
14 9 11 10 11 14 14 18 22 26 29 32 41 38 27 45 46 41 39 37 36 34 36 37 39 43 47 50 54 61 73 78 78 80 80 74 76 64 64 66 75 77 79 76
12 8 8 9 9 13 15 18 24 28 26 40 30 36 24 36 41 35 33 35 34 33 33 34 36 40 45 47 51 56 72 81 80 79 80 83 80 76 70 69 66 65 63 62
14 12 9 8 11 14 14 16 25 31 40 29 23 39 29 21 26 26 27 32 33 32 32 36 38 41 49 52 55 56 73 80 79 78 79 80 81 81 81 76 63 67 60 58
20 18 11 8 9 14 15 13 19 34 29 23 32 39 29 24 20 24 26 25 29 32 34 36 42 45 49 52 59 62 70 76 76 76 81 82 81 70 78 73 60 60 54 54
21 18 9 8 9 12 16 18 11 16 21 21 21 29 23 22 22 21 22 25 29 31 33 34 36 41 45 53 59 64 70 74 74 71 80 81 82 80 75 78 78 60 68 56
16 19 9 7 8 10 12 11 15 17 29 27 20 24 16 22 22 21 21 23 26 28 32 33 34 42 45 47 54 58 65 73 71 70 72 72 77 82 78 76 83 73 68 68
13 13 13 11 10 9 13 14 16 13 17 22 22 17 18 20 19 17 16 19 21 26 31 34 38 41 45 46 48 54 59 65 68 71 73 77 75 79 81 71 82 83 78 77
14 15 18 11 8 8 7 11 13 17 29 19 17 15 13 17 14 16 18 17 22 27 30 34 36 40 43 48 46 49 52 55 61 65 74 79 81 83 75 67 71 85 85 82
15 17 21 19 12 11 12 10 10 10 11 28 18 15 20 20 22 22 22 21 31 37 37 38 38 45 49 49 54 50 50 47 49 61 67 77 85 74 82 80 84 84 82 84
25 19 22 18 19 13 14 12 12 10 15 15 18 15 14 15 22 24 27 29 31 40 39 42 43 47 50 54 59 58 52 46 49 56 67 78 79 84 79 84 89 90 92 88
27 36 27 20 14 12 11 10 10 14 14 16 13 20 15 17 18 24 24 28 37 40 41 46 43 49 56 59 63 60 55 58 56 67 71 76 82 82 82 88 90 89 88 78
28 30 28 26 18 13 13 11 9 11 10 14 11 18 16 16 21 24 26 27 36 39 40 42 45 48 53 57 59 58 60 60 64 74 75 81 83 84 81 82 84 86 89 88
39 26 28 24 18 16 18 13 12 12 12 15 17 17 18 21 24 26 30 30 34 37 39 40 45 52 54 51 55 58 61 64 73 76 79 84 84 84 81 76 83 86 88 86
48 44 31 27 22 27 15 11 10 11 12 13 12 18 21 20 21 25 30 30 33 31 35 38 37 42 48 44 47 56 59 74 79 81 83 82 83 82 80 80 82 88 87 78
47 47 44 35 28 20 26 31 16 13 17 18 20 20 25 25 24 29 31 28 32 36 41 41 35 38 47 49 54 64 71 74 78 81 83 81 80 81 81 83 84 83 90 79
58 54 42 46 34 32 26 44 45 42 23 34 38 34 33 30 24 24 35 30 32 33 39 44 46 46 47 52 57 67 72 79 80 79 80 80 80 81 80 80 83 86 89 84
57 76 58 63 47 32 57 54 47 37 30 46 44 37 37 34 41 45 40 41 39 40 44 46 47 51 59 61 62 69 74 78 75 76 80 83 81 82 80 86 89 91 89 82
58 69 83 67 61 44 55 49 49 52 51 45 44 44 49 49 50 51 53 56 56 56 53 54 65 70 70 70 70 76 78 78 83 87 85 88 86 80 77 88 89 89 89 88
59 62 93 91 65 64 55 62 55 48 52 51 53 48 51 51 52 52 57 58 59 62 62 56 62 73 75 77 75 80 93 90 87 86 89 92 87 87 88 94 92 93 92 87
71 68 89 76 66 57 52 46 43 41 45 42 42 44 43 56 48 56 58 61 63 66 66 63 64 71 79 82 87 86 86 87 86 87 89 85 86 88 90 82 77 78 77 78
81 73 80 87 91 66 51 52 49 46 42 42 42 42 48 59 73 73 71 71 68 71 77 78 81 81 88 86 87 84 87 90 83 82 83 84 82 85 93 93 89 73 82 78
89 95 73 81 78 81 63 61 55 53 53 51 45 44 43 47 59 65 72 74 73 78 80 79 82 80 86 89 86 86 87 85 82 80 75 72 70 73 78 79 79 98 98 99

GFSCGP_sfc_rhum_024.txt.gz
RH
7 8 8 8 9 11 12 14 14 14 19 24 23 25 23 28 27 27 28 32 31 33 32 34 37 37 39 43 50 56 59 63 60 57 54 52 52 75 54 50 59 58 60 59
7 8 7 7 8 10 11 13 14 15 22 23 21 24 23 23 30 28 27 30 32 31 32 36 38 38 40 46 51 58 62 66 66 54 57 50 50 44 44 48 55 60 58 60
8 5 6 6 8 11 13 14 14 16 23 22 20 24 23 20 24 28 26 25 27 31 30 33 37 39 38 45 52 56 64 66 67 64 57 60 58 58 53 51 51 52 59 59
7 4 6 7 8 10 15 12 13 16 22 25 22 22 19 19 24 27 28 25 24 28 30 29 32 36 38 41 46 55 62 68 64 69 63 70 55 50 41 45 42 46 56 56
9 7 7 8 7 8 12 10 13 14 19 19 23 26 19 19 23 23 25 24 22 22 23 26 27 31 35 37 40 48 60 69 69 70 72 59 68 46 46 46 58 65 61 61
8 6 5 6 5 6 8 11 13 13 15 23 19 22 20 18 25 19 20 22 22 20 20 22 24 26 30 32 37 42 59 73 71 68 70 74 68 63 49 56 53 45 43 52
10 8 6 5 6 6 8 12 21 24 22 23 16 19 21 14 12 15 14 18 20 20 19 22 24 24 30 33 38 40 60 75 71 67 67 72 72 69 69 65 56 47 40 42
14 12 8 6 6 7 8 11 17 30 21 19 17 22 17 15 12 11 10 13 16 20 21 22 26 27 30 33 40 46 59 72 67 65 72 73 73 57 56 62 48 43 36 41
13 12 6 6 5 6 9 13 9 13 13 16 14 17 14 12 13 12 11 12 15 18 20 21 23 26 29 35 44 51 60 71 68 61 71 72 71 70 58 64 66 49 53 41
11 15 8 7 6 5 7 8 13 12 25 25 16 17 16 16 14 11 10 10 12 14 18 19 21 25 29 31 37 45 56 67 64 58 61 60 65 68 67 70 72 61 61 57
10 13 11 9 10 8 8 10 11 11 13 18 19 15 11 13 12 10 8 8 8 10 15 18 21 22 28 30 33 40 47 55 57 59 62 65 61 62 73 67 69 67 67 72
11 12 16 10 6 6 6 10 12 16 24 15 15 13 8 10 9 9 9 8 7 9 12 16 19 23 25 32 31 35 39 44 49 53 62 62 63 65 71 70 73 66 69 69
12 15 19 15 7 6 7 8 8 10 11 22 18 16 10 10 11 11 11 11 12 20 21 19 20 25 28 31 38 34 36 36 37 47 50 58 63 68 72 72 67 68 68 67
22 15 20 16 14 9 11 8 7 8 14 14 14 15 12 11 11 11 11 11 11 17 25 26 26 27 31 35 43 43 36 33 35 39 46 60 67 71 66 69 70 64 64 69
12 22 17 14 10 9 9 8 7 8 10 13 12 14 13 12 11 11 9 9 10 20 27 30 29 30 37 40 45 44 40 41 38 44 48 58 70 71 70 71 72 67 66 65
18 27 24 21 13 11 11 10 9 8 8 8 9 12 9 9 10 10 10 9 12 17 26 30 33 33 38 41 45 46 46 44 46 49 53 63 70 74 72 76 76 75 70 77
20 21 28 28 17 16 18 13 11 11 9 8 11 11 9 10 10 12 14 12 13 13 21 27 32 35 39 39 45 47 50 48 54 57 61 66 72 76 75 71 74 78 73 63
28 34 24 24 22 29 15 11 10 11 10 8 8 8 9 10 10 10 14 14 14 14 15 22 24 29 35 34 39 45 46 55 61 64 66 68 74 75 75 75 75 75 66 70
22 34 28 30 24 20 15 13 15 14 15 10 9 9 8 8 11 17 16 16 19 18 18 20 22 26 36 36 41 48 50 56 61 66 68 69 70 73 75 77 75 72 72 73
22 32 33 31 31 32 37 34 33 31 24 11 10 11 10 10 14 16 16 22 21 20 22 29 28 28 34 38 39 51 54 61 63 63 65 67 69 73 75 79 79 75 70 76
40 39 38 31 31 25 44 37 33 34 28 37 12 11 11 14 14 28 28 28 27 28 31 32 33 37 43 42 48 56 57 60 57 56 62 68 70 77 82 78 78 75 73 77
40 39 30 28 38 39 42 37 36 51 43 36 33 30 25 23 35 35 37 39 38 41 39 40 46 49 48 52 56 60 62 63 63 65 66 72 75 73 75 80 79 86 86 89
35 28 27 38 36 50 42 51 43 41 48 44 37 33 34 34 36 38 40 42 41 41 41 43 51 60 60 59 62 69 77 72 71 71 76 80 83 80 77 83 86 86 92 89
50 41 39 52 55 50 41 41 39 36 38 38 38 35 33 36 35 37 38 39 40 40 40 40 49 58 66 69 67 73 74 75 77 79 82 86 87 89 88 80 85 88 95 96
71 62 51 54 56 50 51 48 38 37 34 34 34 38 42 44 46 48 51 50 50 53 54 52 55 61 68 70 72 70 77 75 80 78 76 84 91 92 91 89 80 74 81 76
86 93 46 42 48 54 66 57 46 50 43 41 42 40 35 35 39 44 55 58 62 67 61 64 65 66 71 70 76 78 72 74 72 72 70 66 66 62 57 60 62 96 92 99

GFSCGP_sfc_rhum_027.txt.gz
RH
6 6 8 9 9 10 11 12 14 12 11 16 18 18 19 20 21 20 20 22 22 23 24 25 28 27 30 34 42 48 54 63 54 50 50 49 49 58 51 51 69 57 58 59
7 8 6 7 7 9 10 12 12 10 13 14 17 18 16 19 22 20 20 21 21 20 22 27 30 29 32 38 44 54 60 66 63 50 54 46 49 38 43 41 47 53 51 61
6 5 4 7 8 10 10 11 12 11 15 15 16 19 17 16 18 20 19 18 19 20 21 25 30 32 32 37 44 55 65 68 67 64 54 54 52 48 42 37 38 41 49 47
5 4 5 6 8 8 11 9 9 10 22 20 15 21 19 16 17 19 20 19 17 19 19 20 26 30 31 35 40 52 63 69 66 70 60 68 52 46 37 39 34 38 44 45
6 5 5 7 7 8 10 8 10 10 15 20 16 17 17 15 17 15 17 19 18 16 18 19 20 27 29 31 34 44 61 70 69 71 71 55 62 41 37 36 56 56 59 49
6 4 4 4 5 6 7 9 10 10 11 22 17 22 16 21 16 14 15 16 18 16 17 19 19 22 26 28 32 38 60 72 73 70 73 76 69 62 45 46 46 43 39 45
8 6 4 4 6 6 7 10 15 17 16 17 18 19 29 12 13 12 12 13 15 16 16 18 21 21 26 30 34 36 57 74 74 71 69 73 73 70 69 59 48 51 35 35
10 11 6 5 6 7 8 9 14 25 18 14 12 19 14 11 10 11 10 9 12 16 17 17 20 21 24 29 37 42 53 70 71 70 73 74 76 56 53 59 44 40 33 35
11 11 6 5 5 5 7 10 7 11 11 13 12 13 12 12 10 11 11 9 9 13 15 16 17 19 21 28 37 43 51 66 70 66 74 74 74 72 55 63 66 46 51 35
9 13 7 5 5 4 5 6 10 10 23 23 13 15 15 15 14 12 11 9 8 9 12 14 16 19 21 22 30 39 48 62 65 63 66 65 69 71 68 64 67 63 57 51
7 10 10 8 8 7 6 6 8 8 11 17 17 14 10 14 13 12 10 9 8 7 9 12 16 18 22 22 26 34 43 54 62 61 63 66 64 64 68 61 65 66 65 64
8 9 13 10 6 5 5 6 7 13 20 13 13 12 7 8 9 9 9 8 7 7 7 9 12 16 19 25 24 27 33 40 50 54 62 64 66 65 64 66 65 68 70 70
8 11 15 14 8 7 8 7 5 6 8 21 16 13 9 8 9 9 9 9 9 9 11 12 10 15 20 24 31 27 30 30 36 50 52 61 65 66 67 69 68 68 72 71
21 10 16 14 15 9 11 8 6 5 10 13 13 14 11 10 11 10 10 9 9 10 11 17 16 12 20 25 35 35 31 27 31 37 45 60 67 68 64 68 72 72 73 72
12 19 13 11 10 9 7 7 6 8 8 12 12 13 12 11 10 11 10 10 10 10 10 18 21 19 27 30 38 38 34 36 32 42 46 56 67 68 70 72 73 73 72 68
12 20 18 16 11 11 11 6 6 6 6 8 8 10 9 9 9 11 10 10 10 10 9 15 23 24 28 32 37 42 41 38 40 46 48 58 67 71 73 74 73 74 69 68
16 15 20 21 14 13 14 11 9 8 7 7 9 10 9 9 10 11 15 12 12 11 10 10 21 28 31 31 39 42 46 42 47 51 54 60 69 74 77 72 75 80 75 69
18 24 20 20 21 28 14 9 8 9 9 8 8 8 8 8 9 10 11 11 12 11 11 11 13 23 26 26 30 40 40 51 55 58 59 63 68 74 79 74 77 80 73 75
14 20 21 23 22 19 14 12 12 12 14 10 9 9 8 7 6 10 9 9 12 12 12 11 7 15 26 29 35 44 47 50 55 59 63 64 66 71 73 77 78 76 76 78
18 23 23 25 26 27 18 22 21 18 20 12 12 14 10 9 9 10 10 8 8 9 10 10 11 13 23 32 29 46 49 55 60 60 62 64 65 70 70 74 76 82 79 79
23 27 27 28 28 19 32 23 21 28 25 31 26 24 20 16 10 10 11 11 13 13 17 18 20 20 36 38 41 52 52 56 55 54 58 64 66 71 70 80 76 84 85 84
27 28 23 25 30 50 34 26 26 37 37 35 29 26 26 26 12 10 21 24 24 24 23 23 28 30 37 43 55 60 64 62 62 60 60 66 70 62 68 81 82 84 88 86
24 21 22 24 24 39 31 38 35 34 37 37 34 27 26 23 20 23 29 30 30 33 32 28 34 47 47 55 61 65 72 68 65 66 72 75 72 67 77 85 89 85 84 73
21 19 23 43 44 41 36 34 33 32 35 33 29 26 27 28 28 32 35 36 37 39 44 45 49 54 61 62 64 71 70 71 70 73 77 76 78 81 76 74 80 74 82 88
97 87 44 49 47 43 37 34 33 33 33 35 37 35 42 40 38 37 41 41 38 40 44 48 56 60 63 64 67 66 70 69 70 72 73 77 73 74 82 80 78 78 74 74
95 96 72 46 46 46 51 42 36 38 38 37 37 39 42 52 56 55 56 53 50 51 50 56 62 65 66 69 69 70 68 68 70 72 71 74 73 73 63 66 68 97 91 97

GFSCGP_sfc_rhum_030.txt.gz
RH
8 9 10 8 8 9 9 11 12 16 31 13 24 40 57 32 19 18 18 21 22 23 24 25 27 29 32 38 50 58 64 71 68 68 69 68 71 71 66 64 71 78 77 71
8 10 6 6 7 9 10 12 13 15 26 21 16 38 42 32 19 18 18 19 20 21 24 28 31 30 33 43 52 63 66 75 71 66 75 68 66 60 64 63 72 75 74 77
9 7 5 6 7 10 10 12 13 15 16 13 14 17 18 18 19 18 16 18 18 20 21 28 31 33 32 44 54 62 70 74 72 72 68 71 74 75 73 69 68 74 70 69
8 5 5 5 7 8 11 8 10 13 16 21 14 21 22 17 22 20 17 16 18 19 20 20 27 33 33 41 49 62 70 74 73 74 74 75 68 69 65 66 64 71 67 65
9 6 5 6 6 7 10 8 9 10 15 18 24 25 20 21 21 20 17 17 16 17 18 18 23 30 32 36 44 57 70 75 75 76 77 77 71 58 61 61 76 74 77 62
7 5 4 4 4 5 6 8 9 10 11 21 24 24 27 22 22 23 16 14 18 16 17 19 20 27 32 32 40 49 70 78 77 77 77 82 78 72 67 68 72 70 69 68
8 7 4 3 4 5 6 9 15 17 17 17 15 26 27 18 18 21 20 17 17 17 16 20 22 23 34 36 39 47 70 79 79 76 78 78 80 78 77 76 68 67 58 61
12 11 6 5 5 6 7 8 14 27 20 16 12 18 23 18 18 24 24 20 14 17 18 20 24 24 31 36 42 47 68 77 77 77 79 81 80 71 70 71 64 58 61 56
11 11 6 5 4 4 6 9 7 11 12 14 12 13 11 13 17 20 19 13 15 17 16 18 22 23 26 36 43 49 66 75 77 76 80 80 81 79 70 76 74 67 69 66
10 13 7 6 5 4 5 6 9 10 23 25 15 17 17 22 23 16 18 13 15 14 15 16 17 23 26 30 39 46 56 72 74 74 76 74 77 80 75 73 76 71 73 70
7 11 10 8 9 8 6 6 7 7 11 17 20 16 12 17 20 17 15 13 11 9 13 16 17 19 25 26 34 41 49 64 70 72 75 77 75 76 77 70 71 74 74 76
7 9 14 9 7 6 6 8 7 12 22 13 14 14 8 16 14 14 13 12 11 11 9 11 16 19 23 27 29 36 41 45 60 67 72 75 76 76 76 74 72 73 75 78
9 11 16 14 8 7 8 7 5 5 6 20 16 14 10 12 16 15 12 12 15 16 16 15 15 20 24 27 32 33 37 39 46 62 65 71 75 75 77 78 73 73 76 78
16 10 17 13 15 9 12 8 7 6 10 11 12 14 13 14 17 17 15 14 13 19 22 20 23 22 23 29 35 36 36 36 42 52 60 70 75 75 73 75 78 75 78 80
10 20 14 11 9 8 9 9 7 9 10 12 10 14 13 12 17 16 22 16 16 18 18 26 21 28 34 34 40 38 36 40 40 52 59 66 73 74 76 76 78 76 78 80
12 22 17 16 9 9 10 9 8 8 8 9 9 10 9 11 11 18 15 16 17 19 17 22 30 33 36 39 42 40 40 40 44 51 57 65 71 76 77 78 77 80 80 83
18 16 25 24 14 12 14 12 10 8 8 9 12 12 11 12 14 16 19 16 18 17 17 20 29 35 40 37 43 45 44 45 47 55 57 63 71 77 78 77 79 82 85 82
23 28 22 22 22 27 13 9 9 10 8 6 8 9 10 11 12 13 18 18 23 17 16 20 14 26 33 28 30 46 42 52 54 59 60 64 71 76 79 80 82 83 83 83
15 24 22 26 22 17 14 11 11 12 15 10 9 10 8 8 8 12 10 11 15 17 20 21 12 11 30 30 36 46 51 50 54 58 66 66 69 78 81 84 84 84 88 82
13 24 23 25 25 27 19 11 9 10 20 12 11 13 11 14 15 12 14 10 10 11 12 17 16 14 15 33 30 48 51 58 58 60 62 67 74 79 83 84 84 85 86 83
21 24 23 24 26 19 14 12 14 28 32 29 22 21 19 22 24 29 21 15 11 13 14 16 20 24 38 37 38 54 55 60 58 60 65 73 76 80 81 84 85 89 88 88
33 31 24 27 33 32 16 20 25 39 37 33 30 27 27 27 24 22 22 20 21 29 24 20 32 38 46 47 59 64 67 68 70 68 71 77 80 70 74 87 87 90 92 93
36 26 28 30 27 54 45 40 36 32 34 35 33 26 25 24 23 19 30 32 28 29 33 31 34 55 56 64 66 70 78 74 73 75 80 80 80 82 86 88 90 89 88 88
47 62 44 34 30 33 33 33 30 30 34 31 28 25 23 25 22 25 33 34 34 37 42 43 53 61 70 70 70 77 76 76 77 81 82 82 83 88 86 84 81 83 85 91
92 75 69 54 44 39 34 32 31 31 32 35 39 38 42 48 48 48 54 54 44 50 56 57 66 69 72 75 76 74 76 77 80 80 83 84 82 83 86 88 89 88 86 89
83 91 79 86 84 79 48 37 35 39 39 39 43 50 52 50 53 54 58 63 67 69 68 72 82 84 85 80 81 82 80 78 80 83 79 80 85 79 80 80 80 97 94 93

GFSCGP_sfc_rhum_033.txt.gz
RH
12 17 16 13 10 10 11 13 14 17 22 37 39 38 28 26 31 30 30 32 32 32 31 33 33 38 44 51 58 57 69 78 72 77 81 90 90 84 81 80 80 84 85 80
14 15 12 10 10 9 11 12 13 26 22 24 36 36 35 30 28 31 27 30 29 31 30 35 35 36 42 52 59 60 66 83 71 74 75 82 84 80 78 83 83 80 81 80
14 13 9 10 10 10 11 12 14 30 24 27 25 41 44 24 25 28 26 25 26 28 31 34 34 38 41 51 63 63 69 79 75 81 78 88 90 85 84 78 84 73 75 82
12 9 9 10 9 9 12 10 11 24 28 42 25 51 50 36 32 30 28 23 24 26 27 30 35 39 40 51 58 63 72 78 79 80 77 82 73 88 82 64 67 83 83 84
12 11 10 9 8 6 10 10 12 11 30 30 28 41 49 42 41 35 24 22 21 22 25 30 33 34 38 46 55 67 66 79 68 73 82 74 86 77 77 76 84 75 81 82
11 9 9 8 6 5 6 10 11 12 18 50 26 42 38 34 34 28 23 21 21 21 22 24 29 34 36 44 54 65 70 73 75 71 78 87 85 76 76 84 82 80 77 82
11 9 8 7 7 6 6 8 16 22 22 29 31 32 32 22 24 24 23 21 19 21 21 22 30 33 37 42 55 64 72 74 76 76 78 78 90 83 82 85 83 82 79 83
19 16 9 7 7 8 6 7 14 31 27 23 21 40 31 20 20 21 20 21 21 24 21 22 24 30 37 39 52 64 73 74 75 77 77 75 78 87 79 85 86 70 69 69
18 17 10 7 7 5 10 9 8 16 17 27 21 19 25 19 28 29 22 19 24 22 24 22 23 28 36 39 50 57 74 74 77 76 77 77 76 78 84 88 78 82 76 69
12 24 11 9 7 7 6 10 10 10 18 24 18 23 30 27 33 28 25 26 26 28 22 22 23 26 35 37 42 53 72 74 76 75 76 77 78 78 79 93 82 81 78 80
9 12 15 11 10 9 11 8 11 12 12 20 27 20 20 27 28 31 26 23 20 20 20 22 23 24 34 37 40 48 68 73 76 76 75 76 79 80 80 78 84 87 75 82
9 11 16 14 11 7 7 8 10 14 25 23 15 15 14 18 23 23 24 22 20 18 18 18 22 25 30 38 40 46 68 70 73 73 77 79 79 81 84 78 74 71 79 81
10 12 18 17 12 10 9 8 8 8 14 16 27 18 9 13 23 23 25 22 20 19 23 17 20 26 30 36 41 44 55 67 68 71 75 80 82 81 83 82 78 75 75 85
34 11 12 16 16 17 18 10 9 8 10 12 11 12 15 23 25 22 21 16 18 26 21 27 20 24 28 31 40 43 47 55 65 70 74 79 81 81 79 80 78 86 80 80
17 22 13 11 12 12 11 12 9 10 9 12 9 12 13 12 26 25 24 20 17 23 28 29 24 27 29 31 38 42 44 46 56 66 72 75 77 78 80 81 83 75 85 78
37 35 26 23 12 10 11 10 10 9 9 9 10 13 17 15 23 26 24 14 24 23 26 32 32 34 35 35 39 40 43 44 45 59 67 71 74 80 82 82 83 84 78 83
43 37 38 26 20 22 24 11 10 13 10 10 13 12 15 15 20 19 23 22 12 15 25 30 36 38 42 40 35 40 41 41 47 50 61 68 74 79 82 82 83 88 81 87
36 34 33 36 31 35 24 13 10 12 14 14 12 14 17 18 20 25 28 20 25 22 19 26 32 42 49 58 40 38 40 43 50 56 60 66 71 77 82 82 84 86 83 95
22 31 36 36 31 28 22 17 19 17 17 17 19 16 14 13 14 15 16 17 13 13 18 26 30 38 44 52 47 45 44 50 48 59 60 66 70 76 82 83 85 89 93 91
19 21 32 42 35 30 27 19 13 17 32 32 25 20 16 17 24 28 39 30 23 20 18 22 23 24 48 48 52 49 49 53 55 52 61 63 69 75 84 83 90 93 93 90
32 36 32 44 36 32 28 15 12 27 34 46 39 41 41 44 48 40 39 35 34 27 22 19 22 24 37 54 51 59 53 51 57 58 74 74 74 81 84 88 89 95 95 93
62 68 41 39 48 46 41 25 43 59 52 48 45 42 41 38 35 33 48 46 46 49 47 44 39 44 43 58 55 60 63 65 75 78 83 88 88 86 88 88 96 96 95 96
69 61 84 62 48 61 56 53 56 51 56 48 47 40 37 37 39 49 56 53 44 44 46 50 73 89 90 85 63 67 87 79 79 86 90 90 85 87 88 97 98 99 98 98
78 83 77 75 74 82 38 57 58 42 42 50 58 60 57 70 68 74 73 69 70 73 76 84 89 91 92 92 92 91 84 82 86 92 90 94 94 96 97 97 93 93 90 94
96 93 87 80 82 83 67 76 47 42 55 63 61 59 64 69 76 79 84 88 86 88 91 90 92 95 95 90 89 84 84 83 87 90 96 98 98 98 99 98 93 90 97 96
95 96 95 98 91 98 95 84 75 66 62 64 67 68 68 72 78 77 83 88 89 92 94 95 96 95 96 94 94 93 94 94 96 98 98 98 98 98 97 93 93 92 95 95

GFSCGP_sfc_rhum_036.txt.gz
RH
15 21 22 19 15 13 14 16 18 16 20 26 32 34 36 37 41 44 44 44 42 40 37 40 48 49 47 59 63 62 65 67 69 90 92 94 90 91 88 86 76 85 87 85
16 17 17 15 14 12 12 13 14 29 29 34 38 34 24 33 39 40 41 42 41 40 38 40 45 48 48 55 61 60 68 70 70 71 74 83 90 89 85 86 86 84 83 82
14 15 13 14 15 14 13 12 14 17 30 32 36 44 37 32 34 31 36 36 35 37 37 39 42 46 49 51 62 61 69 74 71 76 81 91 93 93 92 93 90 89 76 80
14 11 13 13 14 13 17 11 11 15 29 33 28 39 48 34 37 33 32 34 34 34 32 35 37 45 47 51 56 57 68 79 74 77 74 76 86 83 79 80 86 83 83 84
19 14 14 14 12 11 14 11 12 15 36 45 38 50 45 46 39 35 33 30 31 31 31 32 35 37 43 45 54 57 64 79 76 76 70 73 80 78 86 86 73 92 94 86
14 12 12 12 10 10 10 10 14 18 34 41 33 40 53 48 44 33 30 29 27 28 29 29 32 33 39 44 52 58 66 74 77 77 76 76 75 84 82 89 90 92 93 86
18 13 11 10 13 11 11 14 20 22 24 27 37 46 38 29 36 33 28 30 26 25 27 30 32 35 39 46 54 59 67 72 73 76 76 74 76 78 80 83 89 95 90 95
24 24 14 10 11 12 12 9 15 24 30 28 28 44 36 27 21 29 26 24 24 23 24 27 32 35 36 44 56 63 66 68 70 71 74 79 80 76 75 83 80 78 72 74
26 23 14 10 9 10 13 12 9 17 48 31 28 33 27 24 26 26 27 25 24 22 22 24 28 31 36 44 56 63 67 65 71 70 70 71 75 80 85 91 81 77 72 72
18 25 16 12 11 9 10 10 17 19 16 17 23 26 29 30 28 27 28 26 23 23 22 22 23 31 36 38 50 58 64 64 68 70 71 70 71 73 82 90 81 80 72 74
12 17 16 18 16 14 14 10 24 11 14 14 21 15 20 20 30 30 27 24 23 24 25 22 23 24 31 37 45 60 64 63 67 69 71 72 72 70 72 84 87 78 77 72
12 14 16 13 14 12 11 11 10 12 18 26 12 14 16 16 25 29 25 22 22 24 25 24 22 22 28 38 39 54 64 64 65 69 70 74 74 76 73 72 76 83 76 84
24 15 17 18 14 12 16 12 9 16 17 12 26 21 12 14 31 31 28 28 30 32 29 28 25 26 28 37 39 48 59 65 64 68 71 75 79 81 78 76 72 82 81 87
43 35 18 17 16 15 18 13 11 9 13 13 13 17 12 18 28 36 29 28 30 29 25 30 28 25 27 36 40 43 52 63 64 69 72 75 78 81 80 78 77 75 76 88
53 52 26 21 12 12 16 15 12 11 9 10 12 14 12 11 18 28 32 30 24 22 25 21 19 22 28 35 40 42 45 59 63 72 73 74 77 80 80 84 85 82 77 75
64 59 46 35 20 11 12 12 12 12 10 9 12 13 11 10 16 19 28 28 24 22 24 25 20 19 26 32 40 42 46 57 61 69 75 75 79 82 83 84 88 86 86 81
72 63 52 49 22 13 16 12 14 14 14 12 14 14 16 16 21 22 30 28 24 21 29 35 35 23 28 32 37 44 46 50 62 67 72 75 79 85 86 84 88 92 86 90
64 64 56 51 40 25 15 10 10 14 13 16 13 13 12 13 13 20 19 22 26 22 21 30 36 33 30 30 35 42 45 51 58 68 70 75 80 83 85 87 89 93 88 87
46 52 56 55 53 29 24 21 18 17 17 18 18 16 15 15 21 26 26 28 26 23 22 24 34 35 40 46 36 40 48 50 56 60 68 72 77 81 86 89 90 88 89 89
31 39 40 44 50 40 30 20 17 19 29 31 22 20 18 21 17 26 37 25 20 18 22 31 36 45 46 41 38 40 46 50 54 56 56 67 73 79 84 85 87 86 89 94
67 60 54 40 48 35 26 16 18 26 30 51 41 31 29 36 30 35 38 37 36 26 23 22 29 30 40 49 54 47 48 48 46 49 54 60 70 75 79 83 85 94 95 98
84 90 85 51 50 46 55 55 24 36 63 52 48 50 45 44 44 51 51 54 55 53 51 42 26 28 32 60 56 54 54 48 50 52 58 65 70 73 78 85 95 97 97 98
86 80 85 79 84 80 83 94 79 61 55 60 49 43 40 39 53 60 58 56 63 57 53 75 55 63 73 64 59 62 55 54 70 60 67 71 74 77 86 95 98 99 98 99
86 85 87 67 74 82 81 83 83 77 78 74 77 73 74 81 86 92 88 87 90 90 87 91 87 84 85 92 77 59 72 74 71 68 88 90 90 95 97 98 99 99 99 99
90 88 89 85 84 85 82 87 86 81 73 73 76 79 85 89 95 96 97 97 97 97 97 97 98 98 98 97 97 96 93 85 96 94 97 98 99 98 100 100 100 99 98 99
94 96 95 97 90 98 92 91 81 69 69 73 80 81 81 88 94 94 97 98 98 98 97 98 98 98 99 99 98 97 95 94 97 98 99 99 99 99 99 99 99 98 99 100

GFSCGP_sfc_rhum_039.txt.gz
RH
24 26 29 24 20 17 17 19 20 18 14 34 27 49 53 48 47 56 58 57 54 50 47 50 51 52 56 59 63 65 67 70 74 90 90 97 91 91 94 87 85 88 92 90
24 27 23 19 18 16 16 17 17 18 28 31 34 44 49 47 46 45 47 50 48 46 49 52 51 53 55 60 62 66 68 69 72 70 71 87 92 92 88 90 85 85 86 87
22 20 16 18 18 17 18 17 17 16 32 39 41 47 50 47 47 45 43 42 41 42 43 49 50 54 53 58 63 66 66 65 68 68 76 96 95 97 97 94 93 89 87 79
18 14 15 19 19 18 23 15 14 15 28 39 38 59 46 45 45 44 46 45 44 42 40 41 52 56 54 55 60 63 66 67 67 72 71 71 80 87 96 93 89 91 88 88
18 14 14 17 15 16 18 14 15 16 22 35 34 48 46 35 43 39 38 42 41 40 40 40 42 49 51 49 57 62 67 69 68 76 67 73 75 76 92 91 89 90 94 90
13 15 11 11 14 13 14 16 18 23 28 39 23 43 37 59 36 32 32 33 37 37 36 36 36 41 48 48 51 61 68 72 72 75 74 75 73 88 89 95 91 92 98 93
18 13 16 13 16 16 15 20 26 26 31 24 20 46 28 33 36 30 28 31 31 34 34 35 36 38 44 50 52 58 68 75 76 78 77 76 73 77 79 81 86 97 99 98
26 29 16 14 16 18 18 16 30 30 34 21 30 36 20 22 24 29 27 27 27 30 31 33 34 35 39 46 52 58 66 68 76 80 79 76 73 74 72 76 76 87 91 85
28 27 18 13 12 13 17 18 14 19 52 29 30 33 31 27 29 27 32 30 28 28 29 30 31 32 35 42 50 58 64 64 70 76 77 78 76 73 74 80 81 84 84 79
23 29 19 14 12 13 14 13 16 23 22 20 21 27 30 35 27 31 36 33 28 28 27 27 28 31 34 36 44 52 59 63 64 69 71 74 74 73 74 80 85 84 80 79
24 25 22 18 20 14 18 17 22 15 19 16 23 16 21 25 29 30 30 31 28 26 26 25 26 27 31 34 42 52 58 61 62 66 67 70 74 76 75 82 83 82 78 82
31 26 21 18 17 14 12 13 15 18 18 23 13 16 18 12 15 28 29 26 28 25 25 24 24 25 30 34 40 51 56 61 60 64 66 68 70 72 75 80 84 82 76 77
61 53 27 21 25 18 19 17 12 13 18 14 24 19 13 15 23 27 31 34 33 30 29 24 23 24 27 33 39 49 55 59 58 62 66 70 72 74 72 71 74 91 79 79
55 63 42 24 23 18 19 17 15 12 17 15 14 19 18 18 17 23 38 35 38 33 30 26 27 26 26 32 40 46 55 54 58 61 66 70 73 74 71 68 69 76 86 86
67 81 53 38 32 26 17 14 13 16 14 15 13 14 12 15 20 20 25 38 36 36 30 27 28 30 36 35 41 42 52 58 57 62 68 67 72 73 74 74 72 71 75 83
67 77 62 50 30 27 23 15 13 13 13 13 14 16 13 11 14 16 18 32 37 32 28 27 26 28 29 31 39 41 46 56 62 64 70 69 69 75 78 78 80 78 76 77
70 83 73 69 39 35 26 17 14 14 14 14 16 14 13 12 14 14 16 22 33 31 27 27 29 25 25 25 32 40 44 50 66 67 70 73 73 77 81 80 83 87 83 79
68 80 76 69 56 47 21 14 12 13 15 15 14 14 15 12 12 15 20 21 29 32 28 25 26 26 26 22 27 34 41 49 65 69 72 73 77 78 79 83 85 87 88 87
50 61 79 68 65 43 26 21 18 16 20 19 14 15 16 16 23 20 23 24 27 30 28 23 28 28 34 33 36 45 53 52 64 68 71 75 77 80 82 87 86 85 85 86
46 46 55 64 59 52 52 72 64 40 18 17 19 20 18 22 24 15 21 27 26 30 27 28 38 46 47 45 44 50 55 57 60 67 69 70 76 80 84 84 85 84 83 79
58 59 75 67 59 49 87 75 63 34 32 41 32 16 23 23 20 16 25 31 24 28 27 30 40 48 41 44 41 47 53 56 54 54 63 70 72 78 79 82 82 89 89 90
82 85 92 75 65 64 81 75 88 91 88 81 47 38 27 24 30 40 44 50 45 40 30 27 38 47 51 67 45 48 53 49 52 55 60 67 72 75 79 82 91 94 90 95
86 88 87 60 73 84 89 90 84 83 92 94 65 47 48 54 58 57 61 63 57 58 72 62 33 31 38 65 71 51 48 48 51 54 59 61 64 71 74 88 94 97 94 95
77 78 73 67 76 83 86 79 85 85 90 89 94 73 61 76 84 86 88 89 89 93 93 93 90 94 97 98 85 87 86 75 74 68 64 67 67 74 86 90 93 94 95 97
88 91 68 55 87 79 82 85 86 88 79 86 85 91 98 94 98 96 98 98 99 99 99 99 99 99 98 98 99 99 92 87 86 88 85 93 95 95 99 99 100 99 97 98
85 94 91 83 88 92 97 92 88 91 86 86 86 88 88 95 99 97 99 99 99 99 99 99 99 98 99 98 98 99 99 96 98 99 99 100 99 99 99 100 99 100 100 100

GFSCGP_sfc_rhum_042.txt.gz
RH
33 38 36 26 24 23 24 21 21 19 18 36 36 47 61 56 58 61 61 61 62 63 59 59 60 62 64 69 76 78 82 84 85 88 91 93 87 90 90 90 86 89 90 89
29 33 29 23 22 20 18 22 19 17 16 30 36 39 61 57 58 60 61 60 59 59 59 58 60 61 63 68 73 77 78 81 82 80 80 84 84 89 85 89 87 88 89 90
25 28 24 23 24 22 22 20 21 20 24 44 43 51 68 58 56 54 56 55 56 57 57 56 58 60 62 67 71 75 76 77 80 80 82 94 94 95 93 91 91 87 88 86
25 19 23 24 23 21 28 18 16 16 21 25 43 63 64 61 60 53 51 55 55 54 51 50 54 57 59 64 65 70 74 77 78 81 81 84 79 85 84 88 88 88 88 87
21 19 20 24 21 19 22 16 16 17 26 32 33 56 49 59 65 57 51 48 46 46 46 46 50 53 53 56 61 66 72 77 78 80 77 79 80 79 86 92 89 92 93 90
18 16 16 17 16 17 17 18 20 29 30 35 23 36 41 62 57 53 48 46 45 43 42 41 44 48 50 53 58 64 74 78 79 80 79 82 81 86 86 93 90 91 91 90
20 16 17 13 16 19 18 25 34 32 35 28 22 43 20 40 37 41 44 42 42 42 42 42 43 45 52 58 60 64 76 80 79 80 80 79 80 84 84 86 85 93 93 95
27 27 16 16 15 18 20 23 37 37 37 23 34 32 26 22 33 31 32 33 33 36 40 41 42 42 46 55 61 66 75 78 78 81 82 81 81 78 76 81 81 82 84 85
28 25 20 14 16 13 24 23 19 25 52 30 30 30 23 28 24 35 31 29 28 30 34 38 38 39 41 50 58 63 71 75 77 79 81 82 81 81 79 82 84 83 86 83
29 31 22 14 15 14 17 16 23 28 35 35 27 33 28 34 29 28 34 35 32 30 29 33 35 37 39 42 51 58 64 72 71 76 78 77 79 80 79 80 85 83 85 86
46 30 26 20 21 18 21 19 23 21 27 26 30 25 27 29 25 17 17 26 31 32 31 30 33 34 37 38 45 53 60 66 69 76 78 79 79 79 79 78 82 82 85 86
71 44 31 25 23 15 14 17 20 23 27 26 26 21 18 17 20 29 28 26 35 36 32 30 30 32 35 39 41 49 54 59 64 68 76 78 79 80 78 79 80 84 85 86
64 60 34 26 20 22 22 17 20 20 24 20 24 22 14 18 18 17 27 30 37 42 43 34 31 32 34 38 43 47 51 54 58 63 69 75 77 80 80 78 80 85 84 85
58 75 55 48 43 37 28 20 19 15 22 20 17 24 23 16 18 22 27 34 31 43 46 40 35 32 33 39 44 49 52 51 56 59 66 74 77 79 77 78 81 86 85 84
63 74 70 54 45 40 35 32 24 19 16 20 19 19 18 18 17 15 23 36 40 42 45 47 36 34 37 40 46 48 52 59 60 65 68 72 76 76 78 79 80 82 88 83
66 66 76 64 42 36 34 28 23 22 18 17 17 20 16 16 21 22 22 29 39 41 44 45 44 41 42 39 46 49 55 60 63 69 69 73 76 78 79 80 80 81 86 87
71 78 80 74 50 48 41 26 23 21 19 18 20 20 18 18 19 19 20 23 33 40 42 46 43 43 41 39 43 49 52 59 66 70 71 74 77 81 81 80 82 83 82 84
74 86 83 80 65 58 30 32 24 17 16 18 19 17 14 15 14 15 17 14 20 30 41 42 35 35 38 35 36 44 48 63 69 70 72 75 78 79 82 83 84 84 80 82
62 75 77 78 72 40 31 61 72 76 30 18 18 19 17 13 16 22 22 23 19 23 32 32 30 29 33 36 39 50 55 57 66 72 74 76 78 80 82 85 85 83 83 83
65 56 55 82 73 61 56 71 65 74 66 81 87 28 17 23 24 19 23 27 27 31 38 40 40 40 40 42 40 53 56 61 67 74 74 75 78 81 82 83 85 83 83 84
80 73 72 65 76 60 63 76 69 53 54 85 88 89 90 25 18 19 25 26 30 28 30 40 45 49 45 54 54 55 60 64 60 63 70 76 79 82 82 84 83 85 85 87
82 90 91 73 85 74 74 72 67 75 87 85 85 92 97 74 26 25 29 34 38 35 36 38 47 57 68 68 66 67 70 62 70 73 74 78 81 79 78 85 87 90 90 93
94 89 93 66 64 70 88 88 83 89 86 83 84 80 91 89 35 37 50 67 71 83 85 57 45 78 90 77 78 70 80 72 75 78 82 84 84 82 82 87 90 93 92 91
82 84 91 89 69 82 89 85 90 88 86 83 81 88 96 65 79 94 95 98 99 99 98 98 98 96 97 98 94 85 86 81 77 79 80 81 82 88 91 91 92 93 95 97
85 86 86 83 76 81 89 87 91 87 85 83 83 88 92 96 96 96 95 94 94 96 95 93 94 96 98 97 97 98 96 86 82 84 89 94 96 99 100 100 100 100 100 100
81 87 93 78 70 82 93 92 89 90 90 89 92 94 93 89 92 94 96 94 94 95 93 95 96 95 99 98 99 98 99 95 98 99 98 99 99 99 99 98 99 100 100 100

GFSCGP_sfc_rhum_045.txt.gz
RH
23 23 26 22 22 17 17 19 21 17 14 20 21 21 25 40 42 45 46 50 48 47 46 48 51 51 53 58 66 71 75 79 73 69 66 63 59 60 62 62 69 70 71 73
27 25 17 17 18 19 17 17 20 16 12 15 15 20 25 38 43 44 45 49 47 43 46 52 53 53 55 60 66 72 76 79 77 66 68 59 61 56 58 60 67 68 68 72
19 15 16 20 20 20 17 16 17 17 13 20 22 21 36 39 42 42 42 42 45 44 45 47 52 53 53 60 67 72 79 79 78 75 68 69 65 67 64 63 63 63 68 68
15 13 17 19 19 18 17 13 13 17 19 21 25 24 38 36 47 47 44 43 40 41 43 40 45 49 51 56 60 68 74 79 76 80 73 80 63 62 58 60 58 60 67 67
18 17 20 21 17 18 15 12 14 14 18 18 18 22 19 38 44 44 42 42 40 36 38 40 41 44 47 50 53 60 72 78 76 79 77 71 72 59 55 59 72 77 72 72
13 13 16 18 16 16 14 15 15 17 15 23 19 19 19 30 40 37 37 37 40 36 36 38 39 41 45 45 50 54 72 80 78 79 79 81 78 72 62 68 63 61 58 59
16 14 14 14 18 16 14 15 20 22 22 22 15 18 20 16 23 25 32 36 35 37 36 38 40 41 47 49 53 56 72 80 79 78 77 77 79 78 78 74 63 64 57 56
18 20 14 13 14 16 17 12 13 24 17 14 18 21 18 13 12 22 20 24 29 34 36 38 40 41 45 49 55 60 70 77 75 76 79 80 79 65 65 69 57 55 54 55
17 16 12 12 11 12 17 18 9 12 18 16 13 16 14 16 14 14 23 24 27 30 33 35 35 36 40 47 54 60 68 76 75 72 78 79 78 77 68 74 74 58 67 55
19 21 13 11 10 11 13 12 17 15 23 20 14 19 14 21 17 17 19 24 24 25 28 30 33 36 38 39 48 56 64 73 72 71 71 70 74 75 73 73 76 72 69 70
31 21 20 14 15 13 14 15 13 12 13 14 13 10 15 19 19 17 16 20 20 21 22 24 30 34 37 38 41 50 57 65 68 69 71 73 71 71 73 70 72 74 74 75
41 24 23 18 12 10 11 14 14 17 28 16 12 11 12 14 15 16 16 16 17 19 20 22 22 28 33 39 38 44 49 54 59 64 70 72 72 72 70 72 70 72 75 76
38 37 27 23 16 15 15 13 12 12 11 25 16 12 11 13 14 15 17 17 22 27 28 27 25 28 36 38 44 42 45 44 48 59 63 69 72 73 74 73 72 72 75 75
40 40 36 23 25 29 27 18 14 13 18 17 17 14 12 12 12 14 15 17 18 27 30 32 33 32 36 41 47 47 45 42 45 52 58 70 76 75 71 73 74 73 75 76
38 40 38 35 31 30 32 28 23 21 17 19 16 18 15 13 15 15 16 19 22 24 30 34 33 37 42 44 49 49 46 50 48 58 60 67 73 74 75 75 75 74 75 74
41 36 44 34 28 26 30 25 24 21 20 19 17 17 13 13 14 15 15 15 19 22 23 29 38 38 43 43 48 49 50 50 54 61 63 67 72 75 76 77 76 76 76 77
49 40 39 36 29 29 30 24 22 22 19 18 22 18 15 16 18 20 22 22 23 23 25 28 36 42 45 41 46 48 51 52 60 64 66 68 73 76 77 75 77 79 79 77
48 55 49 31 36 40 22 19 26 18 17 14 16 15 15 16 17 18 21 20 18 18 20 22 23 29 37 33 31 44 44 58 64 67 67 69 73 75 77 77 79 80 75 78
43 45 39 32 32 28 25 22 41 41 27 28 19 16 14 12 14 20 16 18 22 21 22 22 16 20 34 36 38 47 50 56 61 65 69 69 71 75 76 79 79 77 76 76
47 46 43 38 33 35 26 21 23 50 38 53 55 44 35 30 19 16 20 18 18 18 18 21 22 23 27 40 31 48 52 59 63 63 64 67 70 74 76 78 80 77 76 73
68 61 55 44 44 31 25 36 55 61 37 56 63 62 65 61 32 31 36 24 23 23 24 27 27 31 41 37 44 54 52 57 57 56 60 67 70 75 76 78 79 79 77 74
65 74 73 49 46 46 23 43 49 55 57 59 61 65 73 72 68 62 52 42 24 29 27 25 32 36 41 48 56 58 63 59 59 60 61 69 73 66 65 81 82 80 84 90
71 53 59 46 36 34 34 46 57 61 67 65 70 66 71 76 74 66 59 45 33 47 44 30 41 55 61 60 60 63 68 64 64 66 69 71 73 72 72 80 82 75 81 86
51 52 74 61 44 46 39 40 50 58 63 62 66 71 77 83 76 69 57 44 60 66 62 57 73 88 92 81 68 64 67 68 71 72 74 73 73 77 75 66 67 70 71 78
53 54 58 60 53 52 52 44 48 62 62 65 65 78 86 82 68 53 57 83 87 88 86 82 85 88 92 88 89 83 72 70 66 65 67 71 65 83 94 93 87 79 84 78
56 63 67 53 46 59 62 59 65 62 67 72 80 89 88 85 80 81 86 91 90 92 86 85 89 87 86 83 88 94 85 77 78 78 79 93 94 96 96 97 98 100 100 100

GFSCGP_sfc_rhum_048.txt.gz
RH
21 22 20 14 15 12 13 14 15 16 15 16 18 18 16 17 25 27 33 35 34 32 31 32 35 35 36 39 47 53 58 65 58 55 51 48 44 44 41 43 52 57 60 60
16 20 13 12 10 12 13 15 15 14 13 14 16 16 14 14 24 26 29 33 33 31 30 34 36 35 37 43 48 56 61 67 66 52 52 44 44 38 40 43 51 57 56 61
14 11 10 11 14 15 15 14 14 15 14 12 14 16 15 16 20 23 24 27 30 31 30 33 36 37 36 41 48 54 65 67 68 62 52 52 46 47 44 46 47 53 56 56
13 9 11 12 13 12 15 12 12 12 15 17 13 20 18 15 20 23 24 25 26 31 29 27 30 35 34 38 42 52 62 69 66 67 58 69 48 44 40 46 43 44 53 54
15 12 11 13 12 10 12 9 11 12 13 14 15 17 15 15 18 22 23 25 24 26 26 26 27 31 32 35 39 46 60 69 69 70 69 57 61 40 39 42 58 66 60 59
10 8 8 10 9 9 9 10 10 11 11 16 15 14 15 14 19 17 19 22 24 23 25 27 24 26 31 32 37 42 60 74 72 69 71 73 69 59 46 52 47 47 47 46
12 10 10 9 11 10 10 11 14 15 14 16 11 14 16 12 10 15 15 17 22 24 23 26 29 26 30 34 37 41 60 75 73 69 69 72 71 71 69 61 50 54 41 40
16 15 10 9 11 13 12 10 10 21 13 11 11 15 13 10 10 10 13 12 19 22 24 25 29 30 31 33 40 46 58 71 68 68 74 75 76 54 53 57 46 43 41 38
15 15 8 9 10 9 13 14 6 7 8 10 8 11 10 9 10 10 11 12 12 17 22 24 25 27 30 35 42 49 58 70 70 64 74 75 73 71 56 65 63 48 55 40
15 18 10 9 10 9 9 10 10 8 17 17 9 11 10 12 12 11 10 10 12 12 17 21 23 25 28 30 36 44 55 66 67 62 64 62 67 69 68 64 68 64 58 58
16 15 14 10 12 12 10 11 11 7 9 12 13 9 7 10 11 11 9 10 10 11 14 19 22 23 26 27 30 38 47 56 60 59 62 66 63 61 66 61 64 67 67 65
19 17 18 13 9 8 8 11 11 13 19 11 10 7 5 7 7 9 9 9 9 10 11 15 17 21 23 27 27 31 36 42 48 54 63 64 65 64 61 65 63 65 68 70
27 20 22 19 11 10 10 10 8 9 8 19 13 10 9 10 10 10 10 10 12 12 13 13 13 16 21 24 33 29 32 34 37 50 51 58 63 64 67 67 68 65 69 69
32 24 23 18 19 13 16 11 10 8 13 12 12 12 9 8 9 10 12 11 12 14 17 16 17 16 17 24 34 39 32 31 33 38 46 58 65 66 62 66 70 68 68 70
25 32 30 22 24 22 18 12 11 12 13 15 12 13 12 10 10 11 11 11 12 15 16 17 19 19 24 27 37 42 37 38 35 44 47 56 64 66 67 68 69 69 68 68
26 33 31 32 22 21 22 19 18 14 12 12 12 14 10 10 10 12 12 11 11 11 10 12 19 21 25 29 34 39 42 40 42 47 51 58 64 68 70 70 70 71 70 70
32 26 32 31 21 21 26 21 18 18 16 16 18 16 13 14 14 14 15 14 13 12 12 13 16 20 24 27 32 37 44 42 48 52 55 60 64 69 71 68 71 74 74 70
34 36 27 26 28 39 20 13 14 17 17 15 16 15 14 14 13 13 14 14 14 12 12 14 11 12 18 19 18 33 33 48 53 58 57 61 65 67 70 71 73 76 71 73
25 32 28 31 28 23 19 18 18 20 22 15 15 14 13 12 12 14 11 11 13 14 12 12 9 8 11 14 18 28 37 40 48 56 60 60 62 67 70 74 74 73 70 70
22 31 30 26 33 33 21 16 15 19 29 19 27 26 23 17 15 13 12 10 12 12 12 12 12 10 10 15 16 27 38 44 54 55 57 58 61 66 70 71 74 70 69 65
31 34 34 30 30 23 17 21 31 38 47 38 38 41 43 41 31 31 30 30 27 25 22 18 18 18 21 19 26 35 39 44 49 45 48 56 62 68 69 72 71 71 70 67
40 39 29 28 31 31 15 18 37 48 44 44 42 42 46 45 43 41 41 41 36 32 29 21 21 24 23 30 38 49 55 52 53 52 49 58 65 55 51 72 69 72 76 80
38 30 36 31 22 24 21 26 24 27 37 40 44 40 40 39 41 40 47 46 43 39 32 22 26 28 33 39 49 52 62 58 53 56 60 62 65 61 60 71 74 66 73 60
31 28 34 42 33 31 29 25 29 32 35 33 36 40 36 39 36 46 54 51 44 39 32 30 34 34 43 51 54 57 54 58 59 63 62 60 64 68 64 53 57 56 54 58
31 33 40 41 37 34 32 32 30 30 45 44 43 40 40 42 47 59 63 56 47 40 50 45 46 54 63 64 60 53 58 60 57 57 57 60 55 66 62 62 58 51 55 55
37 43 42 40 34 34 36 29 31 41 42 41 43 47 42 49 68 84 69 56 69 72 66 62 71 69 66 81 85 66 60 60 59 59 54 50 46 56 59 67 80 100 96 100

GFSCGP_sfc_rhum_051.txt.gz
RH
16 19 21 16 18 17 12 11 13 14 14 16 19 21 21 20 20 22 26 29 28 27 26 26 28 28 30 33 40 48 54 62 53 49 50 46 42 42 37 34 45 48 52 55
18 22 15 13 12 17 15 13 12 12 17 15 18 17 16 14 17 19 22 27 28 26 26 28 30 28 30 35 43 53 59 65 61 50 52 44 44 35 36 36 48 50 51 57
16 15 12 12 11 16 17 13 13 13 13 13 14 17 16 12 12 17 17 22 24 26 26 27 29 30 29 36 43 52 63 66 65 61 52 51 46 45 37 38 41 46 51 51
12 8 10 11 10 9 12 10 10 11 14 18 13 18 17 14 14 16 18 19 22 24 25 24 25 28 29 32 37 50 62 68 65 69 56 65 47 42 36 39 37 41 52 52
13 9 9 11 10 8 10 8 11 11 12 13 15 16 13 14 16 15 16 17 18 21 22 23 23 27 27 28 32 41 61 69 67 71 70 52 59 38 34 35 54 60 61 57
11 8 8 8 7 7 8 8 9 11 12 16 15 15 14 13 16 14 15 14 17 18 20 22 22 22 26 26 29 35 58 72 73 71 74 73 66 59 38 43 40 41 42 45
11 11 8 7 9 8 8 8 12 15 15 16 11 14 15 10 9 10 13 14 15 17 19 22 23 22 26 28 30 34 57 73 74 71 70 73 71 70 66 58 44 49 37 36
13 14 10 7 8 9 9 8 10 21 14 12 11 14 12 9 8 8 10 11 13 16 18 21 24 23 25 29 34 39 54 70 71 71 74 76 74 53 52 53 42 40 37 34
12 13 8 7 7 8 10 10 6 7 7 8 8 10 8 8 8 9 9 10 12 14 16 19 20 22 23 29 37 43 52 66 70 67 74 76 75 71 55 62 62 45 53 36
12 16 9 8 7 8 9 8 9 8 18 15 8 11 10 12 11 9 9 10 11 13 16 16 18 22 23 24 30 38 47 62 65 65 67 66 70 72 66 62 65 61 56 57
11 13 13 10 10 10 10 10 9 7 8 11 11 9 6 9 10 9 9 9 10 11 14 16 16 19 24 24 26 33 41 51 60 62 64 68 67 66 68 61 62 64 65 64
12 14 18 12 8 8 8 10 10 13 18 8 8 7 5 6 5 7 9 9 8 10 10 12 14 17 19 24 24 28 32 38 48 55 62 63 65 66 64 67 62 63 68 68
21 20 22 18 10 9 11 9 7 8 8 16 10 9 9 7 8 7 8 8 10 10 11 11 11 17 20 21 28 26 30 30 35 48 51 59 63 64 66 66 67 64 68 68
36 22 23 17 16 11 13 10 8 7 12 11 10 10 10 9 9 10 10 9 9 11 12 11 12 14 18 23 29 32 27 26 30 36 45 57 64 66 62 64 68 67 67 70
23 32 24 18 14 13 10 10 9 10 10 12 9 11 10 9 9 10 10 12 11 12 12 14 14 14 16 21 29 33 30 31 29 39 43 53 63 66 67 67 67 67 68 67
24 31 27 25 16 18 18 12 9 8 9 9 9 10 8 8 8 9 10 10 10 11 12 12 14 17 17 18 22 29 37 34 36 41 44 54 61 67 69 69 68 69 70 70
31 26 31 34 22 21 24 17 15 12 9 10 12 11 10 10 11 12 13 13 13 12 11 11 12 14 18 16 23 28 35 38 42 46 49 53 61 66 70 68 70 73 73 71
31 35 30 27 27 37 19 13 13 14 13 11 11 11 11 12 12 12 13 14 14 13 12 12 9 10 11 13 14 26 26 45 48 51 51 55 59 64 68 72 73 75 71 74
20 28 30 30 25 21 17 15 15 16 18 13 14 13 12 12 12 14 12 12 13 13 12 11 9 8 9 9 13 20 31 34 46 51 55 54 57 64 68 72 74 72 73 72
18 24 25 29 30 32 20 18 13 19 23 14 14 14 13 13 15 14 15 16 21 17 17 16 12 10 9 11 9 14 25 39 50 52 53 56 58 65 68 70 75 72 71 69
23 26 27 26 31 22 17 18 19 29 48 38 28 29 29 28 31 37 30 30 28 27 26 24 24 22 22 21 21 25 24 38 42 43 49 58 60 66 68 72 72 73 73 67
37 29 25 25 30 34 15 15 25 42 36 39 39 38 38 36 32 30 30 32 33 37 32 27 26 26 25 24 34 39 43 42 49 49 50 58 65 55 52 73 74 75 76 78
30 34 26 25 21 22 16 19 18 22 28 32 35 31 31 34 32 30 31 33 38 42 39 33 31 33 34 33 42 46 56 53 52 57 59 61 65 63 60 72 76 67 74 62
25 23 25 32 28 26 22 19 21 22 24 27 25 34 36 38 34 34 34 38 46 48 44 36 33 33 39 42 44 57 56 59 61 64 64 62 64 69 66 52 57 56 52 56
29 29 32 29 27 25 24 23 23 23 24 24 26 31 31 32 33 35 38 49 55 53 43 39 42 41 40 41 49 48 54 58 59 58 56 61 54 66 62 58 60 50 57 58
28 34 30 29 27 28 30 25 22 25 25 24 32 32 28 29 32 36 43 55 70 62 57 56 52 47 53 56 59 57 54 58 62 58 52 45 40 50 49 58 69 98 96 100

GFSCGP_sfc_rhum_054.txt.gz
RH
17 18 22 19 18 18 17 14 17 14 12 19 16 40 42 60 60 71 27 29 28 29 29 29 30 30 33 39 51 57 63 70 66 64 65 65 61 64 63 61 59 71 68 70
18 20 15 14 14 17 17 17 13 11 13 22 21 35 49 53 61 57 30 31 28 28 28 32 33 32 34 43 52 60 64 71 69 63 67 63 66 57 56 60 64 64 66 71
19 16 13 12 14 14 19 19 15 12 18 18 19 25 40 48 45 30 26 31 26 28 28 30 34 34 34 43 52 60 67 72 71 69 68 71 67 68 61 58 59 62 64 68
17 13 13 14 14 13 16 15 15 12 22 26 17 36 27 16 17 18 20 26 24 26 27 26 30 32 34 40 46 59 66 72 70 73 68 74 63 60 56 60 58 61 67 66
20 16 15 15 14 11 13 10 15 14 12 14 21 20 15 16 17 15 17 20 21 23 24 25 26 32 31 35 42 52 67 72 73 73 76 66 69 57 59 58 67 73 75 70
17 13 12 10 10 10 9 9 11 12 12 18 15 20 20 15 19 14 14 16 20 20 23 24 25 28 30 31 39 46 66 75 75 76 75 80 73 69 57 62 61 62 63 67
17 17 10 7 8 8 8 9 14 16 18 19 12 14 17 12 13 13 14 16 16 19 22 25 27 27 33 34 38 44 67 78 77 75 76 76 78 74 75 72 59 62 56 57
17 20 15 8 9 9 10 9 14 25 18 16 13 17 15 11 10 10 12 13 14 16 21 25 28 28 32 34 40 45 64 75 75 74 79 80 78 69 63 67 56 51 55 53
16 16 10 10 8 8 9 11 7 9 10 12 11 12 10 10 10 10 8 12 14 14 18 22 25 26 29 34 41 45 61 73 75 74 78 81 79 76 70 71 71 63 65 51
14 18 10 9 8 8 8 7 10 9 19 20 11 14 14 14 13 11 9 9 11 14 16 20 22 26 28 30 35 41 53 68 71 71 74 73 77 77 71 74 72 67 69 71
11 15 13 10 12 11 10 10 9 8 10 14 14 10 8 15 13 11 9 10 10 12 15 17 21 24 27 28 31 37 43 60 67 70 73 76 74 76 75 67 70 69 72 73
15 13 18 13 8 8 8 10 10 16 21 11 11 9 8 7 9 9 10 11 10 11 14 17 19 22 25 28 29 33 37 42 58 65 72 74 74 75 75 74 68 69 73 76
27 23 22 18 12 9 10 9 8 9 9 20 14 10 10 8 8 9 10 10 14 16 18 18 18 21 26 28 32 32 36 37 42 59 64 69 73 74 75 76 73 70 73 73
32 29 27 19 20 13 14 10 9 8 15 13 12 11 11 10 10 9 12 12 12 18 18 18 19 19 23 30 36 36 34 33 38 45 56 68 72 74 72 74 75 74 72 75
24 35 26 19 13 13 10 10 10 12 12 14 12 13 13 13 12 12 16 16 17 17 16 21 17 20 27 33 38 38 34 38 36 47 52 63 70 71 73 74 74 74 75 72
31 36 30 30 20 18 17 10 10 10 9 9 9 10 9 11 14 13 15 15 17 17 16 17 20 23 27 32 37 39 38 38 41 48 50 60 67 72 73 74 74 75 76 76
33 35 36 37 25 22 23 17 12 11 10 9 12 13 12 13 15 16 19 16 14 13 17 16 18 25 32 28 37 41 42 40 46 51 55 59 67 70 74 74 76 77 77 76
32 37 36 35 33 42 22 15 14 13 10 8 9 9 9 11 13 16 17 17 13 14 18 20 14 16 20 17 16 35 34 52 52 56 58 61 65 69 73 76 78 79 75 78
23 31 34 36 32 28 21 17 16 16 16 13 12 10 11 12 12 17 13 13 15 18 20 19 13 12 23 19 22 40 37 43 53 56 59 58 62 69 72 76 79 78 77 77
20 25 30 33 36 34 27 15 12 15 22 34 14 13 12 13 16 33 35 28 30 29 30 31 27 24 27 34 20 41 41 49 56 56 57 61 59 67 71 74 79 78 77 76
24 29 31 31 34 26 28 18 16 28 68 40 37 39 38 31 38 36 29 31 30 33 35 38 35 34 40 42 44 49 47 51 52 52 56 61 64 68 71 76 76 78 79 76
45 29 30 30 34 40 26 19 41 49 36 35 37 36 36 36 34 31 31 34 34 40 41 40 41 42 40 43 52 58 62 60 62 60 59 64 70 60 58 76 78 79 82 84
45 43 32 32 28 34 24 27 22 24 29 32 35 29 33 38 38 37 39 39 38 45 49 49 49 50 50 52 61 60 69 66 64 65 68 69 70 69 67 76 80 77 81 76
35 32 41 37 29 26 23 22 23 21 23 23 25 26 27 36 33 34 35 38 41 46 53 55 56 51 56 57 57 66 67 65 70 74 72 72 73 76 73 63 68 70 72 74
29 31 33 33 31 28 23 21 20 22 22 22 22 23 24 30 33 32 36 41 42 51 56 65 65 65 63 59 60 57 63 68 69 70 69 72 65 77 73 76 82 70 80 77
36 47 51 52 45 47 48 40 30 26 24 24 24 24 23 27 32 33 38 40 44 55 66 72 69 65 66 66 63 68 74 70 73 71 66 61 57 62 63 80 83 99 98 99

GFSCGP_sfc_rhum_057.txt.gz
RH
24 29 27 23 22 24 26 26 26 20 20 24 32 52 54 55 47 49 50 60 53 43 41 39 41 41 42 50 54 53 68 71 69 76 74 90 82 81 69 68 78 79 80 77
27 32 22 18 19 21 22 25 26 19 16 22 42 55 52 52 62 54 51 64 60 38 37 38 37 38 42 54 50 67 62 73 68 71 68 83 82 79 72 70 70 79 78 82
27 26 19 18 21 22 23 25 24 24 16 23 38 53 52 48 59 55 55 57 46 36 36 39 37 40 42 54 57 56 70 78 70 75 74 82 84 80 78 75 69 80 74 78
23 19 20 21 20 19 26 18 20 21 22 42 24 51 63 55 54 51 51 50 42 33 33 36 37 39 43 51 57 56 72 76 72 76 73 68 63 71 82 70 74 78 76 79
21 22 21 22 18 15 18 16 16 19 24 25 31 34 60 47 46 48 46 47 43 36 31 35 36 37 38 45 55 60 62 76 69 72 66 74 82 81 73 77 71 80 82 77
18 16 18 18 15 14 14 16 17 17 22 31 24 32 37 39 44 41 44 45 44 34 30 31 34 34 37 44 53 62 65 68 69 74 85 72 77 75 79 75 79 84 83 77
21 19 17 16 19 16 16 21 28 29 31 34 23 26 34 22 23 31 34 41 40 29 30 31 35 36 38 44 51 62 68 71 75 72 67 84 79 79 74 71 74 85 87 74
26 31 21 17 19 20 18 18 26 35 30 26 19 24 22 16 16 14 22 30 28 29 29 30 32 35 35 39 49 58 70 70 71 78 74 65 78 78 65 84 75 68 78 71
22 26 17 17 16 14 16 18 14 20 26 28 24 19 16 13 14 13 15 23 26 27 29 30 30 32 34 38 47 54 68 70 71 70 76 75 68 82 73 63 85 85 72 70
33 22 16 14 16 15 12 12 17 14 27 26 20 23 20 16 13 15 12 17 19 23 28 29 30 31 34 34 41 47 63 69 72 71 72 74 77 70 80 78 81 68 75 77
46 37 19 14 19 20 16 16 13 16 21 28 31 19 14 16 13 13 13 16 18 20 26 28 30 30 33 33 38 45 54 68 73 74 72 74 79 78 72 82 77 74 80 74
46 48 36 19 13 13 14 13 16 16 22 22 23 17 17 13 12 11 14 12 18 17 26 27 29 29 32 34 35 42 51 61 68 70 74 74 74 80 82 73 75 76 73 86
50 59 53 28 18 14 16 11 12 18 22 24 19 16 12 15 12 11 17 17 14 23 25 26 29 30 31 33 34 39 42 55 61 66 70 77 77 78 80 81 72 74 75 72
63 60 67 52 29 21 22 14 11 12 20 20 18 19 19 18 18 19 17 21 25 24 22 25 28 30 29 32 33 36 38 41 55 61 69 73 78 77 77 78 80 73 74 74
51 54 43 36 30 24 21 14 12 13 13 20 18 22 21 21 23 26 28 27 25 26 30 27 25 29 30 32 34 35 37 39 40 59 64 70 72 75 75 76 79 80 73 78
50 52 45 47 30 24 24 19 12 12 12 13 16 13 22 23 22 25 25 25 25 30 27 28 30 28 29 32 36 35 36 38 40 44 61 63 71 74 76 77 77 79 80 73
58 42 53 58 36 33 41 26 22 12 12 12 16 16 25 25 27 28 29 24 25 28 27 25 29 32 32 32 34 39 40 38 41 47 49 59 67 75 75 76 77 79 79 77
59 42 53 61 44 60 35 26 22 17 13 16 14 20 19 24 32 33 29 22 23 25 24 27 26 27 31 43 37 38 40 49 47 48 56 54 65 72 74 73 77 75 75 77
34 34 53 62 51 43 31 26 25 30 62 45 46 35 18 32 40 48 42 43 48 50 50 49 44 46 48 39 42 51 42 50 61 60 60 60 65 70 74 76 75 75 74 75
29 28 50 49 59 54 51 31 27 26 76 45 44 47 34 36 61 63 48 44 48 51 51 56 53 47 47 51 50 59 57 53 48 50 69 71 65 69 72 74 73 74 74 74
38 41 45 43 51 70 44 35 38 62 76 45 40 44 50 54 59 53 48 50 54 55 57 59 60 63 60 56 54 57 46 58 70 72 72 75 73 71 71 70 72 74 77 77
72 73 58 45 58 71 44 35 51 52 46 44 44 42 52 49 44 45 45 48 56 60 58 58 66 68 66 66 58 56 67 55 59 72 74 80 84 72 77 78 77 78 80 83
84 79 93 71 75 55 36 40 34 27 30 40 45 39 42 47 46 47 48 50 50 61 63 59 68 74 69 71 74 72 66 73 70 85 80 78 86 77 66 82 83 82 83 83
41 53 67 68 49 43 42 30 44 43 44 32 32 34 36 42 44 47 50 52 51 50 63 67 61 74 78 72 71 74 69 78 81 77 89 92 84 95 78 91 79 80 82 85
55 59 75 67 56 62 48 48 46 46 46 44 43 31 33 35 45 48 52 56 54 55 65 75 70 68 80 75 86 80 81 79 76 80 92 94 90 87 95 95 100 84 89 86
54 71 96 93 77 84 77 61 56 60 58 52 50 45 38 36 44 50 55 57 60 51 49 82 79 79 80 76 87 92 91 95 95 86 88 96 93 90 92 99 99 100 99 100

GFSCGP_sfc_rhum_060.txt.gz
RH
26 28 27 20 20 22 30 34 36 29 33 48 60 56 55 51 64 62 64 64 63 59 53 50 49 47 46 60 60 58 60 68 73 87 94 90 84 84 82 77 74 81 83 85
38 33 24 22 21 22 26 30 30 27 22 27 48 54 54 54 56 58 56 63 59 58 55 52 50 48 45 57 58 62 63 67 68 66 70 88 88 85 79 73 81 82 81 86
32 31 24 26 26 24 26 29 28 29 24 34 47 68 63 55 55 54 45 51 51 53 54 53 52 51 46 52 58 59 67 71 69 72 80 93 91 85 84 80 78 86 82 85
23 21 24 28 27 23 31 22 22 23 28 42 40 91 69 62 59 56 56 46 47 47 46 47 49 50 48 49 55 55 70 71 69 78 74 72 72 78 85 75 77 81 83 85
20 22 26 28 27 21 26 22 24 23 31 38 32 61 68 55 62 52 46 49 49 49 40 42 42 46 46 45 50 58 71 71 70 80 71 71 71 78 85 81 74 80 89 84
19 14 20 23 21 21 19 21 22 28 30 37 30 32 50 64 53 42 38 43 46 48 38 36 38 42 44 46 48 52 70 77 73 75 74 73 72 87 82 82 80 82 89 84
20 18 16 16 25 22 22 30 36 44 38 37 27 36 29 46 41 37 39 37 40 43 42 36 39 40 44 52 54 54 65 74 76 74 76 76 75 79 78 82 72 88 94 93
37 27 19 18 22 27 27 23 37 45 44 31 32 34 25 30 33 33 35 34 36 38 38 36 37 37 42 48 56 58 62 65 72 75 74 73 74 74 71 72 81 72 84 80
92 43 21 17 18 20 30 28 21 32 43 33 30 23 18 17 23 22 32 33 35 38 38 36 33 37 39 48 55 60 62 60 68 69 72 76 83 71 70 81 76 72 84 81
76 91 37 20 16 19 22 21 28 31 35 36 28 26 20 19 17 17 30 32 35 38 38 35 32 36 37 43 49 57 61 60 62 68 66 64 67 82 87 72 83 89 85 79
71 80 54 33 21 22 26 25 24 23 27 26 33 20 18 19 19 17 24 31 34 37 38 33 31 34 36 38 46 55 60 61 63 65 69 71 71 68 74 87 73 70 78 86
56 72 86 48 25 16 22 26 20 23 27 29 28 18 14 15 16 16 15 25 31 34 33 31 30 32 36 37 42 51 57 62 63 66 67 73 74 76 73 72 88 76 78 76
76 86 93 51 32 21 21 21 21 22 22 26 21 18 13 15 18 17 13 16 26 31 31 30 30 32 36 36 39 46 52 61 62 66 69 72 77 81 83 78 72 91 78 74
81 93 88 94 64 52 44 36 18 20 22 22 18 14 13 11 15 22 16 18 22 28 29 30 32 32 34 35 37 43 47 55 61 68 73 77 76 80 84 84 79 73 80 80
89 98 76 56 43 38 41 36 29 18 17 18 16 23 17 14 15 27 24 26 25 30 28 32 33 33 34 36 37 40 44 50 56 67 72 75 77 74 79 85 87 80 75 75
91 90 76 67 40 39 42 32 25 23 14 19 18 20 18 16 24 32 31 35 31 32 30 31 33 32 33 34 37 37 42 46 53 63 68 69 73 80 79 81 83 89 85 78
99 91 92 76 45 41 44 38 34 25 14 17 15 16 28 27 38 50 33 27 30 34 33 31 32 32 31 32 34 38 40 42 52 60 63 67 72 77 82 80 82 85 90 84
89 89 93 74 50 58 43 37 34 51 48 46 52 50 36 56 54 56 57 51 46 41 41 44 44 43 33 30 33 34 38 43 47 53 65 67 72 77 79 81 82 82 81 86
59 85 90 74 61 45 52 46 46 51 60 42 54 47 47 45 50 60 59 62 68 71 68 59 53 52 50 48 48 44 43 43 47 50 52 64 69 76 80 82 82 79 81 81
49 83 96 58 62 77 75 54 40 45 71 42 42 53 55 43 77 74 65 61 63 65 73 75 72 68 60 60 59 56 48 48 47 49 52 54 61 72 76 78 78 77 76 78
69 90 97 61 56 78 60 62 40 70 71 44 50 48 52 60 68 58 49 49 62 62 65 76 81 81 81 72 56 62 66 68 64 62 66 65 58 62 69 72 73 73 77 76
99 99 99 94 83 96 62 64 84 62 47 48 53 40 54 54 49 48 48 50 48 60 64 60 73 85 80 83 81 79 70 66 66 76 76 84 83 68 67 72 75 76 77 83
99 98 99 98 90 72 56 77 84 56 51 52 55 50 48 48 52 51 54 52 50 50 72 66 63 72 82 85 94 90 93 76 68 78 82 87 85 81 78 78 78 82 81 81
60 60 80 79 67 66 64 54 72 55 54 52 52 54 50 49 48 54 53 54 53 50 55 76 68 70 85 90 86 95 95 94 87 77 83 92 94 96 92 82 81 82 84 85
83 71 95 75 73 79 61 55 59 68 63 60 55 52 52 50 53 54 54 59 57 55 56 69 83 71 72 93 92 92 96 95 96 96 91 92 97 96 96 98 96 89 84 86
92 98 99 96 86 92 86 72 66 71 73 73 67 58 50 53 54 49 54 61 58 62 63 65 90 83 78 90 94 92 96 95 95 96 98 98 97 98 99 100 99 100 99 100

GFSCGP_sfc_rhum_063.txt.gz
RH
27 29 25 19 24 24 32 37 36 32 29 47 50 58 70 78 73 74 70 68 67 64 57 55 54 54 53 55 56 61 63 70 76 88 88 91 86 90 87 82 81 82 90 89
36 31 22 19 20 20 22 26 31 31 39 50 51 51 58 72 76 71 69 70 67 64 60 57 56 53 54 61 57 61 60 69 72 67 72 86 86 86 82 79 80 83 84 91
41 36 23 24 24 23 26 27 28 36 42 45 54 68 56 60 62 66 64 64 62 63 62 61 58 54 51 63 66 63 60 64 67 65 86 97 92 88 86 86 81 90 84 88
32 25 27 28 31 27 38 26 25 28 32 42 53 79 74 55 62 58 60 64 65 62 57 56 57 56 52 54 63 64 62 63 65 76 72 79 64 70 77 84 81 84 87 86
27 25 25 32 30 29 31 25 28 30 33 38 46 74 70 60 64 61 55 56 58 58 56 56 55 52 50 48 60 63 66 66 64 77 68 72 76 76 95 86 81 82 94 88
25 17 20 21 24 26 28 29 33 35 30 39 34 51 46 72 62 53 50 52 50 53 53 52 50 50 50 48 51 60 67 69 69 76 74 73 74 93 92 92 86 87 87 92
54 23 19 19 29 26 30 38 51 52 43 42 33 38 27 47 42 43 45 47 46 45 47 48 51 51 52 52 52 58 68 72 72 78 75 76 74 84 83 86 88 86 91 97
88 43 24 20 23 32 32 34 49 57 53 37 32 40 29 29 38 36 38 39 39 42 44 46 43 47 48 51 51 58 67 69 72 77 75 76 75 76 73 80 80 81 83 79
90 74 44 35 32 23 32 37 30 41 58 38 35 33 24 22 30 39 40 36 35 40 40 43 39 41 44 49 52 57 64 66 72 73 74 76 76 76 75 83 79 77 83 81
82 87 58 45 35 22 25 28 39 43 45 49 39 32 28 26 23 44 42 37 36 34 38 42 38 40 43 46 50 54 56 63 67 70 71 73 74 76 73 82 80 81 81 85
81 85 67 53 42 33 34 31 36 34 38 37 48 34 24 22 22 23 32 36 36 35 35 39 38 36 39 43 50 55 56 58 61 68 69 70 74 77 74 76 78 78 82 79
86 92 96 74 47 45 46 39 33 37 41 35 37 28 16 16 18 19 19 20 26 32 33 35 37 34 38 41 48 54 56 58 56 63 67 69 72 76 83 86 77 75 80 86
77 94 93 63 55 47 52 44 41 33 33 33 30 28 15 15 16 16 19 24 36 34 34 36 36 35 37 39 44 51 56 58 55 58 65 69 70 74 75 76 82 87 76 74
75 93 92 87 85 67 67 52 46 56 38 30 24 27 19 15 16 16 17 22 20 35 34 38 38 35 35 38 41 49 55 56 57 59 64 69 74 76 76 75 75 81 85 81
89 96 86 84 73 64 60 55 47 47 44 28 22 21 17 17 15 17 24 25 22 17 34 38 38 35 34 38 40 44 51 57 58 62 67 69 71 74 77 80 81 77 81 80
97 78 90 82 57 51 54 47 40 40 39 36 18 18 19 44 67 65 53 35 24 25 35 36 35 33 34 36 40 41 49 55 60 64 68 68 72 76 80 84 86 86 83 81
97 97 96 92 55 56 52 44 49 51 53 50 27 42 50 77 78 83 84 71 38 28 33 34 34 33 33 34 37 40 46 50 60 65 69 71 75 80 80 83 88 94 92 86
98 99 99 96 64 78 58 51 47 53 52 53 58 62 68 75 72 68 70 80 87 66 49 36 32 32 33 33 36 38 44 49 58 65 69 72 76 80 82 81 84 86 92 94
77 99 96 88 87 56 62 62 66 70 59 55 57 54 55 62 60 64 53 67 76 90 88 77 59 50 47 38 38 43 47 50 58 62 67 69 73 76 80 86 84 82 83 89
85 95 98 99 95 99 84 72 56 60 72 52 58 60 54 63 80 70 54 53 70 64 82 90 80 66 60 64 39 44 48 50 55 59 63 65 68 73 79 80 83 80 82 82
100 100 98 97 98 94 81 73 58 80 75 53 60 60 62 64 72 60 53 50 60 71 63 71 84 92 96 84 59 50 48 49 48 56 61 65 71 72 74 80 80 82 83 83
99 100 100 99 100 99 80 71 88 92 57 55 60 59 58 55 50 54 55 54 49 59 74 66 78 89 91 98 93 96 87 76 74 69 63 62 63 69 72 78 82 82 85 89
98 98 100 99 97 73 61 87 71 79 64 64 62 57 54 50 51 56 59 58 55 55 61 78 72 71 86 92 98 97 99 86 75 87 88 87 75 63 60 75 79 84 82 82
78 73 87 93 68 71 72 80 74 78 79 70 64 61 58 54 50 58 58 59 58 59 58 83 80 74 79 91 94 98 98 96 96 95 93 94 95 96 92 80 75 80 84 85
97 93 96 85 66 78 64 70 72 78 80 74 69 68 64 55 49 59 58 64 61 62 65 66 91 94 90 94 95 94 97 97 96 95 96 96 96 97 98 98 97 86 82 85
97 99 100 98 90 95 86 78 76 83 84 85 82 78 69 64 59 52 62 65 66 61 64 63 66 89 95 95 94 94 96 97 96 96 97 98 97 97 98 99 100 100 100 100

GFSCGP_sfc_rhum_066.txt.gz
RH
30 33 29 26 28 29 28 42 41 34 26 55 59 66 90 81 79 81 75 73 73 69 64 62 63 61 63 68 74 77 79 88 88 93 93 92 90 89 89 87 88 88 89 90
36 33 24 20 22 25 26 31 30 29 27 49 53 57 78 81 79 75 74 73 72 67 66 66 64 60 60 67 70 75 77 86 83 80 87 87 89 87 85 84 87 86 86 90
33 29 21 20 24 23 25 28 29 38 31 49 62 75 77 78 77 72 67 64 65 67 67 66 65 62 59 65 68 71 76 80 81 82 90 94 89 89 88 86 84 86 85 88
40 27 22 24 27 22 32 22 20 29 36 52 58 84 80 72 86 81 74 68 66 65 62 61 61 62 60 63 63 67 72 77 79 83 85 87 83 82 87 86 84 84 88 87
38 32 35 30 23 22 24 22 25 30 39 36 53 65 56 66 78 82 75 70 65 62 61 61 59 59 57 59 63 66 72 75 78 81 80 79 80 83 88 87 85 85 91 89
28 24 26 27 26 26 29 35 37 42 39 44 36 64 67 77 64 62 60 65 63 62 60 58 56 56 56 53 62 67 76 77 79 82 79 82 80 90 90 90 86 86 85 90
53 35 24 22 30 32 35 48 64 64 48 47 40 45 38 46 55 47 50 53 54 58 60 59 59 57 59 58 60 66 77 80 79 82 80 81 81 88 87 87 85 88 86 89
85 41 39 39 34 35 42 44 64 73 63 44 43 47 34 24 25 44 42 43 46 51 57 59 58 57 57 58 59 68 75 77 78 81 81 82 82 80 79 84 85 83 83 82
93 64 45 39 40 39 41 44 37 50 61 44 44 36 28 26 26 42 46 46 48 49 50 54 55 54 55 56 60 64 72 74 78 77 80 82 82 82 80 86 85 82 87 78
87 57 56 49 41 36 37 35 45 56 62 63 47 36 35 32 23 27 50 46 44 45 46 46 48 52 52 53 54 58 66 72 72 75 76 75 80 81 80 85 85 86 84 84
82 86 54 54 49 48 49 38 42 43 46 50 60 41 30 32 27 24 34 41 41 40 40 42 44 45 47 49 52 55 62 68 69 73 75 76 78 79 79 81 82 83 85 85
88 92 96 77 48 46 55 59 56 51 54 44 46 37 24 22 21 25 26 49 40 38 36 39 39 42 43 48 50 53 58 62 65 71 75 76 78 80 80 82 83 82 83 86
77 94 98 54 68 58 59 55 66 63 64 49 42 42 24 20 24 20 21 26 39 44 42 38 40 44 42 48 54 55 57 58 60 68 71 74 76 80 82 80 83 84 84 86
71 91 91 86 91 76 68 52 54 63 76 61 41 36 30 22 22 23 22 26 26 48 42 40 41 44 42 48 54 59 58 56 57 61 69 76 78 80 79 81 85 86 84 84
88 92 91 82 73 71 68 59 43 58 56 64 44 40 31 23 22 31 54 60 38 30 49 46 40 44 43 47 55 58 59 62 60 64 68 74 77 78 81 83 85 87 89 83
95 83 95 88 67 68 62 47 42 44 46 49 44 45 43 73 86 87 88 87 86 56 31 44 44 45 43 45 50 57 61 63 64 67 68 73 78 81 82 83 84 85 86 88
94 92 87 97 67 61 62 47 42 62 64 68 58 57 65 91 80 76 76 82 88 92 81 28 40 43 42 41 46 55 60 63 68 70 71 75 78 83 84 84 87 90 88 86
90 92 94 91 88 82 65 58 51 56 57 63 66 65 78 80 71 62 61 70 80 77 94 56 37 40 38 37 40 51 56 67 72 74 75 77 80 82 84 86 89 90 89 90
84 93 90 97 96 72 64 79 80 79 67 59 66 60 60 56 63 63 46 50 70 73 75 92 50 46 48 42 47 54 59 64 72 76 78 79 80 84 86 88 88 89 92 91
91 94 96 99 99 95 97 75 65 68 71 61 64 63 62 58 66 56 47 45 56 69 72 94 81 62 49 53 44 57 60 66 72 74 74 78 80 83 86 87 87 85 86 87
97 98 96 96 98 86 95 85 67 92 84 60 66 68 68 73 72 53 46 45 47 62 70 75 90 91 94 72 51 59 64 64 63 66 72 79 80 83 83 86 86 87 87 86
99 99 99 99 98 97 88 83 95 93 74 63 70 72 72 64 55 54 52 50 53 55 73 72 71 85 92 93 79 76 74 74 74 72 73 78 80 74 75 86 86 87 89 91
99 100 100 100 98 91 88 93 85 80 79 75 75 73 70 62 58 52 55 59 59 60 57 74 79 77 79 87 95 97 98 84 82 80 79 78 81 80 79 85 88 87 90 87
96 87 95 92 86 87 82 86 80 89 78 75 74 70 68 66 55 58 61 63 63 60 58 64 78 85 87 86 88 96 96 94 92 92 92 90 89 90 85 82 80 84 86 87
98 96 97 94 87 88 84 85 85 90 84 79 75 74 70 67 65 62 64 66 72 66 64 63 74 82 88 89 88 88 93 92 93 93 94 96 95 97 95 92 90 83 84 84
98 99 100 99 92 97 88 86 85 92 90 84 86 84 71 69 70 66 64 67 72 69 67 68 72 78 84 85 86 90 92 93 94 95 94 97 95 95 96 98 98 100 100 100

GFSCGP_sfc_rhum_069.txt.gz
RH
22 24 25 16 17 15 20 22 18 26 25 27 33 40 57 66 59 61 60 61 58 56 52 52 54 54 56 59 64 68 71 73 72 66 63 62 60 62 63 61 68 68 68 70
24 21 16 15 17 18 18 23 24 22 22 28 28 32 44 63 64 58 59 64 58 55 54 57 56 55 56 62 65 68 71 73 74 63 65 61 62 58 59 60 67 67 67 70
24 20 18 17 18 20 18 18 23 22 22 23 36 38 50 58 59 59 54 52 56 55 54 56 57 56 54 60 65 68 72 73 73 70 66 70 68 66 62 62 60 63 66 66
24 18 20 18 17 17 19 16 18 21 22 32 33 40 51 52 64 62 57 54 52 53 51 50 52 54 54 56 58 66 71 74 70 75 70 76 62 59 55 59 58 60 66 65
29 26 22 22 17 15 15 13 14 16 22 24 25 45 31 47 57 58 53 52 50 48 48 49 50 51 50 51 54 59 69 75 73 76 75 68 70 58 57 57 69 71 71 69
25 21 21 20 18 16 13 20 16 14 15 27 26 29 33 37 44 44 46 49 49 46 46 48 47 48 49 48 51 54 69 77 76 76 75 79 76 70 63 64 58 56 56 59
30 22 16 18 22 20 19 19 31 31 26 27 22 29 30 25 31 26 38 47 48 46 46 48 50 49 52 52 54 54 70 78 76 74 74 75 76 77 76 71 57 60 52 55
40 29 23 26 21 22 25 24 22 36 25 19 24 34 28 21 20 28 29 33 39 46 46 48 51 51 52 54 58 61 70 75 73 73 76 78 78 60 60 65 54 52 50 50
44 34 31 34 31 24 26 30 19 25 28 24 19 25 21 20 19 18 20 29 34 39 45 47 47 48 50 54 58 62 68 75 74 70 75 77 76 75 65 72 70 55 64 51
48 25 29 34 31 28 25 20 33 30 35 39 25 26 24 26 22 19 22 25 27 32 37 42 44 46 48 50 53 57 63 72 71 68 68 68 72 74 72 70 74 70 65 67
35 36 16 27 31 26 31 26 26 25 27 30 32 25 18 21 22 20 17 22 26 30 34 37 44 46 48 47 49 52 59 65 67 67 69 71 69 68 70 67 69 70 70 71
48 45 33 18 30 34 36 33 28 31 40 32 27 24 17 18 16 17 18 18 22 28 30 35 38 44 46 48 47 49 51 54 59 63 69 70 70 71 67 70 66 67 71 71
50 59 31 12 32 37 40 41 37 36 34 38 35 28 19 18 18 18 18 16 23 33 33 35 36 41 48 49 53 49 49 47 48 58 60 67 69 70 72 72 71 69 72 71
53 59 50 27 44 44 50 46 40 36 34 28 29 28 23 20 20 21 22 21 20 26 35 36 37 39 44 49 55 55 49 45 48 51 56 67 71 72 69 72 74 72 73 73
61 52 45 34 34 37 38 38 37 44 38 37 26 30 25 26 35 51 49 50 49 45 35 34 36 39 46 50 54 55 52 54 51 60 61 66 72 72 73 74 74 72 73 71
74 49 56 42 31 40 44 33 34 36 34 36 36 38 30 42 55 54 55 55 56 56 55 47 38 40 47 48 53 55 56 56 58 64 64 69 73 75 76 76 77 76 75 74
71 53 54 34 42 49 42 37 33 30 46 41 43 37 54 51 61 62 62 60 63 64 62 60 59 42 48 44 53 56 58 57 63 66 67 71 75 77 78 76 78 80 80 75
70 82 73 47 41 50 48 52 32 40 55 53 54 53 56 62 55 47 50 56 61 65 68 65 60 54 40 37 40 50 50 63 66 69 68 70 74 76 77 78 79 81 74 78
53 68 60 55 50 40 51 78 76 73 61 52 56 55 55 50 51 48 42 44 55 67 70 68 66 58 36 38 43 54 56 61 64 68 70 70 71 75 76 79 79 77 76 77
65 66 76 63 68 64 97 80 68 67 71 54 55 58 61 49 59 45 49 44 47 61 71 75 66 40 32 40 37 56 60 64 67 66 67 69 70 74 77 78 80 78 76 73
96 94 89 73 70 58 94 84 76 97 84 76 61 61 63 57 54 50 48 53 50 56 69 69 74 54 46 45 49 60 61 64 61 58 62 70 72 76 76 79 78 78 78 74
84 89 90 84 79 78 87 82 98 93 82 73 69 66 68 56 51 46 50 58 57 54 60 67 76 80 64 52 60 64 68 63 68 67 66 73 76 65 63 80 78 80 82 83
98 99 99 94 81 82 82 88 83 89 90 82 75 68 67 62 58 56 55 62 57 55 54 58 66 77 79 84 67 64 72 68 68 70 74 75 76 72 69 79 81 74 79 68
97 96 100 99 89 93 83 80 86 88 87 82 76 72 70 69 62 62 62 67 72 68 56 57 54 62 74 77 78 84 83 73 68 72 72 70 72 76 72 64 63 63 61 65
98 98 99 98 94 92 84 78 81 89 82 76 74 75 76 68 68 66 66 68 68 68 72 61 62 61 65 67 70 70 77 79 75 72 68 69 66 74 68 65 60 60 64 64
98 100 100 99 95 98 88 84 80 90 87 81 81 80 77 74 72 70 70 65 61 58 66 68 58 60 61 59 60 66 68 73 77 74 69 74 73 66 63 63 70 98 98 100

GFSCGP_sfc_rhum_072.txt.gz
RH
14 16 15 11 11 9 10 8 8 13 20 26 27 30 39 43 39 41 41 44 41 41 39 40 40 39 36 41 48 52 53 57 53 48 46 46 46 46 45 45 52 57 56 59
16 16 12 10 10 12 11 13 11 12 17 24 25 27 27 39 40 38 40 44 40 40 40 42 43 41 38 43 48 54 56 60 60 45 47 43 45 42 42 43 52 53 55 59
18 13 10 11 12 14 13 12 11 12 16 21 25 29 26 28 37 35 36 38 37 38 39 41 44 43 41 43 49 54 60 62 61 54 48 54 51 50 50 48 46 49 53 54
19 14 17 13 14 12 13 9 10 13 18 24 22 30 29 25 37 38 36 37 37 36 36 37 39 42 41 42 44 51 58 62 59 62 57 68 51 47 40 42 40 42 52 52
19 19 19 18 16 12 13 9 10 10 15 18 24 29 22 24 34 36 35 34 33 34 33 34 37 40 39 40 40 46 57 64 61 66 64 56 60 39 38 39 53 61 58 56
20 14 16 16 14 13 11 11 12 11 10 18 20 22 23 30 31 32 31 32 33 31 33 33 33 36 39 37 39 42 57 68 65 64 64 67 65 57 44 50 44 43 42 45
21 20 17 15 16 14 14 12 18 16 12 11 11 18 21 17 22 23 26 31 31 31 32 34 36 36 40 41 42 42 59 72 67 63 62 64 66 66 63 59 48 48 38 38
19 21 19 15 16 17 17 15 14 26 13 9 8 16 16 15 17 18 18 20 25 29 31 33 37 37 39 42 44 47 59 71 65 64 68 70 70 50 51 56 43 40 37 36
22 19 20 22 16 15 18 20 12 12 13 15 8 10 12 13 15 18 17 19 21 25 28 30 32 35 37 41 46 50 58 70 67 59 69 70 69 66 52 62 56 45 50 39
20 21 17 20 22 20 20 15 20 18 28 28 15 14 12 17 20 17 16 15 17 18 23 26 29 34 36 37 41 45 53 66 62 57 59 58 61 63 62 57 62 58 52 53
18 18 15 18 22 19 20 22 20 16 19 23 21 14 10 14 15 16 14 14 13 14 16 22 27 31 35 35 38 42 48 55 57 56 59 62 58 56 59 54 57 60 61 59
21 19 20 12 22 20 22 22 18 24 31 22 20 14 11 12 11 14 14 13 12 14 16 20 24 30 33 37 36 39 42 46 50 52 61 61 60 60 54 58 55 57 63 63
25 21 27 19 10 14 23 22 22 18 17 28 25 20 13 14 15 14 14 14 15 17 17 20 22 28 34 36 41 38 39 39 40 49 50 55 58 58 60 59 60 57 62 62
36 21 27 18 23 24 33 30 28 23 26 24 22 22 17 15 16 20 25 26 23 22 21 22 23 25 33 38 44 44 39 35 36 40 44 57 62 62 57 61 64 60 62 64
33 40 29 23 19 19 22 22 23 30 29 27 21 21 20 18 21 30 34 32 34 32 28 25 26 26 32 39 45 47 41 42 38 44 45 54 64 64 66 65 65 63 62 62
32 41 33 34 22 16 19 17 18 19 25 29 26 27 18 20 23 28 36 38 37 37 36 36 34 28 29 34 43 47 48 44 45 50 50 57 65 68 67 67 66 67 65 66
48 42 40 34 19 22 24 17 17 20 20 24 31 25 20 32 28 39 45 44 45 44 44 44 43 41 34 28 37 45 49 46 51 55 57 60 66 70 71 66 69 71 71 66
45 53 44 33 27 33 17 38 38 27 18 18 25 26 34 38 43 39 42 45 46 47 50 52 46 41 38 30 25 38 39 52 56 59 62 63 66 68 70 70 72 75 67 71
31 55 52 37 25 18 18 68 68 75 32 38 39 35 38 40 41 45 39 40 45 48 49 53 49 47 46 41 31 35 41 46 53 60 63 63 64 68 69 72 73 70 69 68
35 36 76 50 41 40 75 74 70 70 84 56 49 48 50 48 51 40 40 38 44 46 49 58 54 50 44 44 32 33 43 50 58 60 61 62 63 69 70 72 74 70 67 63
83 85 83 69 61 31 58 56 72 97 83 69 62 61 56 60 48 42 36 40 48 47 50 59 60 60 52 35 36 42 46 51 54 52 54 60 62 70 70 73 71 71 69 64
94 93 90 76 77 62 58 56 93 89 79 76 72 68 66 61 50 40 41 45 51 55 53 50 71 73 61 38 41 53 59 53 59 56 55 62 66 57 54 72 71 70 73 76
93 88 88 71 56 58 68 75 68 73 84 76 79 76 71 65 59 48 48 55 59 57 63 55 57 74 74 65 45 54 62 61 59 60 63 65 65 62 59 70 73 64 71 58
95 96 100 85 61 68 78 68 69 73 76 80 76 81 74 70 63 57 54 60 62 63 69 66 59 55 68 77 76 80 65 61 63 65 65 63 66 67 62 54 56 55 51 54
98 97 99 96 73 90 78 78 77 76 74 76 76 76 77 73 71 65 64 67 68 69 74 74 72 69 61 61 66 70 77 63 62 62 59 61 56 66 61 56 49 49 51 47
98 100 100 99 96 98 92 81 79 82 79 78 84 77 73 74 78 73 70 66 66 68 69 80 82 80 72 66 64 63 66 76 69 63 55 51 44 51 48 49 53 97 95 100

GFSCGP_sfc_rhum_075.txt.gz
RH
19 16 14 12 11 8 6 6 6 7 12 18 22 26 66 32 28 32 32 35 32 33 32 33 32 31 30 32 40 45 50 59 52 47 47 45 41 42 38 36 46 51 49 52
14 16 11 8 8 8 7 8 7 6 7 16 21 24 29 29 30 29 31 36 33 32 34 35 35 33 32 36 42 50 55 62 57 46 49 43 44 37 36 37 48 49 49 54
16 11 9 9 9 10 9 9 9 8 8 11 18 23 32 61 39 28 27 31 30 31 33 34 37 36 34 37 43 51 59 63 62 55 48 48 46 44 39 45 44 46 48 49
14 10 12 10 11 9 11 8 8 8 8 17 16 24 22 48 79 29 27 28 28 28 30 31 34 35 34 35 38 50 57 64 61 62 53 65 47 43 38 40 37 44 47 47
13 13 14 15 12 10 12 8 8 8 9 11 14 19 16 20 33 28 26 26 27 26 27 29 32 35 34 33 35 41 58 65 63 65 60 52 58 40 36 34 59 59 60 49
15 9 10 12 12 11 10 10 9 8 8 11 13 15 17 20 23 28 25 24 26 25 25 27 29 32 33 33 33 37 57 69 67 66 66 67 65 56 38 43 43 42 42 46
14 16 12 11 14 12 13 12 16 15 13 11 7 12 18 13 20 21 22 24 24 24 25 27 30 31 36 36 37 38 58 72 70 65 64 64 66 67 62 58 41 47 34 34
14 15 13 12 14 14 15 12 15 24 13 8 7 11 13 12 16 24 20 21 22 24 25 27 29 31 34 37 41 43 56 70 67 64 67 69 68 46 44 53 39 35 32 33
12 13 11 11 12 12 14 16 10 11 9 9 6 7 6 8 11 21 32 21 23 23 24 25 26 28 31 36 43 47 54 67 68 61 68 69 68 64 49 60 62 42 49 32
13 21 13 12 14 13 13 11 15 14 24 20 11 10 8 10 11 12 15 17 18 20 21 22 24 28 29 30 35 42 50 63 65 58 62 61 64 65 61 60 63 58 54 52
12 15 13 12 19 18 17 18 18 13 14 18 16 13 9 9 11 12 12 15 15 15 18 19 21 24 28 29 32 36 44 53 60 58 60 62 60 59 62 56 58 60 60 60
15 14 17 12 8 9 11 15 15 22 26 16 14 12 8 7 7 10 13 12 12 13 15 16 18 22 26 30 31 34 37 41 50 54 59 60 61 60 58 59 56 59 64 65
21 21 22 17 10 9 15 16 16 12 14 24 18 16 12 11 11 10 12 12 13 14 14 14 15 21 25 29 35 33 35 35 38 51 50 56 60 60 61 61 60 58 64 65
30 25 27 18 17 15 17 12 16 17 20 18 18 16 15 14 14 17 21 24 22 22 18 18 16 20 26 31 38 39 34 32 35 39 44 56 63 63 58 60 64 62 63 67
24 33 26 21 17 16 16 18 19 24 24 27 19 18 16 16 14 24 27 26 26 26 24 20 18 19 25 31 40 41 36 39 37 44 44 52 62 64 64 63 64 64 64 64
28 43 38 32 25 18 19 15 15 17 19 20 22 23 17 21 20 20 21 29 31 29 30 30 28 26 24 28 35 41 42 40 41 47 47 53 61 66 66 66 65 66 66 67
44 53 47 47 24 20 24 18 14 14 14 16 23 23 19 19 21 33 37 36 36 34 36 38 38 35 33 25 31 38 44 42 46 50 51 54 62 68 69 66 68 70 71 68
30 50 64 64 35 45 16 14 16 20 15 12 14 16 18 21 28 29 34 38 38 39 41 41 39 39 34 28 24 30 33 49 51 53 55 56 61 66 69 69 71 73 69 71
21 28 71 67 40 27 19 48 48 45 24 34 14 15 17 31 32 32 28 35 38 42 42 42 42 42 43 42 36 32 36 41 50 54 56 57 58 66 69 72 72 71 71 70
24 24 38 42 59 47 56 52 46 46 40 47 44 49 48 42 42 39 38 33 38 42 44 46 45 45 43 43 37 39 33 43 54 54 55 58 59 65 69 71 73 71 69 66
70 68 62 53 56 30 40 38 42 67 56 57 58 58 55 62 55 51 38 37 39 45 47 49 48 58 57 55 49 47 42 42 45 47 52 59 63 68 69 72 72 72 71 63
80 84 88 75 71 57 40 40 52 62 54 55 55 62 67 62 56 53 45 40 41 48 50 51 52 68 67 65 63 54 56 48 53 54 55 61 67 57 55 73 73 73 76 77
90 100 100 75 50 33 44 48 48 45 56 60 61 58 65 64 59 53 50 45 44 48 51 54 56 60 61 65 72 50 57 57 56 60 63 65 66 63 60 72 76 67 74 59
76 86 99 81 40 42 56 46 59 65 65 65 59 61 68 76 65 58 56 48 48 55 60 59 59 62 71 68 70 71 78 56 59 66 66 64 66 69 64 56 58 56 52 56
96 96 97 96 68 80 60 72 80 76 70 66 61 58 64 68 72 67 63 60 56 63 66 63 67 68 71 74 75 71 71 77 73 66 58 62 57 65 63 55 49 50 51 49
97 100 100 98 95 98 95 84 77 79 76 69 67 64 60 66 74 71 70 65 62 68 72 65 72 69 70 68 75 77 74 74 74 79 69 52 48 54 52 50 57 97 87 100

GFSCGP_sfc_rhum_078.txt.gz
RH
21 22 22 18 14 12 9 7 6 6 7 10 14 42 50 54 53 75 51 34 36 39 35 32 31 32 33 36 49 56 61 72 66 66 63 65 64 66 66 66 71 68 69 70
19 23 16 10 10 11 11 9 8 5 5 8 17 44 51 55 49 72 65 36 33 36 39 36 35 34 35 41 52 58 64 73 67 65 68 65 66 59 63 62 67 64 63 71
16 13 13 12 10 11 10 10 8 8 6 6 12 50 58 55 46 50 46 30 30 34 40 38 37 36 35 43 53 58 68 73 68 69 67 71 66 70 65 71 65 63 63 65
16 13 11 11 12 10 12 8 8 8 8 10 8 15 62 68 82 46 46 55 28 29 36 36 34 36 36 42 48 59 66 73 68 72 68 74 65 66 65 88 63 64 65 68
14 14 13 12 11 10 11 8 8 8 9 9 9 15 16 49 47 44 64 54 28 25 31 33 34 36 35 38 44 54 64 73 69 72 73 67 71 58 60 60 74 74 76 68
14 10 10 10 10 11 9 10 10 9 8 12 10 10 16 47 41 39 34 41 34 24 26 29 32 34 35 35 40 50 66 74 73 73 74 76 73 72 64 67 65 65 64 67
10 11 11 8 12 11 12 12 18 18 14 13 8 10 15 18 35 36 37 33 28 27 26 28 32 35 39 39 41 47 68 74 74 72 69 75 71 74 78 71 61 62 59 59
12 14 9 11 12 13 14 14 19 28 16 12 9 12 10 9 9 26 30 22 25 27 28 29 33 35 40 41 43 47 68 74 72 72 72 75 75 62 63 68 54 60 52 53
16 10 6 10 11 12 15 17 12 14 12 12 9 9 7 7 9 18 34 40 34 51 27 27 30 32 38 41 47 49 65 74 73 68 74 73 76 74 62 73 74 57 66 58
15 19 10 10 10 10 13 12 16 15 26 27 13 14 10 11 10 17 24 48 61 68 45 25 27 31 34 37 42 46 57 71 71 68 69 66 70 72 72 66 76 72 71 66
14 16 15 10 15 17 16 16 15 14 15 21 20 13 9 12 10 10 25 47 70 70 67 36 26 28 33 35 38 44 49 64 69 68 68 70 68 66 67 65 67 70 72 74
18 18 22 14 10 9 14 18 16 24 30 18 17 14 11 11 7 7 10 26 30 45 83 77 34 28 30 34 36 40 44 50 61 66 69 67 68 68 64 64 67 68 75 75
26 26 28 21 13 9 10 10 12 14 16 31 20 16 11 11 9 8 9 11 20 25 51 55 35 27 31 34 38 38 41 42 50 62 62 66 67 68 68 65 68 68 70 73
26 25 32 32 23 20 19 10 11 13 20 20 20 19 16 16 34 23 26 28 25 29 26 26 29 26 28 36 41 42 39 38 42 53 58 66 69 69 66 68 68 67 72 74
24 31 27 24 22 24 20 16 13 14 18 24 22 20 46 50 43 47 27 27 27 30 31 37 33 40 35 39 45 44 41 43 42 51 58 64 68 68 70 71 72 69 68 70
29 43 37 39 24 26 24 20 14 14 18 24 23 28 45 46 38 35 48 34 34 36 36 42 46 45 58 56 45 45 45 44 46 53 56 63 68 71 71 72 72 73 71 72
28 79 52 50 28 27 30 22 17 16 15 18 24 22 21 32 34 61 51 47 42 40 42 44 44 43 48 60 69 47 48 46 52 56 58 63 67 71 74 72 73 75 75 72
27 31 70 49 42 74 31 16 17 16 15 11 13 14 16 28 45 40 42 44 41 43 45 45 40 41 42 47 44 48 43 52 56 59 62 62 65 70 74 75 75 76 72 76
22 30 67 74 42 50 38 41 47 46 24 35 43 42 45 42 32 58 46 38 40 43 45 46 44 43 50 52 50 51 53 50 52 56 61 63 62 69 72 76 76 74 74 74
42 39 42 37 60 55 60 36 35 29 42 46 50 56 54 46 33 65 49 42 39 40 46 50 51 46 51 61 58 57 54 53 59 57 57 61 62 67 72 75 77 75 74 72
72 90 85 55 46 30 48 51 35 53 56 47 46 49 54 59 57 52 45 46 44 42 46 49 54 55 63 64 70 77 71 65 52 54 55 62 66 68 72 76 76 76 76 73
77 86 86 72 67 60 38 38 48 58 46 41 46 47 49 50 52 51 49 48 47 46 46 48 56 60 61 66 75 81 81 83 70 60 60 63 68 60 59 76 77 78 79 81
87 91 95 79 79 53 51 71 75 43 46 45 52 50 51 50 54 56 57 51 50 48 49 49 55 64 67 73 80 82 84 82 82 64 68 67 69 67 66 74 79 78 80 74
62 70 88 74 43 57 63 63 78 72 70 62 54 52 50 52 53 59 56 55 53 52 52 54 57 59 68 74 79 87 86 86 86 71 72 69 71 74 72 63 68 72 73 75
76 80 80 74 59 82 54 74 73 73 71 66 58 54 53 55 56 60 60 64 60 56 55 60 61 64 66 76 78 84 86 88 90 78 69 70 66 75 72 67 68 68 68 66
90 99 100 95 90 99 96 87 82 86 80 73 70 67 60 56 59 61 60 62 60 60 59 62 65 67 65 73 78 82 82 83 88 76 84 73 63 68 66 68 72 99 89 94

GFSCGP_sfc_rhum_081.txt.gz
RH
27 38 41 30 24 20 19 18 16 11 8 14 21 77 74 71 68 80 80 72 45 43 44 35 35 38 46 52 55 64 71 70 77 85 84 84 78 76 79 81 76 83 82 72
35 39 26 21 19 19 17 18 18 12 8 12 54 67 67 64 61 63 60 56 70 42 42 48 37 38 46 50 62 67 69 76 77 81 82 78 77 80 77 73 83 77 79 76
27 25 20 20 20 16 16 19 16 15 10 10 51 69 67 57 57 58 67 67 68 60 43 42 39 39 45 51 63 71 72 75 80 73 82 82 81 77 84 76 83 75 79 77
25 17 15 18 20 17 21 13 11 10 14 20 13 63 68 57 70 75 68 78 81 81 47 41 41 41 42 53 54 73 74 73 78 73 76 79 82 82 84 86 76 79 73 79
21 17 18 19 16 13 16 13 13 14 14 17 12 20 70 59 64 69 78 72 77 75 48 41 38 41 41 50 51 66 76 72 66 80 68 80 80 76 80 80 80 85 80 79
16 13 15 15 13 12 12 14 16 18 21 24 15 20 62 74 54 45 61 67 79 52 41 41 37 38 42 47 52 57 77 70 70 77 87 80 77 80 72 81 77 78 83 86
15 14 13 11 18 14 17 34 36 35 31 29 17 16 14 57 48 42 51 49 38 45 40 43 40 39 42 46 56 57 71 77 70 73 77 91 77 80 83 85 74 74 83 82
20 18 13 10 18 20 19 23 36 40 38 26 17 21 15 17 39 36 38 36 37 41 39 41 41 38 41 45 54 60 65 76 71 69 72 83 86 75 83 83 77 68 64 66
28 23 13 10 9 16 20 24 18 28 24 27 22 18 12 10 18 35 31 38 41 41 32 37 39 38 40 43 49 59 66 67 72 71 68 78 94 75 79 76 77 73 68 69
25 31 17 12 11 13 23 19 29 27 47 43 28 25 26 14 10 36 38 45 61 63 58 60 69 39 39 40 44 52 66 68 72 68 67 68 74 88 84 74 84 75 68 70
28 36 29 20 19 19 17 22 25 26 28 31 37 28 18 25 16 30 38 43 54 74 66 59 79 82 80 40 44 48 67 68 70 66 69 64 66 85 88 82 72 82 77 84
32 41 44 31 18 14 14 14 33 39 39 38 44 28 32 42 41 26 36 38 46 59 73 80 81 83 83 80 42 45 63 66 67 68 67 68 64 71 74 81 82 84 77 82
31 47 54 39 25 23 27 22 21 23 27 38 48 38 35 36 38 50 45 54 54 61 66 72 78 80 78 78 56 45 51 63 65 67 66 70 69 64 71 66 80 72 89 83
31 38 46 50 39 30 31 26 26 23 25 32 29 28 45 46 44 61 62 52 58 63 57 69 81 83 80 80 69 43 46 57 63 66 69 69 68 68 63 61 63 82 75 87
37 54 43 36 28 28 28 27 28 31 21 23 23 26 44 52 70 71 68 61 66 65 67 76 75 85 90 91 77 44 45 47 60 67 68 70 68 66 68 66 68 56 87 68
45 61 68 54 36 31 32 28 26 26 22 19 20 31 37 59 63 73 73 68 58 63 60 54 67 75 93 95 93 92 63 46 52 64 68 67 69 70 70 71 70 67 59 86
49 84 71 72 40 36 48 34 31 26 23 23 24 50 36 60 70 81 74 71 58 60 64 57 61 62 81 94 94 94 90 88 56 57 64 67 69 74 72 72 72 75 68 60
40 53 86 79 70 76 38 30 34 39 52 52 56 53 53 80 82 82 74 71 58 61 62 60 61 59 65 84 92 95 95 84 89 60 62 65 71 72 73 70 73 72 74 71
49 60 76 82 77 50 39 44 49 51 60 53 60 56 56 56 58 62 61 57 54 54 57 58 56 59 68 69 85 88 92 90 95 66 62 66 66 73 74 74 70 71 70 74
52 64 90 74 80 72 70 44 40 39 71 52 48 55 60 59 76 77 54 50 54 52 58 56 57 62 71 73 77 87 84 90 91 86 69 64 65 68 73 75 71 71 70 68
88 89 93 86 84 56 65 62 43 53 97 80 53 54 61 70 69 63 56 54 52 54 58 54 60 65 70 76 77 84 89 88 89 82 84 71 65 66 68 70 71 71 73 71
83 98 98 94 84 81 65 62 94 94 80 69 67 66 66 61 56 54 59 62 58 58 61 59 64 67 76 77 78 80 85 83 83 84 84 76 72 64 67 71 73 74 74 77
94 91 97 87 86 59 67 72 79 74 78 77 79 70 67 63 60 57 57 58 61 60 61 66 70 72 78 82 88 84 84 84 87 87 86 83 74 67 62 74 75 78 76 78
87 76 94 83 62 73 72 79 77 75 78 76 71 69 68 71 62 63 65 58 61 65 64 66 76 77 84 85 87 92 85 87 88 88 88 86 71 77 69 70 72 77 77 78
94 89 86 88 71 78 69 77 83 81 75 72 68 71 70 70 69 67 65 67 59 68 63 66 82 80 88 88 92 87 91 91 94 96 93 94 84 85 84 73 80 74 72 75
91 95 98 96 89 92 88 80 80 86 86 80 82 81 74 66 68 68 68 72 64 73 79 70 82 90 92 91 90 86 85 88 93 95 97 97 97 94 96 95 91 99 96 98

GFSCGP_sfc_rhum_084.txt.gz
RH
32 42 50 42 34 28 27 29 27 20 15 13 54 88 78 74 78 74 73 63 58 47 49 40 40 49 53 56 59 66 76 79 86 86 84 90 81 89 88 84 82 86 83 81
42 48 34 27 25 26 27 28 25 19 16 16 77 94 81 79 81 68 70 71 57 47 48 43 40 48 56 56 63 70 69 78 80 83 84 81 82 81 80 84 83 85 83 81
45 34 27 28 29 28 28 28 23 20 15 55 71 82 92 83 74 75 71 62 56 49 48 43 40 47 56 57 68 70 71 75 81 82 85 86 86 86 87 87 88 86 83 81
35 23 20 30 28 26 35 19 16 16 18 21 41 58 80 75 76 72 72 64 66 64 53 46 41 46 54 56 62 69 71 74 77 82 84 86 89 84 89 89 88 83 84 82
23 24 24 24 21 20 25 18 18 21 23 21 20 30 73 66 74 74 64 64 64 56 56 55 42 42 48 52 58 72 69 75 73 74 72 84 87 83 88 86 83 89 89 83
17 16 18 19 17 17 15 20 22 25 26 31 22 19 52 72 60 56 53 64 61 57 55 54 44 40 48 48 57 68 72 74 78 74 80 81 81 85 88 87 86 90 90 91
17 15 14 12 18 18 20 31 41 38 33 32 34 23 21 56 47 46 51 58 50 48 49 56 52 44 47 51 54 69 73 74 74 81 77 78 80 82 85 84 76 90 93 96
30 22 17 13 19 25 26 28 40 45 41 32 26 27 19 21 43 40 44 50 41 54 50 53 50 45 44 52 53 66 74 71 68 74 80 86 81 75 88 88 76 71 74 79
33 26 17 16 16 18 23 30 24 34 54 38 33 25 21 41 40 44 41 52 48 55 55 46 44 41 46 51 55 58 73 71 68 67 68 82 93 84 81 86 86 72 67 72
39 34 26 20 16 18 21 19 34 37 46 51 38 34 33 58 61 61 48 48 55 51 54 50 50 53 53 47 53 54 63 69 70 64 64 66 73 94 83 83 85 82 75 76
46 41 34 25 30 34 26 32 32 38 40 43 42 37 55 59 67 69 56 40 48 52 58 52 56 55 56 59 59 60 58 63 71 67 63 62 67 90 92 76 75 87 78 79
41 52 53 40 28 25 23 33 40 53 52 48 42 44 45 58 64 66 66 45 45 50 65 69 74 83 81 73 57 69 65 63 65 67 67 64 63 68 94 92 76 80 85 92
32 52 59 42 41 31 33 26 35 42 44 44 45 46 55 65 72 67 71 83 82 80 79 81 84 84 85 85 81 74 65 74 68 67 67 69 62 62 69 80 92 82 82 86
36 50 55 63 49 38 40 34 30 43 53 46 37 30 73 76 83 79 72 68 72 74 75 80 84 85 86 89 91 86 82 72 81 73 66 71 69 61 58 68 80 88 88 90
42 55 67 64 44 40 36 34 34 38 38 49 33 28 91 84 87 84 78 72 73 74 72 78 82 92 88 93 91 92 90 82 79 86 84 68 71 68 60 59 70 73 90 82
62 65 73 58 41 41 38 32 34 33 38 43 41 43 68 81 70 76 77 80 79 78 70 72 81 78 87 90 95 92 89 85 74 81 81 82 70 72 71 64 62 70 66 90
58 75 75 76 52 43 45 45 48 50 68 67 77 73 63 88 87 86 78 76 82 79 72 72 79 83 89 90 94 97 95 93 92 82 72 74 83 76 74 74 68 68 64 56
50 79 89 86 62 69 37 36 45 64 58 59 60 57 59 66 77 73 66 62 67 76 70 65 71 81 87 89 88 93 97 95 93 90 95 87 85 79 79 73 77 71 71 64
68 75 86 83 83 57 45 72 73 65 67 71 85 60 55 56 61 70 59 56 56 65 77 62 59 61 72 86 89 90 92 96 96 94 97 96 89 87 85 77 75 74 73 73
68 86 90 86 80 80 92 67 66 53 78 74 72 64 64 60 91 80 64 57 58 56 69 62 57 58 71 73 83 91 92 91 94 95 95 94 95 89 83 76 73 73 71 74
92 93 92 95 93 85 77 65 62 79 92 83 75 80 76 83 71 67 57 56 55 55 61 60 64 64 63 74 78 76 90 92 91 92 94 93 90 77 83 77 71 70 72 71
86 97 99 96 98 92 69 66 87 95 84 79 76 75 80 72 66 60 58 56 58 58 61 70 70 69 68 79 86 84 84 82 88 92 94 98 97 90 66 74 74 75 74 76
93 92 95 90 89 86 87 90 85 88 88 88 86 78 76 78 74 69 67 62 62 64 64 64 84 76 70 78 94 92 84 86 87 87 86 94 94 94 88 83 77 77 75 77
92 87 95 87 67 84 87 85 84 87 90 77 76 75 69 71 71 75 68 62 63 60 66 68 72 80 78 87 89 94 90 90 94 92 91 92 93 95 93 92 76 75 77 77
92 90 91 92 80 76 81 80 86 73 84 80 76 70 73 76 82 80 76 69 65 71 74 73 73 74 81 95 90 90 90 94 96 96 96 96 98 98 97 91 85 74 71 74
95 90 96 93 81 82 81 80 83 84 82 77 79 79 73 67 70 80 78 70 67 69 77 83 75 87 87 89 90 90 90 94 97 95 98 98 98 98 98 99 98 100 96 99

GFSCGP_sfc_rhum_087.txt.gz
RH
31 44 54 45 39 34 31 35 36 26 19 38 78 76 79 81 82 76 74 63 58 54 49 45 48 54 60 63 66 70 76 81 88 88 89 94 90 95 96 91 85 89 93 92
44 50 35 34 33 32 36 38 34 25 20 20 61 89 74 83 82 75 74 66 59 51 54 47 48 58 63 64 65 71 71 77 85 84 87 87 86 91 91 88 87 87 87 88
48 38 31 33 37 35 38 43 33 28 27 76 75 84 90 83 82 82 72 62 59 58 52 47 46 59 62 63 67 71 72 75 83 83 86 91 86 93 87 91 90 88 87 85
41 31 30 33 37 32 47 27 23 22 23 25 51 88 85 81 85 86 80 72 67 59 53 46 46 59 60 61 62 64 70 72 80 86 85 86 91 89 88 91 94 90 88 85
31 28 31 28 26 28 32 26 24 22 26 26 23 34 70 86 92 82 76 73 68 61 51 47 44 54 57 56 62 65 70 72 80 81 78 81 90 85 87 90 88 93 93 87
19 18 21 21 20 22 20 22 27 30 29 32 26 23 36 96 78 66 63 62 64 58 58 47 41 44 55 55 60 65 73 74 80 80 84 81 83 87 92 94 89 93 96 95
17 18 16 14 20 20 24 32 41 38 35 33 32 26 27 44 65 62 57 55 57 56 56 53 48 46 53 57 61 66 74 77 79 79 81 81 79 84 86 91 86 94 96 97
29 23 20 17 22 25 28 32 41 42 44 35 33 28 43 53 53 57 50 45 49 54 54 51 56 46 49 54 60 67 74 74 77 78 80 83 82 82 84 90 88 82 85 83
35 31 22 20 18 23 25 33 39 40 52 38 37 32 39 60 67 66 64 58 44 50 52 51 53 47 47 51 59 66 73 72 75 74 75 82 85 86 83 90 88 84 84 80
49 36 31 24 20 22 26 26 36 40 45 47 40 48 83 82 87 82 87 79 62 52 53 52 54 55 48 49 52 62 69 70 71 72 73 74 80 84 84 85 94 91 84 82
60 42 31 29 34 36 35 39 46 49 46 46 45 83 70 75 81 83 83 85 67 56 58 60 55 53 58 52 52 56 69 67 70 68 69 69 75 94 93 87 82 87 87 86
41 54 50 44 33 26 30 39 50 53 52 54 51 84 65 70 69 74 75 77 77 82 87 89 88 88 89 78 61 66 65 68 67 65 65 66 67 76 93 89 84 82 86 86
42 56 47 35 34 38 38 37 50 52 60 56 56 64 70 78 80 68 69 74 78 83 87 92 94 91 91 92 92 87 82 80 70 68 66 66 66 66 74 87 92 84 82 85
41 59 54 44 54 49 50 39 39 53 57 54 45 42 94 86 94 88 76 66 69 75 86 89 94 92 92 93 92 89 88 86 90 75 70 69 68 65 63 65 90 91 81 82
42 59 69 64 49 46 44 41 39 48 47 52 48 85 79 80 85 92 87 77 72 71 73 86 89 92 89 90 96 94 92 89 90 89 86 72 70 65 63 63 67 86 88 81
63 77 71 58 48 42 41 48 42 46 63 51 56 93 64 77 71 78 83 84 86 81 73 74 83 85 91 88 90 92 95 95 92 91 89 88 74 74 69 65 63 72 79 81
64 77 70 70 61 43 52 51 70 73 76 79 91 70 63 76 78 78 78 75 79 81 82 75 80 83 90 89 86 92 96 95 97 92 90 90 95 83 79 71 66 65 71 72
71 81 87 82 64 57 38 69 58 71 75 81 81 69 55 55 63 68 66 68 66 76 84 84 80 82 82 86 84 87 91 96 97 96 92 94 95 92 87 80 75 66 63 67
68 74 89 82 79 57 60 74 84 83 80 81 85 76 71 59 54 61 56 54 54 60 85 90 68 75 71 84 87 88 87 92 95 96 95 92 93 96 94 90 77 74 68 66
80 87 89 87 76 73 80 67 62 74 88 85 83 87 86 69 68 67 59 54 52 55 62 82 81 61 85 78 87 89 92 87 94 94 96 96 97 99 97 96 92 86 77 71
92 94 90 94 93 82 78 66 64 85 88 94 84 89 91 95 82 71 60 59 57 59 56 60 80 78 68 78 82 89 92 93 91 92 94 95 96 98 97 97 97 95 94 86
86 93 98 97 95 94 70 65 67 87 94 93 88 88 88 82 74 69 67 68 66 60 62 60 67 87 77 76 87 86 78 86 90 93 94 94 96 94 92 98 95 96 96 95
93 88 93 88 85 84 84 73 88 89 91 92 93 88 88 86 82 74 70 69 67 64 59 60 76 79 87 79 95 90 90 83 84 89 95 95 94 94 96 99 97 98 97 97
92 90 94 82 72 90 88 86 84 87 91 88 89 88 82 82 74 67 67 68 69 66 65 63 68 77 82 84 92 91 89 86 90 91 92 96 97 97 96 98 97 97 98 98
92 90 90 92 83 84 75 87 84 87 85 84 82 82 74 78 73 67 67 74 75 72 67 64 66 76 79 84 91 92 90 94 96 97 95 96 97 97 98 97 98 94 90 96
95 92 96 95 78 78 76 82 81 89 86 83 78 76 72 66 71 71 76 63 66 74 71 70 67 73 79 86 89 88 91 95 97 99 97 97 98 98 98 99 98 100 100 100

GFSCGP_sfc_rhum_090.txt.gz
RH
34 44 52 47 44 37 33 35 40 32 52 76 77 83 88 88 83 82 78 72 68 64 57 56 56 59 64 70 79 81 84 88 89 91 94 94 92 93 95 90 87 83 92 94
47 52 40 36 39 34 38 38 39 29 30 34 45 74 87 88 90 82 78 72 67 62 60 55 56 58 62 70 76 81 82 88 86 88 90 89 90 92 92 89 87 88 88 89
48 40 33 34 38 35 45 45 38 33 34 79 81 81 95 90 84 83 78 70 64 60 60 55 55 59 63 70 74 78 80 85 86 87 90 92 90 92 88 89 88 86 89 86
44 36 33 39 41 37 64 31 29 30 27 27 52 40 90 94 91 86 87 79 71 66 58 52 53 59 64 67 68 74 78 82 85 88 88 90 88 89 88 89 93 87 88 88
38 32 37 37 30 32 37 28 29 28 27 32 31 28 36 91 92 83 79 83 74 69 61 51 50 56 64 63 66 69 79 82 84 86 85 88 91 86 88 87 87 91 92 88
25 20 25 29 23 28 24 25 29 32 31 32 31 26 30 93 82 77 69 74 73 62 60 51 47 52 64 60 63 68 81 83 87 86 88 88 89 89 88 90 88 89 95 90
18 20 19 18 23 21 26 33 44 40 37 34 36 30 73 60 67 68 70 64 66 69 64 60 51 51 60 63 65 68 80 84 87 85 88 87 86 89 88 88 88 90 91 92
27 26 24 19 25 27 37 38 42 40 45 34 40 33 56 72 70 74 76 74 62 60 59 63 50 49 56 62 67 69 78 79 84 84 86 89 88 82 84 86 88 88 86 85
32 31 24 22 23 26 32 31 35 43 56 42 41 55 51 64 73 76 79 81 85 62 56 56 55 47 53 60 65 70 77 77 81 81 85 90 89 88 84 88 89 87 88 82
51 36 31 27 24 26 28 33 37 41 45 47 47 87 93 78 79 76 81 84 90 78 58 55 54 55 49 54 62 66 73 75 77 77 79 79 83 86 85 87 90 90 87 86
60 41 32 33 40 44 39 43 48 51 48 47 68 92 75 76 72 75 78 82 87 94 90 63 60 73 74 68 57 64 69 73 74 75 77 79 83 85 87 81 84 88 89 88
49 50 52 48 35 34 39 49 54 55 48 59 74 88 83 80 78 72 70 78 82 84 89 92 92 90 85 77 77 66 70 68 70 77 77 78 81 86 86 84 84 84 87 90
43 52 44 50 40 40 46 42 60 57 59 58 81 84 80 78 81 81 83 69 75 81 86 88 92 93 95 93 89 83 84 81 72 78 73 79 81 83 84 86 88 87 84 86
45 62 38 52 56 55 54 44 42 54 55 56 51 62 75 78 84 83 85 77 69 73 83 90 92 91 90 92 96 92 88 88 88 73 72 78 78 78 76 81 88 87 85 84
44 62 68 67 53 49 46 40 38 52 49 52 48 77 79 86 80 80 75 78 82 77 74 82 87 91 90 90 92 93 95 93 93 91 83 76 77 77 78 80 84 87 86 81
64 84 69 60 51 44 58 61 56 71 80 59 86 86 75 68 65 75 78 76 80 84 80 79 79 81 89 88 89 90 92 95 94 93 90 88 81 83 81 80 80 88 87 86
68 78 64 68 64 50 49 57 83 81 83 83 90 80 61 66 72 79 75 71 70 75 84 81 80 80 89 89 87 90 90 93 95 96 94 94 94 88 85 80 82 82 87 85
71 81 85 78 67 56 35 72 67 79 82 82 79 73 69 70 60 64 62 66 65 71 73 84 78 78 78 87 85 83 86 88 93 95 95 94 94 94 91 87 84 82 77 84
67 78 90 80 76 58 59 68 83 81 95 88 89 84 75 68 61 68 64 60 63 64 72 70 73 74 68 77 87 88 86 87 87 91 94 95 95 95 94 94 89 83 79 77
80 85 88 87 75 69 64 65 64 75 92 86 85 90 90 80 81 76 73 64 59 60 61 70 63 63 80 70 82 92 89 87 89 90 93 95 96 96 97 98 97 96 83 79
92 93 89 91 86 74 72 63 66 80 76 91 86 89 91 92 87 80 70 67 63 60 62 61 68 65 71 73 75 91 90 88 90 88 90 94 95 97 97 97 98 98 96 90
83 92 99 97 93 89 69 68 78 85 94 87 83 88 88 88 83 78 75 73 70 70 65 62 65 74 68 74 81 89 85 86 88 92 92 93 96 96 96 98 98 96 97 97
94 87 93 88 87 78 79 68 87 86 81 82 89 84 88 90 87 80 77 72 67 67 67 64 71 70 72 76 83 89 85 83 83 88 93 95 95 95 95 98 98 98 97 96
92 90 93 78 76 83 82 84 82 82 82 82 84 86 86 90 84 80 72 69 70 69 69 70 70 71 72 71 81 88 89 83 84 84 82 94 96 97 97 96 97 98 98 96
90 92 92 88 81 84 78 84 80 84 85 85 84 84 85 82 79 75 68 66 66 66 67 67 75 73 71 68 71 76 92 90 91 92 91 94 94 97 97 97 97 94 93 93
94 92 95 93 76 77 69 75 83 82 83 83 82 80 79 79 81 77 69 65 68 70 64 68 71 72 71 69 70 73 85 87 94 92 93 95 96 95 98 98 98 100 100 100

GFSCGP_sfc_rhum_093.txt.gz
RH
20 23 31 32 31 28 23 23 23 21 40 56 44 46 57 69 66 70 65 63 54 52 49 48 49 50 52 53 60 65 69 75 71 68 65 66 64 66 79 65 70 71 73 75
24 26 28 28 30 25 25 26 24 21 29 42 29 34 58 61 65 67 67 63 57 51 50 51 50 50 52 55 58 66 70 75 73 66 69 66 66 65 66 65 69 66 70 75
22 25 28 28 32 30 28 27 25 20 20 48 51 53 65 68 67 64 62 58 53 54 50 50 51 50 50 55 59 64 71 73 73 70 71 73 72 72 65 66 63 75 61 67
26 27 28 29 29 27 33 24 22 23 20 17 42 21 60 64 70 71 67 63 54 53 50 45 46 48 49 53 54 61 68 72 71 76 72 77 60 80 57 62 63 64 72 69
30 29 30 31 28 26 28 24 23 22 20 18 35 18 39 66 65 56 60 64 60 52 46 45 43 45 45 48 50 56 67 72 70 76 75 67 67 58 58 60 73 73 76 71
16 13 18 22 20 21 21 20 19 19 17 19 18 14 47 55 64 59 52 48 57 57 56 43 41 42 44 45 49 52 66 75 74 76 75 77 74 70 63 64 62 61 78 65
15 16 14 15 15 20 20 19 24 24 22 19 20 28 69 64 64 68 66 60 54 47 52 51 45 44 47 49 52 52 67 77 74 73 73 74 73 74 74 75 62 64 58 60
19 20 17 17 18 17 20 17 21 31 25 18 23 44 74 58 56 59 63 65 63 58 48 51 50 44 47 51 54 61 71 74 72 71 76 78 75 60 58 66 55 54 54 55
21 22 18 19 19 20 21 21 19 22 25 17 21 44 54 49 54 60 71 76 79 70 55 46 48 44 44 50 56 59 66 73 72 67 75 75 75 73 64 70 70 58 66 56
26 24 21 20 19 18 20 21 21 22 33 27 45 56 60 70 68 64 76 86 83 79 54 45 46 47 44 51 51 55 60 68 69 65 68 65 69 70 68 68 72 70 66 68
24 21 24 22 27 30 22 22 29 24 27 24 34 58 63 84 81 73 73 78 87 87 84 80 70 48 45 52 53 57 56 61 63 63 66 68 65 65 68 64 67 68 69 72
30 22 30 29 25 26 25 31 30 27 38 33 30 61 75 78 78 74 68 69 76 84 84 84 83 83 77 59 58 61 52 53 56 64 71 65 66 66 64 66 63 65 70 71
24 26 31 30 24 25 28 26 27 29 27 42 28 57 74 73 76 75 74 69 69 74 83 85 82 84 84 87 85 71 55 48 52 70 68 70 67 68 68 67 67 65 68 68
29 30 28 22 33 31 31 24 26 27 29 34 35 74 82 80 83 79 76 69 65 65 75 83 88 88 86 85 88 92 79 64 57 54 62 70 71 69 68 66 69 68 69 69
27 35 35 35 31 29 27 26 24 29 32 33 53 79 88 79 77 76 70 67 69 66 62 68 80 86 88 87 88 90 90 91 76 71 62 63 67 68 69 71 70 70 70 68
39 41 36 37 34 33 39 40 33 38 48 55 58 82 71 62 58 57 60 63 68 65 67 64 68 75 81 88 88 88 92 95 93 84 77 72 70 70 71 70 70 71 71 72
40 43 36 36 40 35 31 40 50 60 61 53 58 64 65 65 62 56 54 54 57 58 57 56 60 60 77 80 84 86 88 91 94 94 92 86 79 77 74 70 72 73 73 70
42 44 52 41 36 38 38 53 53 59 64 55 57 58 57 56 54 58 52 54 54 54 53 51 44 46 53 69 64 81 80 87 90 94 94 94 93 86 80 77 76 76 71 73
41 41 58 46 40 39 47 55 59 51 74 64 58 61 58 51 44 58 57 52 51 51 50 51 45 41 47 55 60 69 72 76 81 86 91 94 94 94 94 90 83 80 76 73
48 48 48 55 51 41 44 52 51 51 51 60 61 58 52 43 39 48 52 46 47 47 47 50 50 45 43 46 49 66 72 79 74 83 89 92 94 95 94 95 97 96 87 80
63 69 61 57 52 41 49 47 48 56 55 61 54 54 54 44 44 49 48 51 49 48 48 48 48 50 53 52 53 64 74 77 77 73 82 91 91 95 96 96 97 98 97 94
65 73 82 74 66 54 46 53 60 66 63 53 50 49 49 50 51 51 50 51 52 53 52 49 51 52 51 53 57 59 66 69 79 86 77 87 91 89 94 97 96 94 96 95
81 66 83 62 50 60 46 48 57 45 53 54 51 50 55 54 53 52 53 53 50 52 53 50 53 57 55 56 60 63 65 66 70 77 86 88 90 90 84 95 97 98 96 86
69 62 70 58 47 52 54 58 59 54 45 48 49 52 56 55 53 54 52 51 49 48 51 51 55 56 59 58 60 63 63 63 68 76 76 82 89 94 94 88 88 97 99 96
67 70 73 63 56 57 52 54 53 57 55 52 51 52 54 55 55 54 54 58 56 55 53 53 57 57 59 59 61 58 61 63 66 69 71 70 73 86 90 96 95 79 92 98
70 89 93 80 52 58 48 50 54 60 59 53 53 54 54 56 59 59 60 58 56 57 58 59 61 59 58 56 60 62 62 65 67 69 66 63 65 64 66 90 91 94 99 100

GFSCGP_sfc_rhum_096.txt.gz
RH
12 15 16 17 17 18 20 19 19 24 33 36 34 30 45 49 45 50 50 48 43 38 33 34 38 38 35 36 44 49 54 63 57 52 49 49 49 69 53 52 57 60 60 64
13 16 13 17 21 23 21 18 18 17 27 30 21 21 30 44 44 47 49 50 50 42 34 36 39 39 38 40 46 52 57 66 61 51 53 48 52 50 46 51 56 52 56 59
12 12 17 22 25 22 22 20 18 17 18 19 29 36 44 46 42 51 55 50 46 44 36 34 37 39 38 40 45 52 58 64 63 57 59 66 62 69 58 67 52 50 53 52
13 15 20 24 24 20 21 20 18 16 15 22 25 35 40 43 50 62 55 56 50 46 41 33 34 37 38 39 40 47 57 63 62 65 59 66 47 44 41 47 50 49 51 52
17 21 23 24 22 21 20 19 20 15 15 15 21 20 39 39 45 44 52 53 48 42 43 36 32 35 34 36 37 42 54 62 60 65 64 66 59 40 41 43 76 66 59 54
19 18 20 20 20 20 18 19 19 16 13 18 18 17 40 41 57 46 43 41 47 51 43 43 32 32 34 33 36 38 53 65 65 64 67 68 62 53 49 50 82 62 48 51
19 19 14 14 21 19 18 16 21 23 18 15 12 14 54 49 51 50 51 48 43 38 51 46 38 33 35 36 38 40 52 66 66 63 63 65 68 67 62 64 45 55 42 42
17 23 16 13 16 20 18 14 15 28 18 13 14 27 63 42 41 51 65 66 59 51 40 52 51 35 35 37 41 44 51 63 62 63 66 66 68 54 50 52 39 43 38 41
18 19 14 15 13 15 17 19 11 13 12 12 18 46 40 39 42 51 68 78 78 64 38 38 38 37 35 37 41 46 52 61 62 57 64 67 67 66 52 55 54 43 48 39
17 21 14 14 14 14 16 13 16 14 24 23 19 40 50 55 58 58 71 85 86 78 64 41 46 42 38 34 37 43 55 68 64 58 56 57 61 64 62 57 60 54 50 52
13 16 18 16 19 19 16 16 16 12 14 17 23 38 61 68 71 67 72 78 85 82 76 68 82 79 47 37 39 40 44 50 59 55 55 61 62 56 60 55 56 57 59 58
18 13 18 19 18 18 17 21 20 19 25 17 17 67 69 68 66 65 69 70 70 75 76 75 70 76 79 65 46 41 42 42 45 50 56 56 66 66 53 57 53 54 59 61
17 16 20 20 16 18 19 19 17 17 15 23 17 62 73 66 65 66 65 63 64 64 68 74 72 73 80 91 85 70 50 41 38 46 49 57 62 62 66 56 58 54 57 58
21 17 22 18 23 19 21 17 18 16 18 18 20 82 87 76 72 67 64 62 58 57 57 57 64 76 76 83 91 87 83 63 49 48 49 58 61 62 58 67 63 58 59 60
18 26 22 20 19 18 18 17 15 19 23 24 36 70 76 70 68 65 59 54 56 58 52 51 47 53 62 71 84 84 86 87 77 61 60 58 65 76 65 65 65 60 60 59
22 29 24 24 19 18 18 20 18 18 24 27 57 87 62 56 55 55 55 55 53 50 47 46 46 48 50 58 63 72 85 91 94 84 72 69 74 70 66 65 63 64 62 63
25 25 28 23 22 20 18 18 19 22 29 29 52 58 56 53 49 47 46 44 45 45 44 43 40 39 44 48 54 58 60 74 89 93 89 86 85 81 75 70 66 66 67 64
27 30 23 19 26 24 29 25 23 27 33 36 46 55 50 48 46 45 44 45 43 42 42 40 34 34 34 34 43 54 53 60 73 82 88 88 86 87 86 85 82 81 70 68
27 26 24 26 20 25 28 35 33 33 41 34 40 45 42 40 37 48 44 41 42 41 38 37 35 34 38 37 36 43 52 57 61 63 76 81 86 93 88 87 89 94 89 77
27 31 32 29 29 28 28 26 28 29 34 36 36 41 40 36 36 42 43 35 35 34 34 36 35 32 33 39 36 42 43 53 60 61 64 78 83 91 96 96 96 93 91 85
44 42 41 35 34 23 32 34 31 41 43 36 36 38 38 34 35 38 32 35 35 36 37 38 37 36 39 40 43 49 47 47 54 58 62 64 74 86 90 97 97 97 95 95
54 56 68 45 45 42 32 37 40 47 43 40 37 34 34 33 33 34 35 37 37 38 37 36 39 41 40 42 47 52 55 52 56 57 59 65 68 58 54 77 94 93 95 93
69 45 65 39 37 43 33 40 42 36 40 36 35 32 33 32 34 36 38 39 37 37 37 35 38 44 44 45 50 55 60 59 58 57 58 62 66 64 61 66 71 84 82 95
42 43 45 44 30 38 35 40 38 32 32 32 32 33 36 37 36 37 36 36 37 38 40 39 42 45 48 49 51 55 56 57 58 59 58 54 57 63 63 53 48 56 63 60
45 47 50 45 37 39 40 39 39 40 35 33 33 34 36 38 38 37 37 40 40 42 42 43 48 49 51 50 53 50 53 55 56 54 51 52 46 52 53 54 59 70 69 69
48 68 77 59 32 39 33 37 37 42 43 38 36 37 38 39 39 40 41 41 42 45 46 47 51 53 54 56 57 58 56 56 58 54 47 41 40 42 43 46 45 78 93 94

GFSCGP_sfc_rhum_102.txt.gz
RH
14 13 13 11 12 14 15 18 24 24 37 45 52 76 75 70 66 41 33 30 30 33 31 27 26 28 32 42 50 55 65 72 68 65 67 79 68 70 70 94 79 77 74 68
12 12 8 8 10 11 13 19 23 44 40 49 57 66 67 74 68 53 36 34 38 44 35 31 29 30 34 46 52 60 69 72 71 64 76 82 87 73 72 74 70 68 66 69
13 9 7 8 9 10 11 15 23 73 35 43 54 80 74 84 77 79 41 33 35 43 46 31 32 32 33 46 53 60 71 72 73 68 81 92 88 85 83 76 71 65 66 64
11 8 8 8 10 11 15 15 25 34 38 52 42 85 60 71 89 94 62 51 41 42 47 31 32 31 32 43 46 60 69 73 70 74 74 81 83 85 79 77 72 66 71 68
10 10 8 10 11 11 16 12 15 14 19 40 38 40 63 71 86 86 74 49 45 40 42 34 32 34 33 37 42 55 67 74 74 77 78 87 96 95 91 88 78 78 82 72
10 7 8 10 11 12 12 14 15 15 14 30 31 29 66 92 91 48 47 47 46 43 39 38 36 33 35 34 39 51 66 76 75 73 76 80 87 93 94 85 90 82 70 69
12 10 8 10 14 13 12 17 26 25 22 19 24 28 60 75 71 91 65 70 60 58 44 38 37 36 39 38 40 52 68 77 75 72 71 75 75 94 96 86 77 83 76 70
15 18 11 12 15 16 16 18 22 32 22 16 23 54 60 56 70 80 62 63 64 76 90 53 41 48 45 41 42 52 69 76 73 71 75 78 78 85 74 69 77 78 87 90
16 16 12 13 13 17 17 20 12 14 12 13 43 59 56 50 59 63 66 66 64 66 50 81 54 41 44 51 53 53 68 74 73 69 75 77 78 77 66 70 72 65 92 75
18 24 14 12 13 13 16 12 17 16 27 24 48 53 58 62 65 69 74 75 73 67 67 58 71 78 84 86 89 71 64 72 73 67 75 69 73 75 75 76 70 74 80 96
13 20 16 12 15 16 16 16 16 13 14 20 52 68 44 52 60 70 74 76 73 71 68 75 77 80 85 86 90 95 86 70 73 69 71 71 70 70 74 70 69 71 72 87
13 14 22 15 11 10 10 14 14 19 25 18 59 78 54 47 52 60 68 70 66 66 64 69 72 83 91 93 94 96 95 95 93 82 73 70 74 72 69 71 68 70 74 74
18 16 22 18 14 12 15 13 12 11 12 26 37 71 52 53 59 59 60 61 63 62 61 61 66 74 85 90 95 96 94 96 94 84 80 75 72 68 75 73 71 70 74 74
29 14 20 31 25 14 16 14 12 13 18 17 50 78 70 65 68 63 60 57 56 60 59 59 61 65 73 77 83 91 95 96 95 94 96 87 80 79 78 78 77 76 76 75
14 21 16 16 16 13 13 12 13 16 17 28 62 66 71 63 65 60 58 57 55 56 54 54 54 58 63 71 74 76 83 92 95 94 93 95 94 89 78 78 78 75 73 71
17 27 20 20 13 13 14 12 12 11 11 37 44 59 56 57 58 60 57 52 50 46 45 47 50 54 60 64 67 72 81 84 79 87 94 94 92 94 94 91 83 80 77 77
22 25 26 26 16 14 17 14 12 12 12 18 50 51 50 58 58 58 55 48 47 44 41 40 40 43 45 50 57 66 73 78 82 84 80 90 92 93 96 93 94 90 85 85
24 31 27 26 23 27 14 13 11 11 11 17 34 46 47 46 49 48 46 43 41 40 38 37 32 34 35 35 40 52 56 71 80 81 82 80 85 86 93 94 94 94 95 93
15 25 24 27 22 17 15 19 15 13 13 28 42 45 44 41 40 46 39 39 40 39 37 34 31 30 38 37 41 49 50 56 63 67 71 71 76 82 84 90 96 94 95 96
16 22 27 24 25 25 31 16 13 13 22 19 36 45 48 46 59 52 39 34 32 31 33 34 30 28 34 38 36 48 48 54 61 63 65 66 71 74 77 77 83 88 88 89
27 28 27 26 30 24 22 20 16 26 35 21 32 39 43 54 47 45 34 33 31 30 31 31 32 36 41 41 45 51 54 56 58 58 63 67 67 72 74 69 77 81 80 82
36 36 38 29 30 32 23 24 30 42 29 24 25 54 54 40 36 34 38 34 31 32 29 29 35 40 39 43 53 58 63 64 65 65 63 68 70 61 54 73 76 78 81 83
49 35 44 38 40 36 25 33 31 28 33 32 34 29 32 30 30 30 32 32 31 32 33 31 36 41 43 50 57 58 68 66 65 66 68 68 69 66 68 72 75 69 75 73
31 27 37 37 35 32 28 29 29 28 30 28 28 26 26 26 26 29 30 31 31 32 34 34 38 42 47 55 58 64 65 67 67 69 68 64 63 65 64 54 52 51 52 56
31 36 36 38 34 29 27 26 28 27 26 26 24 24 25 24 27 29 31 34 33 36 36 40 44 45 48 52 57 55 63 66 65 64 62 62 54 58 55 54 50 48 54 53
38 40 59 50 34 37 32 27 27 30 28 26 26 25 24 25 28 29 31 33 35 39 43 44 48 49 52 54 57 61 63 67 69 64 57 52 50 47 46 45 45 55 71 69

GFSCGP_sfc_rhum_105.txt.gz
RH
19 25 27 20 17 16 18 27 39 39 48 67 79 88 69 78 87 86 46 40 37 35 39 37 37 44 51 58 58 75 72 84 77 82 90 94 94 97 95 91 82 77 84 79
25 27 17 12 12 14 15 22 62 71 66 72 80 89 80 80 83 85 68 41 38 43 41 37 39 46 50 61 66 78 82 81 74 85 84 88 95 93 90 90 84 82 81 81
23 17 12 10 11 12 16 21 59 64 68 87 74 86 87 79 82 88 76 60 36 44 42 39 39 48 52 61 72 80 82 81 84 87 87 95 94 94 93 89 91 84 74 73
16 13 11 10 11 11 19 20 53 64 72 90 62 98 89 79 80 84 81 83 57 48 36 37 41 49 52 58 64 81 82 81 82 83 86 73 94 91 95 88 80 85 76 79
17 12 13 11 11 10 15 35 49 53 69 63 63 86 84 78 81 81 85 82 68 48 44 48 38 43 50 53 60 77 82 85 78 84 89 94 92 92 93 95 88 87 82 79
13 9 10 12 8 9 12 15 35 63 87 94 65 64 98 91 82 84 77 70 72 53 46 43 35 36 48 49 58 70 82 89 86 83 83 90 74 79 92 92 93 91 90 83
16 11 11 9 16 16 18 26 44 50 94 68 48 60 82 86 78 88 81 78 75 65 44 49 48 40 45 50 58 65 85 92 86 86 84 88 86 88 93 89 91 91 90 92
26 22 14 12 17 22 28 25 47 60 42 32 37 92 98 74 82 87 90 91 80 80 80 77 76 62 59 48 58 63 81 86 89 85 88 91 92 94 76 86 93 94 94 90
31 22 13 13 14 22 28 34 22 44 31 36 90 85 75 72 78 77 87 91 91 88 87 86 89 86 67 69 59 65 74 81 86 86 92 90 95 92 84 82 86 94 94 89
31 36 21 17 17 20 30 24 32 34 46 48 90 78 88 86 79 77 80 84 91 90 89 91 96 95 92 90 91 93 93 95 86 80 89 91 91 90 90 88 88 95 91 92
30 37 31 18 28 28 26 30 36 30 36 38 86 98 79 81 80 80 80 76 76 86 92 93 94 96 95 93 93 94 94 93 90 94 95 89 91 90 89 88 88 86 93 92
29 28 39 29 17 15 20 22 28 41 38 45 76 99 87 76 76 79 77 72 69 77 84 91 92 94 97 96 96 96 97 95 94 93 95 93 90 90 91 91 84 88 92 95
28 40 42 37 39 19 23 20 24 22 22 31 44 96 86 76 76 73 73 69 70 71 76 80 87 95 94 98 96 98 95 96 96 97 97 96 92 90 91 88 84 82 83 84
42 23 42 55 45 32 25 19 19 34 32 67 84 90 87 75 76 70 68 64 65 68 69 74 78 82 87 91 97 97 98 97 98 98 97 98 99 96 92 92 90 90 84 84
24 39 29 26 23 21 17 16 16 26 45 52 86 80 78 74 73 68 65 66 65 62 63 65 71 78 75 78 83 90 97 98 97 97 99 98 98 97 98 98 92 86 87 89
27 37 32 35 19 16 17 15 15 16 50 66 73 88 70 71 67 64 63 55 56 54 49 62 64 59 74 75 74 77 83 90 87 92 97 98 98 97 97 98 98 97 90 86
37 44 49 40 32 26 27 20 18 18 17 53 82 78 71 75 70 64 58 50 53 55 55 49 54 62 60 65 70 75 78 79 81 84 88 93 96 98 98 97 97 98 98 98
40 44 48 49 38 51 28 20 17 17 16 45 62 67 65 65 64 55 51 49 52 53 51 49 51 52 53 57 61 67 71 83 86 84 86 88 89 91 93 96 97 97 98 98
31 39 51 50 45 36 25 22 20 26 55 52 63 62 56 56 52 56 45 47 55 54 51 47 51 54 56 56 59 65 70 76 74 75 72 71 75 87 87 90 94 96 97 97
30 37 46 53 51 47 40 23 19 23 80 56 53 58 58 51 67 62 44 41 45 46 46 47 49 50 56 57 60 66 74 74 77 78 79 76 78 80 81 84 83 91 89 90
47 48 50 47 53 46 36 26 23 39 60 54 52 56 59 66 64 55 43 46 47 45 45 49 56 59 63 66 70 75 80 82 79 76 75 76 78 80 76 78 88 85 88 84
64 61 64 52 58 63 39 39 61 57 68 67 72 63 58 48 45 42 39 43 46 47 44 52 58 59 68 68 71 80 84 82 80 80 79 79 76 72 66 80 79 82 87 89
66 66 75 67 74 54 49 51 48 53 59 68 59 56 61 45 40 44 42 44 47 48 49 52 56 66 72 74 81 86 85 81 81 82 83 82 82 80 80 84 81 70 82 92
48 47 59 62 62 50 46 45 43 44 53 44 50 57 51 49 47 55 50 50 52 52 53 57 61 66 74 76 76 80 82 82 83 86 84 82 80 76 76 77 76 79 76 77
61 60 52 53 51 46 44 44 41 37 38 35 36 34 34 41 44 48 56 52 55 56 63 59 66 75 80 79 77 81 80 83 88 88 82 82 78 76 73 68 75 71 66 69
79 83 89 78 65 58 56 50 42 41 40 41 37 37 34 35 43 47 56 56 61 67 61 70 72 72 74 73 78 81 83 82 91 93 88 86 80 72 71 73 73 69 72 74

GFSCGP_sfc_rhum_108.txt.gz
RH
25 25 28 24 24 21 23 28 52 61 68 70 86 90 93 88 75 67 72 74 45 44 43 45 52 52 54 60 70 71 76 87 89 99 97 98 97 97 96 95 85 81 88 79
28 29 22 19 18 18 20 25 65 78 70 82 88 90 86 84 79 72 74 68 46 47 50 48 56 54 55 64 73 79 78 80 80 88 92 95 96 97 93 92 88 85 85 80
31 24 18 19 19 17 17 27 71 74 74 76 80 88 91 86 76 85 85 76 63 47 48 51 56 57 56 69 77 78 83 77 82 88 96 95 96 98 96 95 94 88 81 80
24 18 18 20 19 15 20 14 43 69 71 83 75 90 94 84 85 88 87 82 74 45 42 48 54 58 56 67 68 77 80 86 89 90 87 80 94 95 95 94 90 88 79 84
21 18 17 17 15 12 14 45 58 57 75 74 83 90 88 82 87 82 86 80 74 61 42 46 54 56 54 63 69 72 78 87 88 90 89 90 91 95 95 95 90 92 90 83
21 16 14 13 12 11 36 51 63 77 88 90 69 87 95 92 79 74 78 82 73 69 64 54 52 53 54 58 71 72 81 89 86 87 92 90 81 89 93 94 95 96 94 90
26 24 14 11 15 17 23 50 72 88 83 81 73 80 88 78 74 72 80 82 82 74 74 70 63 54 58 62 71 76 86 93 90 86 92 90 85 87 88 89 94 94 93 94
35 34 18 14 16 18 27 28 58 68 75 71 51 81 83 79 82 82 78 87 86 80 88 86 75 60 61 60 64 74 86 94 90 87 90 90 88 96 88 89 93 95 95 93
38 34 20 18 15 18 25 33 30 51 39 64 94 94 86 86 87 87 91 91 93 94 95 90 88 88 78 70 67 72 86 93 90 92 94 94 93 88 77 81 90 96 94 86
41 36 28 21 20 24 27 23 28 33 48 53 94 93 97 92 91 90 90 97 97 97 98 94 96 97 95 96 87 88 94 97 95 95 97 95 94 91 85 88 91 94 91 90
52 42 30 29 32 31 30 33 30 32 40 46 92 92 88 87 84 88 83 88 96 95 98 97 97 98 97 95 95 94 93 90 90 93 95 94 96 94 95 96 95 90 92 91
41 44 52 38 26 21 27 31 39 39 35 72 94 99 87 84 84 78 79 76 89 92 95 97 98 98 98 98 97 97 96 94 93 96 98 98 96 96 95 94 94 91 89 90
37 40 61 44 32 25 24 26 38 34 42 75 90 98 90 87 84 76 78 84 86 89 91 95 96 98 98 98 99 96 97 98 97 96 98 98 98 96 94 94 94 94 91 93
41 47 59 63 48 38 33 22 27 34 55 80 94 97 98 89 88 77 80 83 84 85 85 87 94 97 98 98 99 98 98 98 98 98 98 99 98 99 99 97 96 95 92 88
36 45 47 37 28 23 24 19 18 25 49 52 93 88 88 82 81 77 72 74 78 82 80 77 78 82 86 92 99 99 99 99 98 99 98 99 98 98 98 98 99 98 96 94
34 40 45 39 25 27 24 20 26 54 67 80 89 93 74 69 67 70 65 66 68 71 69 74 77 73 78 78 78 87 94 94 92 98 98 98 97 98 98 97 98 98 99 96
47 45 47 47 34 31 30 27 22 38 68 77 92 87 73 74 68 66 61 54 56 62 57 57 59 57 59 72 79 81 84 84 90 88 86 94 95 96 97 98 97 97 98 99
45 50 50 55 40 42 27 25 21 40 63 68 80 78 72 68 61 56 52 52 55 53 54 56 60 58 54 57 65 77 74 71 71 73 80 80 90 93 94 95 96 97 98 99
34 50 54 52 66 37 28 25 27 64 86 72 77 75 72 66 55 56 46 45 49 55 59 62 57 59 58 61 70 71 72 70 70 72 76 77 76 80 86 92 95 97 98 98
38 47 46 58 56 47 45 28 28 45 89 75 70 73 70 60 78 69 48 43 46 51 54 58 59 60 64 73 77 77 80 79 82 81 81 81 81 79 79 76 83 90 92 90
52 54 47 58 58 53 44 43 41 42 59 74 68 70 68 71 72 55 46 45 44 51 55 59 64 71 75 77 80 85 88 91 88 83 82 82 82 82 77 78 79 80 82 91
71 60 65 61 63 70 47 46 61 66 88 79 85 79 82 69 51 49 46 45 47 56 56 57 68 77 81 81 82 89 90 87 84 84 83 84 83 78 74 84 76 75 76 83
64 66 77 74 82 64 56 62 69 72 82 86 78 72 64 61 56 50 50 50 52 55 60 64 71 79 84 82 82 90 91 88 88 89 90 88 84 80 79 83 78 76 78 78
67 60 78 76 71 64 51 50 53 58 68 67 65 70 64 62 57 63 58 52 50 57 62 68 75 84 88 83 85 91 89 90 92 93 94 94 93 86 84 79 78 81 74 75
82 77 70 70 67 56 49 49 44 45 48 50 58 56 55 55 59 49 54 59 58 64 67 74 81 86 86 85 91 90 87 87 94 94 95 95 95 94 90 82 83 77 74 78
84 78 91 92 80 66 57 52 50 40 44 42 39 39 45 50 55 56 56 62 60 66 73 78 81 80 81 84 90 89 87 90 92 93 91 94 92 95 84 84 79 76 80 76

GFSCGP_sfc_rhum_111.txt.gz
RH
31 27 32 27 25 24 25 27 52 76 64 76 84 95 93 87 69 72 70 69 58 62 57 60 62 65 70 77 81 87 87 95 95 98 97 96 94 95 96 96 90 88 88 83
32 33 23 20 21 21 23 26 89 79 79 84 91 89 96 90 88 80 77 78 55 58 62 67 65 64 68 72 79 85 88 95 93 94 96 96 96 97 95 94 92 89 87 81
35 27 20 21 25 24 24 21 48 86 74 71 85 92 90 87 82 77 78 75 71 53 63 64 65 63 66 71 78 80 88 88 90 91 97 98 97 97 96 94 95 93 86 80
29 22 22 24 25 20 30 16 24 77 82 87 77 89 95 95 92 79 74 80 83 67 63 63 62 62 64 66 71 76 86 85 88 95 90 90 95 97 96 93 94 91 85 88
24 22 24 24 21 16 20 22 21 68 81 88 92 90 86 93 96 85 77 70 78 72 59 62 60 58 58 64 70 75 87 89 92 93 90 91 93 95 96 96 92 93 91 89
23 19 19 19 15 15 48 60 73 84 89 85 81 73 94 93 87 76 69 72 84 72 72 66 56 53 56 67 71 73 88 94 94 93 91 90 88 92 97 96 96 96 96 94
28 27 22 16 20 26 57 70 93 88 91 86 86 86 79 82 76 77 75 81 82 84 82 78 68 56 61 72 73 75 89 93 94 91 92 90 87 91 93 93 96 96 96 96
38 36 21 16 17 19 67 49 67 71 85 76 89 87 94 87 84 87 80 72 86 88 84 86 78 68 59 67 76 74 88 92 94 91 94 92 89 94 94 91 95 96 96 94
41 37 24 18 18 19 31 38 35 58 66 64 91 90 84 89 92 96 97 91 92 93 89 86 84 83 70 76 76 76 86 94 95 92 94 93 90 90 93 91 92 95 94 89
40 41 31 25 24 28 25 28 38 46 59 58 90 94 96 97 91 86 98 98 96 95 95 90 92 94 91 84 83 88 92 96 96 96 96 95 93 92 86 91 92 93 94 92
57 45 32 31 34 38 32 36 39 37 46 57 84 93 93 94 94 93 91 89 98 95 96 95 97 96 98 97 97 98 96 95 95 95 94 93 95 95 94 92 92 95 95 94
44 49 50 37 29 30 33 43 39 41 44 88 92 91 92 89 89 90 95 96 93 93 94 97 98 99 98 98 97 96 95 93 96 97 96 96 96 96 97 96 94 94 96 94
39 45 57 40 42 32 33 26 51 38 52 79 80 94 90 85 85 84 95 94 95 96 96 97 98 99 99 98 98 98 97 97 98 98 98 99 99 98 96 96 95 93 92 90
41 54 60 63 41 37 38 33 27 38 58 89 86 98 99 91 92 88 91 88 91 92 94 98 98 99 99 98 98 99 99 98 97 97 98 99 97 99 99 97 97 96 94 92
39 44 52 62 43 32 31 25 27 32 44 49 85 92 94 87 83 86 86 86 86 88 83 88 94 96 98 98 98 99 99 99 99 98 97 97 98 98 98 99 99 99 98 97
41 51 52 56 50 29 28 27 28 67 79 90 80 81 76 76 80 83 82 81 84 82 79 76 78 80 85 93 96 97 98 99 98 96 97 97 98 98 98 98 98 98 98 98
47 50 56 60 47 34 42 30 31 63 74 78 86 78 76 80 84 83 79 75 77 72 72 62 60 66 81 84 89 89 85 84 91 92 92 96 95 96 97 97 97 98 99 98
46 56 65 66 52 60 34 24 33 72 78 81 85 82 73 76 75 72 66 68 63 60 57 58 60 66 79 84 83 79 71 68 73 78 81 81 87 92 94 94 94 96 97 97
45 53 61 63 72 45 36 30 31 57 89 82 82 79 74 65 61 60 52 55 59 61 63 62 62 65 70 68 63 64 65 66 69 72 80 80 82 84 83 90 96 96 97 97
45 49 49 66 57 59 58 30 38 55 78 81 76 81 74 64 85 78 52 53 56 56 57 63 66 70 71 75 67 73 74 72 76 76 80 82 79 81 84 84 82 88 92 94
52 60 49 63 62 53 44 40 41 52 54 84 77 81 75 74 77 61 53 57 54 55 61 67 70 78 84 85 74 83 81 88 83 82 81 80 80 81 83 83 81 76 72 76
57 60 64 65 64 66 50 47 47 55 90 91 90 84 89 83 60 54 57 59 58 64 68 68 77 88 91 83 79 90 93 92 87 83 84 87 88 80 76 85 81 78 77 73
72 68 80 70 77 66 62 78 76 78 87 92 91 90 79 74 67 57 59 63 64 66 73 76 82 87 90 89 85 90 94 91 89 89 93 96 92 87 86 85 85 85 81 73
75 69 84 78 70 68 56 57 66 72 77 84 83 78 77 76 70 75 71 66 66 68 75 79 81 86 91 93 89 94 93 92 93 94 95 96 95 96 96 87 84 86 81 75
81 80 74 79 77 61 52 53 66 67 66 67 72 71 71 70 67 60 60 60 61 68 70 78 81 87 94 93 93 91 90 92 93 93 93 93 94 96 95 93 92 86 89 88
86 77 85 89 75 70 69 68 55 62 63 62 58 62 61 54 58 54 55 54 62 73 78 82 85 86 93 93 92 91 91 91 91 93 93 95 96 96 94 95 91 82 83 84

GFSCGP_sfc_rhum_114.txt.gz
RH
35 33 39 28 27 26 26 28 42 84 70 78 89 93 84 83 70 72 72 62 62 64 67 70 71 74 79 85 89 88 89 91 96 98 95 96 96 94 95 95 89 89 89 85
32 34 25 23 23 24 27 29 86 84 80 83 89 91 95 83 74 68 75 85 61 63 74 76 74 76 80 84 86 91 89 94 93 93 94 95 95 95 92 94 90 89 88 85
38 32 22 22 25 23 28 27 83 83 83 81 81 90 90 88 89 73 80 81 78 67 70 72 73 76 77 82 86 88 90 92 92 92 97 98 97 97 96 94 94 90 87 82
32 26 24 27 27 24 35 19 37 82 81 90 82 90 92 95 95 86 79 81 88 82 70 71 71 73 73 76 80 86 90 92 90 96 93 91 95 96 96 91 91 90 87 86
29 24 29 30 24 21 24 33 37 71 85 85 85 83 78 94 98 95 77 79 86 75 69 66 68 68 67 68 75 81 90 91 91 95 92 91 94 94 94 96 92 94 91 86
26 23 20 22 20 19 53 60 74 83 86 85 77 74 87 92 86 87 76 71 82 80 75 71 71 73 68 66 74 82 90 92 93 94 92 94 92 93 96 94 95 95 95 90
30 28 27 20 24 40 66 75 91 91 93 87 87 88 84 93 80 80 75 71 73 83 82 76 72 67 65 75 80 82 89 93 93 92 91 91 93 92 92 92 94 96 94 94
40 36 27 19 23 30 65 60 74 77 87 76 90 90 86 95 92 76 71 63 72 91 86 81 79 70 66 76 82 82 91 93 94 93 93 92 91 94 96 94 92 94 95 92
48 37 26 20 18 29 54 61 48 64 71 85 92 92 92 89 94 88 75 74 86 84 84 82 82 85 74 74 83 84 90 92 94 92 94 94 94 92 92 93 91 94 93 87
41 44 34 26 28 30 37 36 44 54 65 65 95 94 94 96 96 93 93 88 88 89 86 86 87 90 87 81 82 86 92 93 94 93 94 96 93 91 92 94 95 93 93 90
46 46 33 34 37 44 36 41 43 43 56 66 86 89 92 90 86 88 86 95 96 92 88 87 90 94 95 95 90 94 94 96 97 96 94 95 96 93 92 92 95 94 92 93
47 49 50 40 34 35 37 47 43 46 56 87 82 88 88 87 83 81 87 88 98 96 94 95 94 95 96 98 98 97 98 96 97 96 95 94 92 92 96 95 92 95 96 94
32 50 53 41 40 33 36 37 49 46 78 88 59 80 89 90 97 92 91 88 92 93 97 96 97 98 97 98 98 98 97 97 97 96 96 97 96 97 97 95 95 94 93 93
44 60 51 59 47 41 38 33 34 43 58 81 75 93 98 94 99 98 96 91 92 92 96 98 98 98 98 98 99 98 98 97 98 96 97 96 96 96 97 97 95 94 92 90
37 53 66 54 42 37 36 30 35 34 46 47 68 90 85 93 96 92 90 89 88 89 93 95 97 99 98 98 99 99 98 99 99 97 97 98 98 97 98 97 97 98 96 95
46 56 65 54 43 36 31 32 39 79 88 91 92 94 91 90 90 93 90 85 87 85 82 85 91 97 98 98 98 98 95 97 98 98 98 96 96 96 98 97 97 97 97 97
47 46 53 62 48 34 40 38 39 55 81 83 91 86 88 94 93 89 86 82 84 84 76 82 90 96 98 98 98 98 98 97 95 93 92 94 95 95 96 95 96 98 98 96
46 56 55 64 59 63 42 30 66 88 86 83 86 90 87 88 88 83 74 77 76 68 74 79 91 95 94 93 92 90 91 91 84 80 80 83 87 90 93 96 95 96 95 96
45 55 61 56 65 52 37 35 40 57 76 85 91 86 84 79 72 72 68 66 66 66 64 73 79 79 80 83 82 86 91 87 77 76 82 82 83 85 86 89 92 94 95 97
42 46 48 64 58 52 54 40 43 60 60 84 83 85 82 72 90 87 65 67 63 61 68 74 67 69 78 81 75 76 72 75 79 76 78 78 80 84 86 86 84 85 88 93
54 62 48 67 60 55 49 53 48 49 50 87 83 84 81 85 83 76 66 61 64 66 69 70 71 75 74 67 66 73 73 78 74 73 76 77 77 79 83 83 81 80 81 79
52 61 63 66 62 60 61 53 51 54 82 92 89 88 85 85 72 75 67 67 70 76 76 76 80 79 77 76 74 82 86 83 83 83 84 86 84 74 72 81 80 80 81 81
75 64 75 58 65 61 67 74 80 82 80 90 92 90 83 75 75 76 78 70 74 76 81 82 80 85 85 81 80 84 90 86 85 86 86 86 85 82 82 81 82 75 79 74
77 78 86 76 75 73 61 62 70 74 83 86 90 84 79 80 77 80 79 71 72 75 82 80 82 86 89 88 87 89 89 85 84 86 87 85 83 82 81 76 76 76 76 76
80 80 78 77 72 66 60 64 69 78 83 81 79 77 77 76 71 76 79 75 70 74 76 76 80 85 89 89 88 87 88 84 84 85 82 85 82 85 81 79 80 74 77 79
85 79 86 87 71 66 65 69 63 76 78 78 74 74 71 68 63 68 75 69 67 75 79 80 82 84 88 87 88 89 87 85 86 86 83 84 81 82 77 77 75 84 82 86

GFSCGP_sfc_rhum_117.txt.gz
RH
23 31 37 26 19 19 21 19 35 60 58 62 64 66 66 73 79 79 78 58 53 53 50 50 57 54 57 62 70 72 75 76 68 72 68 66 64 67 66 66 70 70 69 68
28 37 26 18 17 17 17 19 64 71 68 64 68 69 66 65 69 67 80 72 65 52 54 56 60 56 58 64 68 73 75 79 72 65 68 65 68 64 61 68 69 67 68 68
33 27 18 18 18 18 18 18 56 56 70 64 63 79 78 68 68 68 83 77 67 55 51 56 57 58 57 63 67 71 75 75 73 71 69 74 72 81 67 68 66 66 67 65
28 19 18 18 18 17 20 15 32 62 54 54 65 64 84 74 74 72 82 83 73 63 55 49 53 55 56 59 61 67 72 74 75 79 71 78 64 70 76 75 73 70 68 68
24 20 21 21 19 18 19 19 22 40 55 50 64 50 57 78 83 80 71 72 80 66 58 54 51 52 51 56 58 61 71 77 75 79 75 67 82 80 62 72 79 80 79 71
18 16 16 16 16 16 40 35 46 53 54 47 40 43 56 85 72 67 62 58 68 68 57 51 52 54 54 53 57 58 71 78 77 80 80 81 77 82 86 76 65 77 64 64
21 19 17 16 17 23 47 35 60 66 62 43 51 57 40 59 60 61 63 59 59 74 57 53 57 56 56 56 57 58 71 78 76 76 79 78 78 77 78 77 86 87 62 71
22 19 18 17 18 20 37 27 25 42 46 34 63 57 47 66 64 58 58 57 67 66 63 60 52 52 54 58 59 61 69 75 73 73 77 79 81 68 69 70 60 62 64 87
28 25 20 18 14 18 33 37 22 34 41 38 54 55 62 71 67 61 60 61 70 68 66 66 57 52 52 62 62 62 69 74 73 69 81 82 80 78 72 78 74 63 71 76
24 26 20 19 19 20 25 21 24 31 48 42 64 63 49 77 72 64 61 59 59 64 67 70 66 63 61 67 58 62 70 75 73 76 74 82 76 77 75 75 77 76 76 73
24 25 23 24 24 24 23 24 26 23 29 30 45 53 70 66 67 75 59 54 58 62 67 69 72 68 66 70 71 69 72 76 72 75 80 83 82 73 75 74 78 78 78 77
25 23 25 24 23 23 21 25 24 26 39 38 38 41 67 68 64 68 72 72 60 57 63 69 74 77 75 77 79 82 75 76 75 70 78 81 79 82 76 76 72 76 77 79
24 28 24 25 21 21 23 22 21 25 35 43 28 34 77 68 69 74 77 77 77 75 74 78 82 85 82 87 95 95 91 88 84 84 81 79 78 78 78 77 77 75 76 81
38 32 31 20 28 25 26 24 23 19 28 32 32 53 86 82 78 82 81 77 84 78 80 77 81 83 96 93 92 94 96 90 86 84 92 88 84 85 88 86 80 79 78 79
25 34 34 30 26 24 25 27 41 27 25 29 33 47 55 74 80 82 87 85 87 91 90 91 91 94 97 98 98 97 95 95 88 89 90 93 89 86 87 90 88 82 81 78
30 39 36 35 31 32 25 23 32 42 45 43 45 47 58 63 72 83 87 88 86 84 87 86 92 95 98 96 98 98 98 99 97 94 91 93 89 89 94 94 93 90 88 88
34 34 35 34 36 33 31 27 28 46 56 56 47 58 67 75 78 84 84 81 82 81 82 89 93 97 98 96 96 97 98 98 96 97 95 96 94 88 88 90 94 94 91 89
40 44 39 30 38 45 30 32 37 47 59 56 56 61 65 75 74 78 68 71 72 74 86 95 96 96 96 96 96 96 97 95 93 93 88 88 94 89 88 84 84 85 81 85
35 38 40 35 30 34 29 33 34 31 30 47 60 67 68 71 73 82 66 67 71 81 88 92 94 94 95 95 94 94 95 90 80 86 87 79 76 77 78 83 82 86 84 83
30 38 28 44 34 33 36 32 35 41 36 57 63 68 70 70 87 89 68 68 72 77 82 86 89 91 90 93 90 90 92 92 89 81 85 77 72 75 75 77 80 78 84 83
35 39 31 38 37 33 36 42 38 41 39 56 64 66 68 69 57 71 69 75 73 77 76 81 85 83 86 76 72 76 81 86 76 84 83 80 74 79 78 76 72 70 69 70
37 39 41 42 39 35 48 41 39 54 55 66 68 66 69 67 67 66 62 71 74 74 70 68 72 78 70 70 70 74 79 78 82 82 78 81 81 69 67 73 71 72 71 78
58 41 43 38 36 52 50 57 57 59 64 71 73 71 67 70 72 68 65 60 72 73 69 60 66 72 70 70 68 73 80 80 78 78 79 78 77 72 74 75 73 64 68 57
55 55 60 60 56 50 47 49 57 64 64 66 70 65 64 73 75 72 71 61 62 61 60 56 57 59 64 66 67 71 72 73 71 76 75 70 69 72 67 59 58 59 56 55
57 57 57 54 53 49 44 48 52 66 68 67 64 60 65 65 68 75 87 72 73 66 60 56 58 59 64 63 65 63 67 66 67 69 64 64 61 62 61 62 60 58 68 67
62 61 68 61 54 52 53 53 50 58 65 65 64 65 61 61 64 70 90 95 87 77 67 61 62 62 63 61 64 66 63 64 62 62 57 55 53 52 50 49 53 85 85 87

GFSCGP_sfc_rhum_120.txt.gz
RH
13 19 25 21 18 17 24 24 28 38 41 50 60 54 56 75 79 78 69 56 36 36 35 37 38 39 42 45 51 56 58 65 57 53 49 48 46 47 46 43 53 55 52 55
18 22 18 21 16 16 20 21 30 43 45 48 50 53 56 61 70 65 67 44 39 37 40 43 42 40 42 48 52 57 62 68 59 51 52 47 46 43 42 44 53 50 52 55
12 14 20 19 17 18 16 18 32 34 47 41 47 66 64 63 60 54 70 59 53 49 37 40 44 41 42 47 52 57 62 64 65 59 54 59 63 73 67 51 50 50 51 51
13 16 20 20 20 18 20 14 28 38 36 51 39 69 65 59 63 54 52 79 64 43 38 34 37 41 40 44 46 53 61 66 63 65 58 63 49 60 59 72 48 48 52 52
20 20 19 18 17 16 18 13 16 22 22 26 37 30 36 49 67 63 55 65 65 55 36 37 35 38 38 42 43 46 59 65 60 68 67 56 58 48 48 49 63 60 63 56
15 14 14 15 15 14 16 15 19 22 19 25 21 25 41 47 54 55 56 48 51 56 36 37 36 36 38 39 42 43 57 68 67 70 70 75 67 56 50 54 54 51 47 50
17 15 13 13 13 13 19 18 26 29 28 23 21 27 24 35 41 45 48 50 46 55 41 42 42 39 42 42 44 43 57 68 66 65 64 65 68 64 66 66 55 57 49 43
18 19 13 12 13 14 20 18 20 36 24 20 29 32 26 30 36 38 40 44 42 53 52 49 41 41 44 43 46 46 57 64 63 62 67 66 67 69 75 59 43 45 42 47
15 14 10 10 10 11 15 20 14 16 16 19 27 26 43 42 42 42 42 43 48 55 61 38 35 38 39 43 48 49 54 63 62 57 67 66 64 70 79 67 60 50 54 46
16 18 12 10 12 11 14 14 16 18 32 30 26 29 23 47 42 44 43 43 45 55 58 45 42 42 40 41 46 48 52 60 59 55 57 57 58 63 66 74 69 66 59 53
14 16 18 16 16 13 14 16 16 11 14 20 22 24 33 37 39 44 41 42 43 46 48 48 47 48 45 48 51 48 52 56 56 56 56 60 56 58 62 56 62 67 62 62
17 14 18 15 16 15 13 12 13 17 24 20 19 35 40 41 39 42 41 41 40 43 48 66 56 52 54 56 54 60 56 54 53 54 60 57 58 57 56 64 65 62 74 72
17 16 21 20 15 16 16 15 12 12 12 23 18 16 46 45 45 46 48 45 45 52 51 49 60 62 60 60 64 62 62 58 55 57 53 56 59 59 59 60 59 60 63 67
24 16 20 17 22 16 20 17 15 12 15 15 16 20 48 45 49 55 59 66 62 62 59 58 63 62 66 68 74 73 72 67 67 58 57 64 64 65 60 66 66 68 66 68
17 24 23 17 16 15 18 18 18 19 15 18 15 17 17 40 45 56 68 78 77 73 70 66 61 66 76 76 81 78 79 84 87 82 77 78 75 71 70 70 70 64 62 56
16 24 24 22 19 19 17 16 19 21 21 22 19 22 38 39 48 65 66 68 67 69 68 68 67 77 75 91 94 92 94 94 86 84 88 83 78 78 78 76 80 79 67 63
21 20 26 26 23 21 23 19 20 24 30 30 29 42 39 52 64 68 73 68 68 66 66 68 68 80 89 94 97 98 98 95 96 94 84 86 80 81 80 82 85 89 86 80
24 27 22 22 27 36 22 21 22 24 31 35 34 36 42 47 68 75 66 73 75 62 74 91 94 95 96 92 85 89 96 97 98 98 96 95 90 87 84 85 82 82 81 84
24 26 24 25 22 20 21 24 27 27 25 24 26 41 46 67 77 81 63 54 54 67 84 91 94 96 97 94 88 82 83 94 90 93 95 94 93 89 88 88 84 76 74 76
21 26 25 27 30 30 32 25 24 25 28 30 36 44 65 78 89 92 60 55 63 73 80 89 90 94 95 96 92 89 93 83 81 80 89 88 87 83 88 91 86 80 74 73
24 28 26 26 34 23 30 28 24 36 42 39 46 46 61 73 60 68 62 70 68 71 80 78 84 92 93 91 92 95 92 87 75 79 83 90 80 88 80 86 84 78 71 73
28 28 26 24 29 31 33 31 34 47 39 38 47 50 58 66 61 63 78 80 82 82 76 72 74 86 82 83 80 92 95 93 82 78 79 88 86 74 74 80 72 68 72 73
44 27 32 25 31 42 36 42 43 42 49 48 51 50 60 56 66 76 87 86 82 76 64 59 72 85 71 84 80 79 88 85 81 75 75 76 76 78 74 70 68 57 62 48
38 39 31 38 36 35 36 39 40 50 50 48 50 55 55 58 60 68 67 66 74 68 64 54 60 68 79 70 77 79 74 73 66 72 68 64 65 66 61 52 53 50 47 50
34 42 38 36 41 39 35 37 41 48 51 51 51 50 53 54 60 60 65 69 67 64 63 61 65 64 63 72 66 64 66 62 58 56 52 54 51 56 55 58 60 56 66 64
35 40 40 33 39 38 42 39 39 40 46 48 50 51 50 52 62 64 69 83 89 77 64 62 62 60 58 55 58 59 54 54 52 51 44 38 38 39 41 44 53 84 84 87